﻿<?xml version="1.0" encoding="utf-8"?><gpx creator="Garmin Desktop App" version="1.1" xsi:schemaLocation="http://www.topografix.com/GPX/1/1 http://www.topografix.com/GPX/1/1/gpx.xsd http://www.garmin.com/xmlschemas/WaypointExtension/v1 http://www8.garmin.com/xmlschemas/WaypointExtensionv1.xsd http://www.garmin.com/xmlschemas/TrackPointExtension/v1 http://www.garmin.com/xmlschemas/TrackPointExtensionv1.xsd http://www.garmin.com/xmlschemas/GpxExtensions/v3 http://www8.garmin.com/xmlschemas/GpxExtensionsv3.xsd http://www.garmin.com/xmlschemas/ActivityExtension/v1 http://www8.garmin.com/xmlschemas/ActivityExtensionv1.xsd http://www.garmin.com/xmlschemas/AdventuresExtensions/v1 http://www8.garmin.com/xmlschemas/AdventuresExtensionv1.xsd http://www.garmin.com/xmlschemas/PressureExtension/v1 http://www.garmin.com/xmlschemas/PressureExtensionv1.xsd http://www.garmin.com/xmlschemas/TripExtensions/v1 http://www.garmin.com/xmlschemas/TripExtensionsv1.xsd http://www.garmin.com/xmlschemas/TripMetaDataExtensions/v1 http://www.garmin.com/xmlschemas/TripMetaDataExtensionsv1.xsd http://www.garmin.com/xmlschemas/ViaPointTransportationModeExtensions/v1 http://www.garmin.com/xmlschemas/ViaPointTransportationModeExtensionsv1.xsd http://www.garmin.com/xmlschemas/CreationTimeExtension/v1 http://www.garmin.com/xmlschemas/CreationTimeExtensionsv1.xsd http://www.garmin.com/xmlschemas/AccelerationExtension/v1 http://www.garmin.com/xmlschemas/AccelerationExtensionv1.xsd http://www.garmin.com/xmlschemas/PowerExtension/v1 http://www.garmin.com/xmlschemas/PowerExtensionv1.xsd http://www.garmin.com/xmlschemas/VideoExtension/v1 http://www.garmin.com/xmlschemas/VideoExtensionv1.xsd" xmlns="http://www.topografix.com/GPX/1/1" xmlns:xsi="http://www.w3.org/2001/XMLSchema-instance" xmlns:wptx1="http://www.garmin.com/xmlschemas/WaypointExtension/v1" xmlns:gpxtrx="http://www.garmin.com/xmlschemas/GpxExtensions/v3" xmlns:gpxtpx="http://www.garmin.com/xmlschemas/TrackPointExtension/v1" xmlns:gpxx="http://www.garmin.com/xmlschemas/GpxExtensions/v3" xmlns:trp="http://www.garmin.com/xmlschemas/TripExtensions/v1" xmlns:adv="http://www.garmin.com/xmlschemas/AdventuresExtensions/v1" xmlns:prs="http://www.garmin.com/xmlschemas/PressureExtension/v1" xmlns:tmd="http://www.garmin.com/xmlschemas/TripMetaDataExtensions/v1" xmlns:vptm="http://www.garmin.com/xmlschemas/ViaPointTransportationModeExtensions/v1" xmlns:ctx="http://www.garmin.com/xmlschemas/CreationTimeExtension/v1" xmlns:gpxacc="http://www.garmin.com/xmlschemas/AccelerationExtension/v1" xmlns:gpxpx="http://www.garmin.com/xmlschemas/PowerExtension/v1" xmlns:vidx1="http://www.garmin.com/xmlschemas/VideoExtension/v1">

  <metadata>
    <link href="http://www.garmin.com">
      <text>Garmin International</text>
    </link>
    <time>2019-05-07T14:22:08Z</time>
    <bounds maxlat="53.435053993016481" maxlon="10.724844010546803" minlat="53.192663015797734" minlon="10.331832999363542" />
  </metadata>

  <trk>
    <name>Track vom: 2019-05-07 13:04</name>
    <extensions>
      <gpxx:TrackExtension>
        <gpxx:DisplayColor>DarkGray</gpxx:DisplayColor>
      </gpxx:TrackExtension>
    </extensions>
    <trkseg>
      <trkpt lat="53.249099962413311" lon="10.402937019243836">
        <ele>18.879999999999999</ele>
        <time>2019-05-07T11:04:26Z</time>
      </trkpt>
      <trkpt lat="53.249099962413311" lon="10.402917992323637">
        <ele>17.920000000000002</ele>
        <time>2019-05-07T11:04:56Z</time>
      </trkpt>
      <trkpt lat="53.249093005433679" lon="10.402917992323637">
        <ele>17.920000000000002</ele>
        <time>2019-05-07T11:05:18Z</time>
      </trkpt>
      <trkpt lat="53.24909501709044" lon="10.402867030352354">
        <ele>16.960000000000001</ele>
        <time>2019-05-07T11:05:32Z</time>
      </trkpt>
      <trkpt lat="53.249142961576581" lon="10.402819002047181">
        <ele>16.48</ele>
        <time>2019-05-07T11:05:36Z</time>
      </trkpt>
      <trkpt lat="53.249431969597936" lon="10.402758987620473">
        <ele>13.6</ele>
        <time>2019-05-07T11:05:49Z</time>
      </trkpt>
      <trkpt lat="53.249421995133162" lon="10.402735015377402">
        <ele>13.119999999999999</ele>
        <time>2019-05-07T11:05:55Z</time>
      </trkpt>
      <trkpt lat="53.249277994036674" lon="10.402220031246543">
        <ele>9.27</ele>
        <time>2019-05-07T11:06:05Z</time>
      </trkpt>
      <trkpt lat="53.249231977388263" lon="10.402055997401476">
        <ele>7.35</ele>
        <time>2019-05-07T11:06:14Z</time>
      </trkpt>
      <trkpt lat="53.249188978224993" lon="10.401900010183454">
        <ele>6.87</ele>
        <time>2019-05-07T11:06:17Z</time>
      </trkpt>
      <trkpt lat="53.249167017638683" lon="10.401823986321688">
        <ele>6.39</ele>
        <time>2019-05-07T11:06:18Z</time>
      </trkpt>
      <trkpt lat="53.249085964635015" lon="10.401726001873612">
        <ele>5.91</ele>
        <time>2019-05-07T11:06:20Z</time>
      </trkpt>
      <trkpt lat="53.249049000442028" lon="10.401681996881962">
        <ele>5.91</ele>
        <time>2019-05-07T11:06:21Z</time>
      </trkpt>
      <trkpt lat="53.249014969915152" lon="10.401642015203834">
        <ele>5.91</ele>
        <time>2019-05-07T11:06:22Z</time>
      </trkpt>
      <trkpt lat="53.248984962701797" lon="10.401606978848577">
        <ele>5.91</ele>
        <time>2019-05-07T11:06:23Z</time>
      </trkpt>
      <trkpt lat="53.248957972973585" lon="10.401574037969112">
        <ele>5.91</ele>
        <time>2019-05-07T11:06:24Z</time>
      </trkpt>
      <trkpt lat="53.248930983245373" lon="10.401543024927378">
        <ele>5.91</ele>
        <time>2019-05-07T11:06:25Z</time>
      </trkpt>
      <trkpt lat="53.248930983245373" lon="10.401542019098997">
        <ele>5.91</ele>
        <time>2019-05-07T11:06:26Z</time>
      </trkpt>
      <trkpt lat="53.248930983245373" lon="10.401542019098997">
        <ele>6.39</ele>
        <time>2019-05-07T11:06:27Z</time>
      </trkpt>
      <trkpt lat="53.248901981860399" lon="10.401344960555434">
        <ele>6.39</ele>
        <time>2019-05-07T11:06:28Z</time>
      </trkpt>
      <trkpt lat="53.248928971588612" lon="10.401302967220545">
        <ele>6.87</ele>
        <time>2019-05-07T11:06:29Z</time>
      </trkpt>
      <trkpt lat="53.248995020985603" lon="10.401199031621218">
        <ele>6.87</ele>
        <time>2019-05-07T11:06:31Z</time>
      </trkpt>
      <trkpt lat="53.249003989621997" lon="10.401160977780819">
        <ele>6.87</ele>
        <time>2019-05-07T11:06:32Z</time>
      </trkpt>
      <trkpt lat="53.249019999057055" lon="10.40109702385962">
        <ele>6.87</ele>
        <time>2019-05-07T11:06:33Z</time>
      </trkpt>
      <trkpt lat="53.249035002663732" lon="10.401034997776151">
        <ele>6.87</ele>
        <time>2019-05-07T11:06:34Z</time>
      </trkpt>
      <trkpt lat="53.249047994613647" lon="10.400980012491345">
        <ele>6.87</ele>
        <time>2019-05-07T11:06:35Z</time>
      </trkpt>
      <trkpt lat="53.249062998220325" lon="10.400921003893018">
        <ele>6.87</ele>
        <time>2019-05-07T11:06:36Z</time>
      </trkpt>
      <trkpt lat="53.249093005433679" lon="10.40079602971673">
        <ele>7.35</ele>
        <time>2019-05-07T11:06:38Z</time>
      </trkpt>
      <trkpt lat="53.249112032353878" lon="10.400721011683345">
        <ele>7.35</ele>
        <time>2019-05-07T11:06:39Z</time>
      </trkpt>
      <trkpt lat="53.249143967404962" lon="10.400586985051632">
        <ele>7.35</ele>
        <time>2019-05-07T11:06:41Z</time>
      </trkpt>
      <trkpt lat="53.249158971011639" lon="10.400524036958814">
        <ele>7.83</ele>
        <time>2019-05-07T11:06:42Z</time>
      </trkpt>
      <trkpt lat="53.249174980446696" lon="10.400459999218583">
        <ele>7.83</ele>
        <time>2019-05-07T11:06:43Z</time>
      </trkpt>
      <trkpt lat="53.249190989881754" lon="10.400395039469004">
        <ele>7.83</ele>
        <time>2019-05-07T11:06:44Z</time>
      </trkpt>
      <trkpt lat="53.249209010973573" lon="10.400320021435618">
        <ele>8.310000000000001</ele>
        <time>2019-05-07T11:06:45Z</time>
      </trkpt>
      <trkpt lat="53.249226026237011" lon="10.400249026715755">
        <ele>8.310000000000001</ele>
        <time>2019-05-07T11:06:46Z</time>
      </trkpt>
      <trkpt lat="53.249242035672069" lon="10.400179959833622">
        <ele>8.310000000000001</ele>
        <time>2019-05-07T11:06:47Z</time>
      </trkpt>
      <trkpt lat="53.249257961288095" lon="10.40011097677052">
        <ele>8.789999999999999</ele>
        <time>2019-05-07T11:06:48Z</time>
      </trkpt>
      <trkpt lat="53.249273970723152" lon="10.400042999535799">
        <ele>8.789999999999999</ele>
        <time>2019-05-07T11:06:49Z</time>
      </trkpt>
      <trkpt lat="53.24928998015821" lon="10.399974016472697">
        <ele>9.27</ele>
        <time>2019-05-07T11:06:50Z</time>
      </trkpt>
      <trkpt lat="53.249305989593267" lon="10.399908972904086">
        <ele>9.27</ele>
        <time>2019-05-07T11:06:51Z</time>
      </trkpt>
      <trkpt lat="53.249319987371564" lon="10.399848958477378">
        <ele>9.75</ele>
        <time>2019-05-07T11:06:52Z</time>
      </trkpt>
      <trkpt lat="53.249420989304781" lon="10.399416033178568">
        <ele>11.19</ele>
        <time>2019-05-07T11:07:01Z</time>
      </trkpt>
      <trkpt lat="53.249430041760206" lon="10.39937898516655">
        <ele>12.630000000000001</ele>
        <time>2019-05-07T11:07:07Z</time>
      </trkpt>
      <trkpt lat="53.24946197681129" lon="10.399319976568222">
        <ele>12.630000000000001</ele>
        <time>2019-05-07T11:07:08Z</time>
      </trkpt>
      <trkpt lat="53.249499024823308" lon="10.399340009316802">
        <ele>13.119999999999999</ele>
        <time>2019-05-07T11:07:09Z</time>
      </trkpt>
      <trkpt lat="53.249546969309449" lon="10.399364987388253">
        <ele>13.6</ele>
        <time>2019-05-07T11:07:10Z</time>
      </trkpt>
      <trkpt lat="53.249594997614622" lon="10.399391977116466">
        <ele>14.08</ele>
        <time>2019-05-07T11:07:11Z</time>
      </trkpt>
      <trkpt lat="53.249641014263034" lon="10.399416033178568">
        <ele>14.08</ele>
        <time>2019-05-07T11:07:12Z</time>
      </trkpt>
      <trkpt lat="53.249683007597923" lon="10.399438999593258">
        <ele>14.56</ele>
        <time>2019-05-07T11:07:13Z</time>
      </trkpt>
      <trkpt lat="53.249722989276052" lon="10.399460960179567">
        <ele>14.56</ele>
        <time>2019-05-07T11:07:14Z</time>
      </trkpt>
      <trkpt lat="53.249843018129468" lon="10.399526003748178">
        <ele>15.039999999999999</ele>
        <time>2019-05-07T11:07:17Z</time>
      </trkpt>
      <trkpt lat="53.24987000785768" lon="10.399541007354856">
        <ele>15.52</ele>
        <time>2019-05-07T11:07:18Z</time>
      </trkpt>
      <trkpt lat="53.249895991757512" lon="10.399555005133152">
        <ele>15.52</ele>
        <time>2019-05-07T11:07:19Z</time>
      </trkpt>
      <trkpt lat="53.249895991757512" lon="10.399555005133152">
        <ele>15.52</ele>
        <time>2019-05-07T11:07:29Z</time>
      </trkpt>
      <trkpt lat="53.249967992305756" lon="10.399540001526475">
        <ele>16.48</ele>
        <time>2019-05-07T11:07:44Z</time>
      </trkpt>
      <trkpt lat="53.24997503310442" lon="10.399497002363205">
        <ele>17.440000000000001</ele>
        <time>2019-05-07T11:07:45Z</time>
      </trkpt>
      <trkpt lat="53.249987019225955" lon="10.399417961016297">
        <ele>18.399999999999999</ele>
        <time>2019-05-07T11:07:46Z</time>
      </trkpt>
      <trkpt lat="53.250003028661013" lon="10.39931301958859">
        <ele>18.399999999999999</ele>
        <time>2019-05-07T11:07:47Z</time>
      </trkpt>
      <trkpt lat="53.2500209659338" lon="10.399203971028328">
        <ele>18.399999999999999</ele>
        <time>2019-05-07T11:07:48Z</time>
      </trkpt>
      <trkpt lat="53.250074023380876" lon="10.398882022127509">
        <ele>18.399999999999999</ele>
        <time>2019-05-07T11:07:51Z</time>
      </trkpt>
      <trkpt lat="53.250092966482043" lon="10.398768028244376">
        <ele>18.399999999999999</ele>
        <time>2019-05-07T11:07:52Z</time>
      </trkpt>
      <trkpt lat="53.250111993402243" lon="10.398650011047721">
        <ele>18.399999999999999</ele>
        <time>2019-05-07T11:07:53Z</time>
      </trkpt>
      <trkpt lat="53.250165972858667" lon="10.398325966671109">
        <ele>18.879999999999999</ele>
        <time>2019-05-07T11:07:56Z</time>
      </trkpt>
      <trkpt lat="53.250183993950486" lon="10.39821800775826">
        <ele>18.879999999999999</ele>
        <time>2019-05-07T11:07:57Z</time>
      </trkpt>
      <trkpt lat="53.250202015042305" lon="10.398108037188649">
        <ele>19.359999999999999</ele>
        <time>2019-05-07T11:07:58Z</time>
      </trkpt>
      <trkpt lat="53.250237973406911" lon="10.397884994745255">
        <ele>19.359999999999999</ele>
        <time>2019-05-07T11:08:00Z</time>
      </trkpt>
      <trkpt lat="53.25042799115181" lon="10.396769028156996">
        <ele>19.359999999999999</ele>
        <time>2019-05-07T11:08:09Z</time>
      </trkpt>
      <trkpt lat="53.25055698864162" lon="10.3958760201931">
        <ele>19.84</ele>
        <time>2019-05-07T11:08:15Z</time>
      </trkpt>
      <trkpt lat="53.250548020005226" lon="10.395582988858223">
        <ele>20.32</ele>
        <time>2019-05-07T11:08:17Z</time>
      </trkpt>
      <trkpt lat="53.250543996691704" lon="10.395439993590117">
        <ele>20.809999999999999</ele>
        <time>2019-05-07T11:08:18Z</time>
      </trkpt>
      <trkpt lat="53.250529998913407" lon="10.395289035513997">
        <ele>21.289999999999999</ele>
        <time>2019-05-07T11:08:19Z</time>
      </trkpt>
      <trkpt lat="53.250489011406898" lon="10.395158026367426">
        <ele>22.25</ele>
        <time>2019-05-07T11:08:20Z</time>
      </trkpt>
      <trkpt lat="53.25044902972877" lon="10.395032968372107">
        <ele>22.73</ele>
        <time>2019-05-07T11:08:21Z</time>
      </trkpt>
      <trkpt lat="53.250413993373513" lon="10.394921991974115">
        <ele>23.210000000000001</ele>
        <time>2019-05-07T11:08:22Z</time>
      </trkpt>
      <trkpt lat="53.250316008925438" lon="10.394567018374801">
        <ele>25.609999999999999</ele>
        <time>2019-05-07T11:08:29Z</time>
      </trkpt>
      <trkpt lat="53.250303016975522" lon="10.394515972584486">
        <ele>26.57</ele>
        <time>2019-05-07T11:08:54Z</time>
      </trkpt>
      <trkpt lat="53.250165972858667" lon="10.394108025357127">
        <ele>28.5</ele>
        <time>2019-05-07T11:08:59Z</time>
      </trkpt>
      <trkpt lat="53.250111993402243" lon="10.394084975123405">
        <ele>28.5</ele>
        <time>2019-05-07T11:09:00Z</time>
      </trkpt>
      <trkpt lat="53.250035969540477" lon="10.394102996215224">
        <ele>28.5</ele>
        <time>2019-05-07T11:09:01Z</time>
      </trkpt>
      <trkpt lat="53.24995600618422" lon="10.394121017307043">
        <ele>28.5</ele>
        <time>2019-05-07T11:09:02Z</time>
      </trkpt>
      <trkpt lat="53.24987000785768" lon="10.394141972064972">
        <ele>28.5</ele>
        <time>2019-05-07T11:09:03Z</time>
      </trkpt>
      <trkpt lat="53.249576976522803" lon="10.394160998985171">
        <ele>27.530000000000001</ele>
        <time>2019-05-07T11:09:08Z</time>
      </trkpt>
      <trkpt lat="53.249534983187914" lon="10.394160998985171">
        <ele>27.050000000000001</ele>
        <time>2019-05-07T11:09:09Z</time>
      </trkpt>
      <trkpt lat="53.249496007338166" lon="10.394160998985171">
        <ele>27.050000000000001</ele>
        <time>2019-05-07T11:09:10Z</time>
      </trkpt>
      <trkpt lat="53.248935006558895" lon="10.393786998465657">
        <ele>24.649999999999999</ele>
        <time>2019-05-07T11:09:19Z</time>
      </trkpt>
      <trkpt lat="53.248098995536566" lon="10.393052995204926">
        <ele>17.920000000000002</ele>
        <time>2019-05-07T11:09:29Z</time>
      </trkpt>
      <trkpt lat="53.247094005346298" lon="10.391908027231693">
        <ele>15.039999999999999</ele>
        <time>2019-05-07T11:09:40Z</time>
      </trkpt>
      <trkpt lat="53.246255982667208" lon="10.391442999243736">
        <ele>14.08</ele>
        <time>2019-05-07T11:09:48Z</time>
      </trkpt>
      <trkpt lat="53.245267001911998" lon="10.391290029510856">
        <ele>17.920000000000002</ele>
        <time>2019-05-07T11:09:57Z</time>
      </trkpt>
      <trkpt lat="53.244546996429563" lon="10.391273014247417">
        <ele>22.73</ele>
        <time>2019-05-07T11:10:04Z</time>
      </trkpt>
      <trkpt lat="53.244465021416545" lon="10.3913239762187">
        <ele>23.210000000000001</ele>
        <time>2019-05-07T11:10:05Z</time>
      </trkpt>
      <trkpt lat="53.244410958141088" lon="10.391416009515524">
        <ele>23.690000000000001</ele>
        <time>2019-05-07T11:10:06Z</time>
      </trkpt>
      <trkpt lat="53.244382040575147" lon="10.391552969813347">
        <ele>24.170000000000002</ele>
        <time>2019-05-07T11:10:07Z</time>
      </trkpt>
      <trkpt lat="53.244350021705031" lon="10.391706023365259">
        <ele>24.649999999999999</ele>
        <time>2019-05-07T11:10:08Z</time>
      </trkpt>
      <trkpt lat="53.244315991178155" lon="10.391870979219675">
        <ele>24.649999999999999</ele>
        <time>2019-05-07T11:10:09Z</time>
      </trkpt>
      <trkpt lat="53.244104012846947" lon="10.393697982653975">
        <ele>25.129999999999999</ele>
        <time>2019-05-07T11:10:19Z</time>
      </trkpt>
      <trkpt lat="53.244014997035265" lon="10.396288996562362">
        <ele>23.210000000000001</ele>
        <time>2019-05-07T11:10:31Z</time>
      </trkpt>
      <trkpt lat="53.243978032842278" lon="10.396459987387061">
        <ele>22.73</ele>
        <time>2019-05-07T11:10:32Z</time>
      </trkpt>
      <trkpt lat="53.243942996487021" lon="10.396625027060509">
        <ele>22.73</ele>
        <time>2019-05-07T11:10:33Z</time>
      </trkpt>
      <trkpt lat="53.243890022858977" lon="10.396806998178363">
        <ele>22.73</ele>
        <time>2019-05-07T11:10:34Z</time>
      </trkpt>
      <trkpt lat="53.24381098151207" lon="10.396921997889876">
        <ele>22.73</ele>
        <time>2019-05-07T11:10:35Z</time>
      </trkpt>
      <trkpt lat="53.243730012327433" lon="10.397040015086532">
        <ele>23.210000000000001</ele>
        <time>2019-05-07T11:10:36Z</time>
      </trkpt>
      <trkpt lat="53.243543012067676" lon="10.397237995639443">
        <ele>24.170000000000002</ele>
        <time>2019-05-07T11:10:38Z</time>
      </trkpt>
      <trkpt lat="53.243446033447981" lon="10.397322988137603">
        <ele>24.170000000000002</ele>
        <time>2019-05-07T11:10:39Z</time>
      </trkpt>
      <trkpt lat="53.243348971009254" lon="10.397408986464143">
        <ele>24.649999999999999</ele>
        <time>2019-05-07T11:10:40Z</time>
      </trkpt>
      <trkpt lat="53.242118004709482" lon="10.398486983031034">
        <ele>22.73</ele>
        <time>2019-05-07T11:10:52Z</time>
      </trkpt>
      <trkpt lat="53.241463964805007" lon="10.398937007412314">
        <ele>19.359999999999999</ele>
        <time>2019-05-07T11:10:58Z</time>
      </trkpt>
      <trkpt lat="53.241240000352263" lon="10.398982018232346">
        <ele>18.399999999999999</ele>
        <time>2019-05-07T11:11:00Z</time>
      </trkpt>
      <trkpt lat="53.241136986762285" lon="10.399001967161894">
        <ele>18.399999999999999</ele>
        <time>2019-05-07T11:11:01Z</time>
      </trkpt>
      <trkpt lat="53.241044031456113" lon="10.399001967161894">
        <ele>17.920000000000002</ele>
        <time>2019-05-07T11:11:02Z</time>
      </trkpt>
      <trkpt lat="53.240959960967302" lon="10.398989981040359">
        <ele>17.920000000000002</ele>
        <time>2019-05-07T11:11:03Z</time>
      </trkpt>
      <trkpt lat="53.240886032581329" lon="10.398979000747204">
        <ele>17.920000000000002</ele>
        <time>2019-05-07T11:11:04Z</time>
      </trkpt>
      <trkpt lat="53.240819983184338" lon="10.39896902628243">
        <ele>17.920000000000002</ele>
        <time>2019-05-07T11:11:05Z</time>
      </trkpt>
      <trkpt lat="53.240759968757629" lon="10.398959973827004">
        <ele>18.399999999999999</ele>
        <time>2019-05-07T11:11:06Z</time>
      </trkpt>
      <trkpt lat="53.240710012614727" lon="10.398952011018991">
        <ele>18.399999999999999</ele>
        <time>2019-05-07T11:11:07Z</time>
      </trkpt>
      <trkpt lat="53.240669025108218" lon="10.398945976048708">
        <ele>18.879999999999999</ele>
        <time>2019-05-07T11:11:08Z</time>
      </trkpt>
      <trkpt lat="53.240663995966315" lon="10.399025017395616">
        <ele>18.879999999999999</ele>
        <time>2019-05-07T11:11:09Z</time>
      </trkpt>
      <trkpt lat="53.240656033158302" lon="10.399130964651704">
        <ele>18.879999999999999</ele>
        <time>2019-05-07T11:11:10Z</time>
      </trkpt>
      <trkpt lat="53.240647986531258" lon="10.399244958534837">
        <ele>19.359999999999999</ele>
        <time>2019-05-07T11:11:11Z</time>
      </trkpt>
      <trkpt lat="53.240627031773329" lon="10.399361969903111">
        <ele>19.359999999999999</ele>
        <time>2019-05-07T11:11:12Z</time>
      </trkpt>
      <trkpt lat="53.240570034831762" lon="10.399674028158188">
        <ele>19.359999999999999</ele>
        <time>2019-05-07T11:11:15Z</time>
      </trkpt>
      <trkpt lat="53.240554025396705" lon="10.399761032313108">
        <ele>18.879999999999999</ele>
        <time>2019-05-07T11:11:16Z</time>
      </trkpt>
      <trkpt lat="53.240541033446789" lon="10.399833032861352">
        <ele>18.879999999999999</ele>
        <time>2019-05-07T11:11:17Z</time>
      </trkpt>
      <trkpt lat="53.240531980991364" lon="10.399886006489396">
        <ele>18.879999999999999</ele>
        <time>2019-05-07T11:11:18Z</time>
      </trkpt>
      <trkpt lat="53.240498034283519" lon="10.39995800703764">
        <ele>18.879999999999999</ele>
        <time>2019-05-07T11:11:23Z</time>
      </trkpt>
      <trkpt lat="53.240458974614739" lon="10.399963958188891">
        <ele>18.879999999999999</ele>
        <time>2019-05-07T11:11:24Z</time>
      </trkpt>
      <trkpt lat="53.240401977673173" lon="10.399974016472697">
        <ele>19.359999999999999</ele>
        <time>2019-05-07T11:11:25Z</time>
      </trkpt>
      <trkpt lat="53.240329977124929" lon="10.400056997314095">
        <ele>19.359999999999999</ele>
        <time>2019-05-07T11:11:26Z</time>
      </trkpt>
      <trkpt lat="53.240256970748305" lon="10.400035958737135">
        <ele>19.359999999999999</ele>
        <time>2019-05-07T11:11:27Z</time>
      </trkpt>
      <trkpt lat="53.240177007392049" lon="10.400012992322445">
        <ele>19.359999999999999</ele>
        <time>2019-05-07T11:11:28Z</time>
      </trkpt>
      <trkpt lat="53.240092014893889" lon="10.399989020079374">
        <ele>19.359999999999999</ele>
        <time>2019-05-07T11:11:29Z</time>
      </trkpt>
      <trkpt lat="53.238845961168408" lon="10.39968098513782">
        <ele>20.809999999999999</ele>
        <time>2019-05-07T11:11:41Z</time>
      </trkpt>
      <trkpt lat="53.237804006785154" lon="10.39920799434185">
        <ele>16.960000000000001</ele>
        <time>2019-05-07T11:11:50Z</time>
      </trkpt>
      <trkpt lat="53.237464036792517" lon="10.399039015173912">
        <ele>15.52</ele>
        <time>2019-05-07T11:11:53Z</time>
      </trkpt>
      <trkpt lat="53.237350964918733" lon="10.398982018232346">
        <ele>15.52</ele>
        <time>2019-05-07T11:11:54Z</time>
      </trkpt>
      <trkpt lat="53.236241033300757" lon="10.398340970277786">
        <ele>17.440000000000001</ele>
        <time>2019-05-07T11:12:04Z</time>
      </trkpt>
      <trkpt lat="53.236132990568876" lon="10.398258995264769">
        <ele>17.440000000000001</ele>
        <time>2019-05-07T11:12:05Z</time>
      </trkpt>
      <trkpt lat="53.235069997608662" lon="10.397433964535594">
        <ele>19.84</ele>
        <time>2019-05-07T11:12:15Z</time>
      </trkpt>
      <trkpt lat="53.233955036848783" lon="10.396668026223779">
        <ele>19.84</ele>
        <time>2019-05-07T11:12:25Z</time>
      </trkpt>
      <trkpt lat="53.232504967600107" lon="10.396061008796096">
        <ele>24.649999999999999</ele>
        <time>2019-05-07T11:12:37Z</time>
      </trkpt>
      <trkpt lat="53.231313982978463" lon="10.395598998293281">
        <ele>24.649999999999999</ele>
        <time>2019-05-07T11:12:47Z</time>
      </trkpt>
      <trkpt lat="53.230841998010874" lon="10.395448040217161">
        <ele>22.25</ele>
        <time>2019-05-07T11:12:54Z</time>
      </trkpt>
      <trkpt lat="53.230796987190843" lon="10.395423984155059">
        <ele>22.25</ele>
        <time>2019-05-07T11:12:55Z</time>
      </trkpt>
      <trkpt lat="53.230045968666673" lon="10.395066998898983">
        <ele>22.25</ele>
        <time>2019-05-07T11:13:04Z</time>
      </trkpt>
      <trkpt lat="53.228896977379918" lon="10.394620997831225">
        <ele>22.25</ele>
        <time>2019-05-07T11:13:14Z</time>
      </trkpt>
      <trkpt lat="53.227769024670124" lon="10.394166028127074">
        <ele>21.289999999999999</ele>
        <time>2019-05-07T11:13:23Z</time>
      </trkpt>
      <trkpt lat="53.227659976109862" lon="10.394122023135424">
        <ele>21.289999999999999</ele>
        <time>2019-05-07T11:13:24Z</time>
      </trkpt>
      <trkpt lat="53.227544976398349" lon="10.394075000658631">
        <ele>20.809999999999999</ele>
        <time>2019-05-07T11:13:25Z</time>
      </trkpt>
      <trkpt lat="53.227425031363964" lon="10.394026972353458">
        <ele>20.809999999999999</ele>
        <time>2019-05-07T11:13:26Z</time>
      </trkpt>
      <trkpt lat="53.227311037480831" lon="10.393980033695698">
        <ele>20.32</ele>
        <time>2019-05-07T11:13:27Z</time>
      </trkpt>
      <trkpt lat="53.227190002799034" lon="10.393967963755131">
        <ele>19.84</ele>
        <time>2019-05-07T11:13:28Z</time>
      </trkpt>
      <trkpt lat="53.227071985602379" lon="10.393967963755131">
        <ele>19.359999999999999</ele>
        <time>2019-05-07T11:13:29Z</time>
      </trkpt>
      <trkpt lat="53.226209990680218" lon="10.393967963755131">
        <ele>14.08</ele>
        <time>2019-05-07T11:13:36Z</time>
      </trkpt>
      <trkpt lat="53.224967960268259" lon="10.393975004553795">
        <ele>8.789999999999999</ele>
        <time>2019-05-07T11:13:46Z</time>
      </trkpt>
      <trkpt lat="53.224844997748733" lon="10.393968969583511">
        <ele>8.310000000000001</ele>
        <time>2019-05-07T11:13:47Z</time>
      </trkpt>
      <trkpt lat="53.224719017744064" lon="10.393924964591861">
        <ele>7.83</ele>
        <time>2019-05-07T11:13:48Z</time>
      </trkpt>
      <trkpt lat="53.224601000547409" lon="10.393871990963817">
        <ele>7.35</ele>
        <time>2019-05-07T11:13:49Z</time>
      </trkpt>
      <trkpt lat="53.224490024149418" lon="10.393717009574175">
        <ele>6.87</ele>
        <time>2019-05-07T11:13:50Z</time>
      </trkpt>
      <trkpt lat="53.224401008337736" lon="10.393567979335785">
        <ele>6.87</ele>
        <time>2019-05-07T11:13:51Z</time>
      </trkpt>
      <trkpt lat="53.224314004182816" lon="10.393421966582537">
        <ele>6.87</ele>
        <time>2019-05-07T11:13:52Z</time>
      </trkpt>
      <trkpt lat="53.224239991977811" lon="10.393260028213263">
        <ele>6.87</ele>
        <time>2019-05-07T11:13:53Z</time>
      </trkpt>
      <trkpt lat="53.223588969558477" lon="10.391777018085122">
        <ele>8.789999999999999</ele>
        <time>2019-05-07T11:14:02Z</time>
      </trkpt>
      <trkpt lat="53.222853038460016" lon="10.389928976073861">
        <ele>15.039999999999999</ele>
        <time>2019-05-07T11:14:13Z</time>
      </trkpt>
      <trkpt lat="53.222245015203953" lon="10.388359967619181">
        <ele>24.170000000000002</ele>
        <time>2019-05-07T11:14:22Z</time>
      </trkpt>
      <trkpt lat="53.221688959747553" lon="10.386871006339788">
        <ele>28.98</ele>
        <time>2019-05-07T11:14:32Z</time>
      </trkpt>
      <trkpt lat="53.221435993909836" lon="10.386259965598583">
        <ele>33.299999999999997</ele>
        <time>2019-05-07T11:14:38Z</time>
      </trkpt>
      <trkpt lat="53.221410010010004" lon="10.386198023334146">
        <ele>33.780000000000001</ele>
        <time>2019-05-07T11:14:39Z</time>
      </trkpt>
      <trkpt lat="53.221460971981287" lon="10.386005993932486">
        <ele>34.259999999999998</ele>
        <time>2019-05-07T11:14:40Z</time>
      </trkpt>
      <trkpt lat="53.221516041085124" lon="10.38597003556788">
        <ele>34.740000000000002</ele>
        <time>2019-05-07T11:14:41Z</time>
      </trkpt>
      <trkpt lat="53.221593992784619" lon="10.385921001434326">
        <ele>35.229999999999997</ele>
        <time>2019-05-07T11:14:42Z</time>
      </trkpt>
      <trkpt lat="53.221645960584283" lon="10.385874984785914">
        <ele>35.229999999999997</ele>
        <time>2019-05-07T11:14:43Z</time>
      </trkpt>
      <trkpt lat="53.222126998007298" lon="10.38539101369679">
        <ele>36.189999999999998</ele>
        <time>2019-05-07T11:14:50Z</time>
      </trkpt>
      <trkpt lat="53.222189024090767" lon="10.385266961529851">
        <ele>35.710000000000001</ele>
        <time>2019-05-07T11:14:51Z</time>
      </trkpt>
      <trkpt lat="53.222430003806949" lon="10.384783996269107">
        <ele>33.299999999999997</ele>
        <time>2019-05-07T11:14:55Z</time>
      </trkpt>
      <trkpt lat="53.222719011828303" lon="10.384143032133579">
        <ele>30.420000000000002</ele>
        <time>2019-05-07T11:15:01Z</time>
      </trkpt>
      <trkpt lat="53.222779026255012" lon="10.384007999673486">
        <ele>29.460000000000001</ele>
        <time>2019-05-07T11:15:03Z</time>
      </trkpt>
      <trkpt lat="53.222806015983224" lon="10.383948991075158">
        <ele>28.98</ele>
        <time>2019-05-07T11:15:04Z</time>
      </trkpt>
      <trkpt lat="53.222833005711436" lon="10.38388998247683">
        <ele>28.02</ele>
        <time>2019-05-07T11:15:05Z</time>
      </trkpt>
      <trkpt lat="53.223197031766176" lon="10.383153967559338">
        <ele>26.09</ele>
        <time>2019-05-07T11:15:13Z</time>
      </trkpt>
      <trkpt lat="53.223753003403544" lon="10.382166998460889">
        <ele>28.02</ele>
        <time>2019-05-07T11:15:24Z</time>
      </trkpt>
      <trkpt lat="53.22380899451673" lon="10.382045041769743">
        <ele>28.5</ele>
        <time>2019-05-07T11:15:26Z</time>
      </trkpt>
      <trkpt lat="53.223821986466646" lon="10.381964994594455">
        <ele>28.5</ele>
        <time>2019-05-07T11:15:27Z</time>
      </trkpt>
      <trkpt lat="53.223834978416562" lon="10.381884025409818">
        <ele>28.5</ele>
        <time>2019-05-07T11:15:28Z</time>
      </trkpt>
      <trkpt lat="53.223903961479664" lon="10.38145998492837">
        <ele>28.98</ele>
        <time>2019-05-07T11:15:33Z</time>
      </trkpt>
      <trkpt lat="53.223981996998191" lon="10.381403993815184">
        <ele>28.98</ele>
        <time>2019-05-07T11:15:34Z</time>
      </trkpt>
      <trkpt lat="53.224035976454616" lon="10.381396031007171">
        <ele>28.98</ele>
        <time>2019-05-07T11:15:35Z</time>
      </trkpt>
      <trkpt lat="53.224094985052943" lon="10.381386978551745">
        <ele>28.98</ele>
        <time>2019-05-07T11:15:36Z</time>
      </trkpt>
      <trkpt lat="53.224156005308032" lon="10.381377004086971">
        <ele>29.460000000000001</ele>
        <time>2019-05-07T11:15:37Z</time>
      </trkpt>
      <trkpt lat="53.224221970885992" lon="10.381315983831882">
        <ele>29.460000000000001</ele>
        <time>2019-05-07T11:15:38Z</time>
      </trkpt>
      <trkpt lat="53.224268993362784" lon="10.381233002990484">
        <ele>29.460000000000001</ele>
        <time>2019-05-07T11:15:39Z</time>
      </trkpt>
      <trkpt lat="53.224319033324718" lon="10.381145998835564">
        <ele>29.460000000000001</ele>
        <time>2019-05-07T11:15:40Z</time>
      </trkpt>
      <trkpt lat="53.224369995296001" lon="10.381056983023882">
        <ele>29.940000000000001</ele>
        <time>2019-05-07T11:15:41Z</time>
      </trkpt>
      <trkpt lat="53.224680041894317" lon="10.38051500916481">
        <ele>27.530000000000001</ele>
        <time>2019-05-07T11:15:47Z</time>
      </trkpt>
      <trkpt lat="53.224726980552077" lon="10.380432028323412">
        <ele>27.050000000000001</ele>
        <time>2019-05-07T11:15:48Z</time>
      </trkpt>
      <trkpt lat="53.224780037999153" lon="10.380338989198208">
        <ele>26.57</ele>
        <time>2019-05-07T11:15:49Z</time>
      </trkpt>
      <trkpt lat="53.225022023543715" lon="10.379916960373521">
        <ele>26.09</ele>
        <time>2019-05-07T11:15:53Z</time>
      </trkpt>
      <trkpt lat="53.22507499717176" lon="10.379802966490388">
        <ele>26.57</ele>
        <time>2019-05-07T11:15:54Z</time>
      </trkpt>
      <trkpt lat="53.22511900216341" lon="10.379694001749158">
        <ele>26.57</ele>
        <time>2019-05-07T11:15:55Z</time>
      </trkpt>
      <trkpt lat="53.225437011569738" lon="10.378091968595982">
        <ele>25.129999999999999</ele>
        <time>2019-05-07T11:16:06Z</time>
      </trkpt>
      <trkpt lat="53.225617976859212" lon="10.377046996727586">
        <ele>24.649999999999999</ele>
        <time>2019-05-07T11:16:13Z</time>
      </trkpt>
      <trkpt lat="53.22576298378408" lon="10.376392034813762">
        <ele>23.690000000000001</ele>
        <time>2019-05-07T11:16:18Z</time>
      </trkpt>
      <trkpt lat="53.225807994604111" lon="10.376293966546655">
        <ele>23.210000000000001</ele>
        <time>2019-05-07T11:16:19Z</time>
      </trkpt>
      <trkpt lat="53.225859962403774" lon="10.376221965998411">
        <ele>22.73</ele>
        <time>2019-05-07T11:16:20Z</time>
      </trkpt>
      <trkpt lat="53.225924000144005" lon="10.376150971278548">
        <ele>22.25</ele>
        <time>2019-05-07T11:16:21Z</time>
      </trkpt>
      <trkpt lat="53.225985020399094" lon="10.376081988215446">
        <ele>21.77</ele>
        <time>2019-05-07T11:16:22Z</time>
      </trkpt>
      <trkpt lat="53.226055009290576" lon="10.376051981002092">
        <ele>21.77</ele>
        <time>2019-05-07T11:16:23Z</time>
      </trkpt>
      <trkpt lat="53.2261280156672" lon="10.376056004315615">
        <ele>21.289999999999999</ele>
        <time>2019-05-07T11:16:24Z</time>
      </trkpt>
      <trkpt lat="53.226201022043824" lon="10.376059021800756">
        <ele>20.809999999999999</ele>
        <time>2019-05-07T11:16:25Z</time>
      </trkpt>
      <trkpt lat="53.226262964308262" lon="10.376062039285898">
        <ele>20.32</ele>
        <time>2019-05-07T11:16:26Z</time>
      </trkpt>
      <trkpt lat="53.226381987333298" lon="10.376066984608769">
        <ele>18.879999999999999</ele>
        <time>2019-05-07T11:16:28Z</time>
      </trkpt>
      <trkpt lat="53.226440995931625" lon="10.376070002093911">
        <ele>18.399999999999999</ele>
        <time>2019-05-07T11:16:29Z</time>
      </trkpt>
      <trkpt lat="53.226496987044811" lon="10.376076037064195">
        <ele>17.920000000000002</ele>
        <time>2019-05-07T11:16:30Z</time>
      </trkpt>
      <trkpt lat="53.226594971492887" lon="10.376119036227465">
        <ele>17.920000000000002</ele>
        <time>2019-05-07T11:16:32Z</time>
      </trkpt>
      <trkpt lat="53.226635958999395" lon="10.376135967671871">
        <ele>17.440000000000001</ele>
        <time>2019-05-07T11:16:33Z</time>
      </trkpt>
      <trkpt lat="53.226678958162665" lon="10.376180978491902">
        <ele>17.440000000000001</ele>
        <time>2019-05-07T11:16:34Z</time>
      </trkpt>
      <trkpt lat="53.226719023659825" lon="10.376223977655172">
        <ele>17.440000000000001</ele>
        <time>2019-05-07T11:16:35Z</time>
      </trkpt>
      <trkpt lat="53.226756993681192" lon="10.376263959333301">
        <ele>17.440000000000001</ele>
        <time>2019-05-07T11:16:36Z</time>
      </trkpt>
      <trkpt lat="53.226867970079184" lon="10.376380970701575">
        <ele>16.960000000000001</ele>
        <time>2019-05-07T11:16:39Z</time>
      </trkpt>
      <trkpt lat="53.226949023082852" lon="10.376465041190386">
        <ele>16.960000000000001</ele>
        <time>2019-05-07T11:16:41Z</time>
      </trkpt>
      <trkpt lat="53.227135017514229" lon="10.376614993438125">
        <ele>16.48</ele>
        <time>2019-05-07T11:16:47Z</time>
      </trkpt>
      <trkpt lat="53.227135017514229" lon="10.376614993438125">
        <ele>16.48</ele>
        <time>2019-05-07T11:16:59Z</time>
      </trkpt>
      <trkpt lat="53.227135017514229" lon="10.376614993438125">
        <ele>16.48</ele>
        <time>2019-05-07T11:17:06Z</time>
      </trkpt>
      <trkpt lat="53.227168964222074" lon="10.376634020358324">
        <ele>16.960000000000001</ele>
        <time>2019-05-07T11:17:07Z</time>
      </trkpt>
      <trkpt lat="53.227043990045786" lon="10.376565959304571">
        <ele>16.960000000000001</ele>
        <time>2019-05-07T11:17:08Z</time>
      </trkpt>
      <trkpt lat="53.227126970887184" lon="10.376610970124602">
        <ele>17.440000000000001</ele>
        <time>2019-05-07T11:17:09Z</time>
      </trkpt>
      <trkpt lat="53.227100986987352" lon="10.376596972346306">
        <ele>17.920000000000002</ele>
        <time>2019-05-07T11:17:10Z</time>
      </trkpt>
      <trkpt lat="53.227079026401043" lon="10.376584986224771">
        <ele>17.920000000000002</ele>
        <time>2019-05-07T11:17:11Z</time>
      </trkpt>
      <trkpt lat="53.227043990045786" lon="10.376565959304571">
        <ele>18.399999999999999</ele>
        <time>2019-05-07T11:17:12Z</time>
      </trkpt>
      <trkpt lat="53.227032003924251" lon="10.376552967354655">
        <ele>20.809999999999999</ele>
        <time>2019-05-07T11:17:26Z</time>
      </trkpt>
      <trkpt lat="53.227032003924251" lon="10.376552967354655">
        <ele>21.77</ele>
        <time>2019-05-07T11:18:07Z</time>
      </trkpt>
      <trkpt lat="53.227029992267489" lon="10.376421958208084">
        <ele>23.210000000000001</ele>
        <time>2019-05-07T11:21:06Z</time>
      </trkpt>
      <trkpt lat="53.227025968953967" lon="10.376382982358336">
        <ele>30.899999999999999</ele>
        <time>2019-05-07T11:21:56Z</time>
      </trkpt>
      <trkpt lat="53.227006020024419" lon="10.376417012885213">
        <ele>28.02</ele>
        <time>2019-05-07T11:22:49Z</time>
      </trkpt>
      <trkpt lat="53.226909041404724" lon="10.376423969864845">
        <ele>28.02</ele>
        <time>2019-05-07T11:23:35Z</time>
      </trkpt>
      <trkpt lat="53.226600000634789" lon="10.376120964065194">
        <ele>27.050000000000001</ele>
        <time>2019-05-07T11:23:41Z</time>
      </trkpt>
      <trkpt lat="53.226550966501236" lon="10.376100009307265">
        <ele>26.57</ele>
        <time>2019-05-07T11:23:42Z</time>
      </trkpt>
      <trkpt lat="53.226491035893559" lon="10.376009987667203">
        <ele>26.09</ele>
        <time>2019-05-07T11:23:43Z</time>
      </trkpt>
      <trkpt lat="53.226496987044811" lon="10.375932035967708">
        <ele>26.09</ele>
        <time>2019-05-07T11:23:44Z</time>
      </trkpt>
      <trkpt lat="53.226505033671856" lon="10.375838996842504">
        <ele>25.609999999999999</ele>
        <time>2019-05-07T11:23:45Z</time>
      </trkpt>
      <trkpt lat="53.226512996479869" lon="10.375735983252525">
        <ele>25.129999999999999</ele>
        <time>2019-05-07T11:23:46Z</time>
      </trkpt>
      <trkpt lat="53.226521965116262" lon="10.375628024339676">
        <ele>25.129999999999999</ele>
        <time>2019-05-07T11:23:47Z</time>
      </trkpt>
      <trkpt lat="53.226627996191382" lon="10.374301001429558">
        <ele>24.649999999999999</ele>
        <time>2019-05-07T11:23:57Z</time>
      </trkpt>
      <trkpt lat="53.226698990911245" lon="10.37301697768271">
        <ele>24.170000000000002</ele>
        <time>2019-05-07T11:24:07Z</time>
      </trkpt>
      <trkpt lat="53.226715000346303" lon="10.372950006276369">
        <ele>24.170000000000002</ele>
        <time>2019-05-07T11:24:08Z</time>
      </trkpt>
      <trkpt lat="53.226732015609741" lon="10.372881023213267">
        <ele>24.170000000000002</ele>
        <time>2019-05-07T11:24:09Z</time>
      </trkpt>
      <trkpt lat="53.226782977581024" lon="10.372806005179882">
        <ele>24.170000000000002</ele>
        <time>2019-05-07T11:24:10Z</time>
      </trkpt>
      <trkpt lat="53.226826982572675" lon="10.372775997966528">
        <ele>24.170000000000002</ele>
        <time>2019-05-07T11:24:11Z</time>
      </trkpt>
      <trkpt lat="53.226867970079184" lon="10.372711038216949">
        <ele>24.170000000000002</ele>
        <time>2019-05-07T11:24:12Z</time>
      </trkpt>
      <trkpt lat="53.226861013099551" lon="10.372644988819957">
        <ele>24.170000000000002</ele>
        <time>2019-05-07T11:24:13Z</time>
      </trkpt>
      <trkpt lat="53.226853972300887" lon="10.372585980221629">
        <ele>24.170000000000002</ele>
        <time>2019-05-07T11:24:14Z</time>
      </trkpt>
      <trkpt lat="53.226851038634777" lon="10.372553039342165">
        <ele>24.170000000000002</ele>
        <time>2019-05-07T11:24:15Z</time>
      </trkpt>
      <trkpt lat="53.226814996451139" lon="10.372524037957191">
        <ele>24.170000000000002</ele>
        <time>2019-05-07T11:24:16Z</time>
      </trkpt>
      <trkpt lat="53.226774008944631" lon="10.372492019087076">
        <ele>24.649999999999999</ele>
        <time>2019-05-07T11:24:17Z</time>
      </trkpt>
      <trkpt lat="53.226722041144967" lon="10.372401997447014">
        <ele>24.649999999999999</ele>
        <time>2019-05-07T11:24:18Z</time>
      </trkpt>
      <trkpt lat="53.226694967597723" lon="10.372322034090757">
        <ele>24.649999999999999</ele>
        <time>2019-05-07T11:24:19Z</time>
      </trkpt>
      <trkpt lat="53.226662026718259" lon="10.37222295999527">
        <ele>25.129999999999999</ele>
        <time>2019-05-07T11:24:20Z</time>
      </trkpt>
      <trkpt lat="53.226615004241467" lon="10.372107038274407">
        <ele>25.129999999999999</ele>
        <time>2019-05-07T11:24:21Z</time>
      </trkpt>
      <trkpt lat="53.225986026227474" lon="10.370961986482143">
        <ele>25.609999999999999</ele>
        <time>2019-05-07T11:24:29Z</time>
      </trkpt>
      <trkpt lat="53.224722035229206" lon="10.368674984201789">
        <ele>24.649999999999999</ele>
        <time>2019-05-07T11:24:41Z</time>
      </trkpt>
      <trkpt lat="53.223260985687375" lon="10.366024039685726">
        <ele>28.98</ele>
        <time>2019-05-07T11:24:54Z</time>
      </trkpt>
      <trkpt lat="53.221731958910823" lon="10.363047961145639">
        <ele>33.780000000000001</ele>
        <time>2019-05-07T11:25:08Z</time>
      </trkpt>
      <trkpt lat="53.220645999535918" lon="10.360278999432921">
        <ele>31.859999999999999</ele>
        <time>2019-05-07T11:25:20Z</time>
      </trkpt>
      <trkpt lat="53.220244003459811" lon="10.359250959008932">
        <ele>29.460000000000001</ele>
        <time>2019-05-07T11:25:27Z</time>
      </trkpt>
      <trkpt lat="53.220217013731599" lon="10.359182981774211">
        <ele>29.460000000000001</ele>
        <time>2019-05-07T11:25:28Z</time>
      </trkpt>
      <trkpt lat="53.220196980983019" lon="10.359130008146167">
        <ele>28.98</ele>
        <time>2019-05-07T11:25:29Z</time>
      </trkpt>
      <trkpt lat="53.220181977376342" lon="10.3590920381248">
        <ele>28.98</ele>
        <time>2019-05-07T11:25:30Z</time>
      </trkpt>
      <trkpt lat="53.220218019559979" lon="10.358862038701773">
        <ele>27.530000000000001</ele>
        <time>2019-05-07T11:25:38Z</time>
      </trkpt>
      <trkpt lat="53.220264036208391" lon="10.358803030103445">
        <ele>27.050000000000001</ele>
        <time>2019-05-07T11:25:39Z</time>
      </trkpt>
      <trkpt lat="53.220825036987662" lon="10.357975987717509">
        <ele>26.09</ele>
        <time>2019-05-07T11:25:46Z</time>
      </trkpt>
      <trkpt lat="53.220913968980312" lon="10.3577830363065">
        <ele>26.09</ele>
        <time>2019-05-07T11:25:47Z</time>
      </trkpt>
      <trkpt lat="53.220983035862446" lon="10.357542978599668">
        <ele>25.609999999999999</ele>
        <time>2019-05-07T11:25:48Z</time>
      </trkpt>
      <trkpt lat="53.221035003662109" lon="10.357294036075473">
        <ele>25.609999999999999</ele>
        <time>2019-05-07T11:25:49Z</time>
      </trkpt>
      <trkpt lat="53.221052018925548" lon="10.357011985033751">
        <ele>25.609999999999999</ele>
        <time>2019-05-07T11:25:50Z</time>
      </trkpt>
      <trkpt lat="53.221042966470122" lon="10.356729011982679">
        <ele>25.129999999999999</ele>
        <time>2019-05-07T11:25:51Z</time>
      </trkpt>
      <trkpt lat="53.221016982570291" lon="10.356428017839789">
        <ele>25.129999999999999</ele>
        <time>2019-05-07T11:25:52Z</time>
      </trkpt>
      <trkpt lat="53.22095001116395" lon="10.356158958747983">
        <ele>25.129999999999999</ele>
        <time>2019-05-07T11:25:53Z</time>
      </trkpt>
      <trkpt lat="53.220835011452436" lon="10.355887971818447">
        <ele>24.649999999999999</ele>
        <time>2019-05-07T11:25:54Z</time>
      </trkpt>
      <trkpt lat="53.220723029226065" lon="10.355623019859195">
        <ele>24.649999999999999</ele>
        <time>2019-05-07T11:25:55Z</time>
      </trkpt>
      <trkpt lat="53.22060601785779" lon="10.35535597242415">
        <ele>24.649999999999999</ele>
        <time>2019-05-07T11:25:56Z</time>
      </trkpt>
      <trkpt lat="53.219520980492234" lon="10.352836959064007">
        <ele>27.050000000000001</ele>
        <time>2019-05-07T11:26:05Z</time>
      </trkpt>
      <trkpt lat="53.218581033870578" lon="10.350159024819732">
        <ele>28.5</ele>
        <time>2019-05-07T11:26:14Z</time>
      </trkpt>
      <trkpt lat="53.217331040650606" lon="10.347673958167434">
        <ele>26.57</ele>
        <time>2019-05-07T11:26:24Z</time>
      </trkpt>
      <trkpt lat="53.216507015749812" lon="10.34579599276185">
        <ele>24.649999999999999</ele>
        <time>2019-05-07T11:26:31Z</time>
      </trkpt>
      <trkpt lat="53.215522980317473" lon="10.343567999079823">
        <ele>23.690000000000001</ele>
        <time>2019-05-07T11:26:40Z</time>
      </trkpt>
      <trkpt lat="53.215495990589261" lon="10.343412011861801">
        <ele>23.690000000000001</ele>
        <time>2019-05-07T11:26:41Z</time>
      </trkpt>
      <trkpt lat="53.215477969497442" lon="10.343305980786681">
        <ele>23.690000000000001</ele>
        <time>2019-05-07T11:26:42Z</time>
      </trkpt>
      <trkpt lat="53.215486016124487" lon="10.343216964974999">
        <ele>23.690000000000001</ele>
        <time>2019-05-07T11:26:43Z</time>
      </trkpt>
      <trkpt lat="53.215492973104119" lon="10.343141024932265">
        <ele>23.690000000000001</ele>
        <time>2019-05-07T11:26:44Z</time>
      </trkpt>
      <trkpt lat="53.215500013902783" lon="10.343070030212402">
        <ele>23.690000000000001</ele>
        <time>2019-05-07T11:26:45Z</time>
      </trkpt>
      <trkpt lat="53.215414015576243" lon="10.343013033270836">
        <ele>24.170000000000002</ele>
        <time>2019-05-07T11:26:46Z</time>
      </trkpt>
      <trkpt lat="53.215371016412973" lon="10.342984031885862">
        <ele>24.170000000000002</ele>
        <time>2019-05-07T11:26:47Z</time>
      </trkpt>
      <trkpt lat="53.215332040563226" lon="10.343008004128933">
        <ele>24.170000000000002</ele>
        <time>2019-05-07T11:26:48Z</time>
      </trkpt>
      <trkpt lat="53.215270014479756" lon="10.3430459741503">
        <ele>24.170000000000002</ele>
        <time>2019-05-07T11:26:49Z</time>
      </trkpt>
      <trkpt lat="53.215198013931513" lon="10.343089979141951">
        <ele>24.170000000000002</ele>
        <time>2019-05-07T11:26:50Z</time>
      </trkpt>
      <trkpt lat="53.214279022067785" lon="10.343672018498182">
        <ele>25.129999999999999</ele>
        <time>2019-05-07T11:27:01Z</time>
      </trkpt>
      <trkpt lat="53.214048016816378" lon="10.343842003494501">
        <ele>24.170000000000002</ele>
        <time>2019-05-07T11:27:04Z</time>
      </trkpt>
      <trkpt lat="53.21396897546947" lon="10.343900006264448">
        <ele>23.690000000000001</ele>
        <time>2019-05-07T11:27:05Z</time>
      </trkpt>
      <trkpt lat="53.213887000456452" lon="10.343961026519537">
        <ele>23.210000000000001</ele>
        <time>2019-05-07T11:27:06Z</time>
      </trkpt>
      <trkpt lat="53.213804019615054" lon="10.344021962955594">
        <ele>22.73</ele>
        <time>2019-05-07T11:27:07Z</time>
      </trkpt>
      <trkpt lat="53.213718021288514" lon="10.344084994867444">
        <ele>22.25</ele>
        <time>2019-05-07T11:27:08Z</time>
      </trkpt>
      <trkpt lat="53.213375033810735" lon="10.344337960705161">
        <ele>20.32</ele>
        <time>2019-05-07T11:27:12Z</time>
      </trkpt>
      <trkpt lat="53.213289035484195" lon="10.344400992617011">
        <ele>20.32</ele>
        <time>2019-05-07T11:27:13Z</time>
      </trkpt>
      <trkpt lat="53.213185016065836" lon="10.344407027587295">
        <ele>19.84</ele>
        <time>2019-05-07T11:27:14Z</time>
      </trkpt>
      <trkpt lat="53.213087031617761" lon="10.344413984566927">
        <ele>19.84</ele>
        <time>2019-05-07T11:27:15Z</time>
      </trkpt>
      <trkpt lat="53.212985023856163" lon="10.34442001953721">
        <ele>20.32</ele>
        <time>2019-05-07T11:27:16Z</time>
      </trkpt>
      <trkpt lat="53.212783019989729" lon="10.344433011487126">
        <ele>20.809999999999999</ele>
        <time>2019-05-07T11:27:18Z</time>
      </trkpt>
      <trkpt lat="53.21267900057137" lon="10.344439968466759">
        <ele>20.809999999999999</ele>
        <time>2019-05-07T11:27:19Z</time>
      </trkpt>
      <trkpt lat="53.212573975324631" lon="10.344447009265423">
        <ele>20.809999999999999</ele>
        <time>2019-05-07T11:27:20Z</time>
      </trkpt>
      <trkpt lat="53.212473979219794" lon="10.344452960416675">
        <ele>20.809999999999999</ele>
        <time>2019-05-07T11:27:21Z</time>
      </trkpt>
      <trkpt lat="53.212375994771719" lon="10.344460001215339">
        <ele>20.809999999999999</ele>
        <time>2019-05-07T11:27:22Z</time>
      </trkpt>
      <trkpt lat="53.211521040648222" lon="10.344514986500144">
        <ele>21.289999999999999</ele>
        <time>2019-05-07T11:27:30Z</time>
      </trkpt>
      <trkpt lat="53.211420038715005" lon="10.344522027298808">
        <ele>21.289999999999999</ele>
        <time>2019-05-07T11:27:31Z</time>
      </trkpt>
      <trkpt lat="53.211313001811504" lon="10.34452898427844">
        <ele>21.289999999999999</ele>
        <time>2019-05-07T11:27:32Z</time>
      </trkpt>
      <trkpt lat="53.211209988221526" lon="10.344536025077105">
        <ele>20.809999999999999</ele>
        <time>2019-05-07T11:27:33Z</time>
      </trkpt>
      <trkpt lat="53.211107980459929" lon="10.344541976228356">
        <ele>20.809999999999999</ele>
        <time>2019-05-07T11:27:34Z</time>
      </trkpt>
      <trkpt lat="53.211006978526711" lon="10.34454901702702">
        <ele>20.32</ele>
        <time>2019-05-07T11:27:35Z</time>
      </trkpt>
      <trkpt lat="53.210902959108353" lon="10.344555974006653">
        <ele>20.32</ele>
        <time>2019-05-07T11:27:36Z</time>
      </trkpt>
      <trkpt lat="53.21003601886332" lon="10.344765018671751">
        <ele>19.84</ele>
        <time>2019-05-07T11:27:44Z</time>
      </trkpt>
      <trkpt lat="53.209148040041327" lon="10.3450439684093">
        <ele>15.52</ele>
        <time>2019-05-07T11:27:53Z</time>
      </trkpt>
      <trkpt lat="53.2090700045228" lon="10.345013961195946">
        <ele>15.039999999999999</ele>
        <time>2019-05-07T11:27:54Z</time>
      </trkpt>
      <trkpt lat="53.208891972899437" lon="10.344944978132844">
        <ele>14.56</ele>
        <time>2019-05-07T11:27:56Z</time>
      </trkpt>
      <trkpt lat="53.208449995145202" lon="10.344771975651383">
        <ele>13.6</ele>
        <time>2019-05-07T11:28:02Z</time>
      </trkpt>
      <trkpt lat="53.208396015688777" lon="10.344751020893455">
        <ele>13.6</ele>
        <time>2019-05-07T11:28:03Z</time>
      </trkpt>
      <trkpt lat="53.208357961848378" lon="10.344736017286777">
        <ele>13.6</ele>
        <time>2019-05-07T11:28:04Z</time>
      </trkpt>
      <trkpt lat="53.208261989057064" lon="10.34486903809011">
        <ele>13.119999999999999</ele>
        <time>2019-05-07T11:28:05Z</time>
      </trkpt>
      <trkpt lat="53.208257965743542" lon="10.344967022538185">
        <ele>13.119999999999999</ele>
        <time>2019-05-07T11:28:06Z</time>
      </trkpt>
      <trkpt lat="53.208254026249051" lon="10.34508403390646">
        <ele>12.630000000000001</ele>
        <time>2019-05-07T11:28:07Z</time>
      </trkpt>
      <trkpt lat="53.208248997107148" lon="10.345212025567889">
        <ele>12.630000000000001</ele>
        <time>2019-05-07T11:28:08Z</time>
      </trkpt>
      <trkpt lat="53.208200968801975" lon="10.346457995474339">
        <ele>11.67</ele>
        <time>2019-05-07T11:28:15Z</time>
      </trkpt>
      <trkpt lat="53.208192000165582" lon="10.346679026260972">
        <ele>11.67</ele>
        <time>2019-05-07T11:28:16Z</time>
      </trkpt>
      <trkpt lat="53.208184037357569" lon="10.346897961571813">
        <ele>11.19</ele>
        <time>2019-05-07T11:28:17Z</time>
      </trkpt>
      <trkpt lat="53.208122011274099" lon="10.348504018038511">
        <ele>10.23</ele>
        <time>2019-05-07T11:28:25Z</time>
      </trkpt>
      <trkpt lat="53.208112036809325" lon="10.348771987482905">
        <ele>9.75</ele>
        <time>2019-05-07T11:28:27Z</time>
      </trkpt>
      <trkpt lat="53.208108013495803" lon="10.348878018558025">
        <ele>9.75</ele>
        <time>2019-05-07T11:28:28Z</time>
      </trkpt>
      <trkpt lat="53.208013968542218" lon="10.349158979952335">
        <ele>9.75</ele>
        <time>2019-05-07T11:28:29Z</time>
      </trkpt>
      <trkpt lat="53.207929981872439" lon="10.349153028801084">
        <ele>10.23</ele>
        <time>2019-05-07T11:28:30Z</time>
      </trkpt>
      <trkpt lat="53.207819005474448" lon="10.349145988002419">
        <ele>11.19</ele>
        <time>2019-05-07T11:28:31Z</time>
      </trkpt>
      <trkpt lat="53.207695037126541" lon="10.349138025194407">
        <ele>11.67</ele>
        <time>2019-05-07T11:28:32Z</time>
      </trkpt>
      <trkpt lat="53.206465998664498" lon="10.349056972190738">
        <ele>18.879999999999999</ele>
        <time>2019-05-07T11:28:40Z</time>
      </trkpt>
      <trkpt lat="53.205698970705271" lon="10.349054038524628">
        <ele>21.289999999999999</ele>
        <time>2019-05-07T11:28:45Z</time>
      </trkpt>
      <trkpt lat="53.204229958355427" lon="10.349282026290894">
        <ele>21.77</ele>
        <time>2019-05-07T11:28:55Z</time>
      </trkpt>
      <trkpt lat="53.202812997624278" lon="10.349197033792734">
        <ele>22.73</ele>
        <time>2019-05-07T11:29:05Z</time>
      </trkpt>
      <trkpt lat="53.201267039403319" lon="10.349054960533977">
        <ele>24.170000000000002</ele>
        <time>2019-05-07T11:29:16Z</time>
      </trkpt>
      <trkpt lat="53.20000103674829" lon="10.348594039678574">
        <ele>23.690000000000001</ele>
        <time>2019-05-07T11:29:25Z</time>
      </trkpt>
      <trkpt lat="53.198403026908636" lon="10.347804967314005">
        <ele>23.210000000000001</ele>
        <time>2019-05-07T11:29:36Z</time>
      </trkpt>
      <trkpt lat="53.196803005412221" lon="10.347072975710034">
        <ele>21.289999999999999</ele>
        <time>2019-05-07T11:29:47Z</time>
      </trkpt>
      <trkpt lat="53.196064978837967" lon="10.346651030704379">
        <ele>21.289999999999999</ele>
        <time>2019-05-07T11:29:54Z</time>
      </trkpt>
      <trkpt lat="53.195994989946485" lon="10.346600990742445">
        <ele>21.289999999999999</ele>
        <time>2019-05-07T11:29:55Z</time>
      </trkpt>
      <trkpt lat="53.195930030196905" lon="10.346554974094033">
        <ele>21.289999999999999</ele>
        <time>2019-05-07T11:29:56Z</time>
      </trkpt>
      <trkpt lat="53.195837996900082" lon="10.346671985462308">
        <ele>21.289999999999999</ele>
        <time>2019-05-07T11:29:57Z</time>
      </trkpt>
      <trkpt lat="53.195816958323121" lon="10.346736023202538">
        <ele>21.77</ele>
        <time>2019-05-07T11:29:58Z</time>
      </trkpt>
      <trkpt lat="53.195794997736812" lon="10.346801988780499">
        <ele>21.77</ele>
        <time>2019-05-07T11:29:59Z</time>
      </trkpt>
      <trkpt lat="53.195774964988232" lon="10.346860997378826">
        <ele>22.25</ele>
        <time>2019-05-07T11:30:00Z</time>
      </trkpt>
      <trkpt lat="53.195644961670041" lon="10.347014972940087">
        <ele>23.210000000000001</ele>
        <time>2019-05-07T11:30:03Z</time>
      </trkpt>
      <trkpt lat="53.195604979991913" lon="10.347001980990171">
        <ele>23.210000000000001</ele>
        <time>2019-05-07T11:30:04Z</time>
      </trkpt>
      <trkpt lat="53.195543037727475" lon="10.346980020403862">
        <ele>22.73</ele>
        <time>2019-05-07T11:30:05Z</time>
      </trkpt>
      <trkpt lat="53.194872988387942" lon="10.346821015700698">
        <ele>21.77</ele>
        <time>2019-05-07T11:30:11Z</time>
      </trkpt>
      <trkpt lat="53.194613987579942" lon="10.346812969073653">
        <ele>21.77</ele>
        <time>2019-05-07T11:30:13Z</time>
      </trkpt>
      <trkpt lat="53.194508040323853" lon="10.346825961023569">
        <ele>21.289999999999999</ele>
        <time>2019-05-07T11:30:14Z</time>
      </trkpt>
      <trkpt lat="53.194332020357251" lon="10.346500994637609">
        <ele>21.77</ele>
        <time>2019-05-07T11:30:15Z</time>
      </trkpt>
      <trkpt lat="53.194326991215348" lon="10.346334027126431">
        <ele>21.77</ele>
        <time>2019-05-07T11:30:16Z</time>
      </trkpt>
      <trkpt lat="53.194318022578955" lon="10.346125988289714">
        <ele>22.25</ele>
        <time>2019-05-07T11:30:17Z</time>
      </trkpt>
      <trkpt lat="53.194264965131879" lon="10.345915015786886">
        <ele>22.73</ele>
        <time>2019-05-07T11:30:18Z</time>
      </trkpt>
      <trkpt lat="53.194214003160596" lon="10.34570898860693">
        <ele>23.210000000000001</ele>
        <time>2019-05-07T11:30:19Z</time>
      </trkpt>
      <trkpt lat="53.194107972085476" lon="10.34555803053081">
        <ele>23.210000000000001</ele>
        <time>2019-05-07T11:30:20Z</time>
      </trkpt>
      <trkpt lat="53.194019962102175" lon="10.345430038869381">
        <ele>24.170000000000002</ele>
        <time>2019-05-07T11:30:21Z</time>
      </trkpt>
      <trkpt lat="53.193914014846087" lon="10.345395002514124">
        <ele>24.649999999999999</ele>
        <time>2019-05-07T11:30:22Z</time>
      </trkpt>
      <trkpt lat="53.193824999034405" lon="10.345399025827646">
        <ele>25.129999999999999</ele>
        <time>2019-05-07T11:30:23Z</time>
      </trkpt>
      <trkpt lat="53.193739000707865" lon="10.345413023605943">
        <ele>25.609999999999999</ele>
        <time>2019-05-07T11:30:24Z</time>
      </trkpt>
      <trkpt lat="53.193659959360957" lon="10.345426015555859">
        <ele>26.09</ele>
        <time>2019-05-07T11:30:25Z</time>
      </trkpt>
      <trkpt lat="53.193590976297855" lon="10.345424003899097">
        <ele>27.050000000000001</ele>
        <time>2019-05-07T11:30:26Z</time>
      </trkpt>
      <trkpt lat="53.193549988791347" lon="10.345418974757195">
        <ele>27.530000000000001</ele>
        <time>2019-05-07T11:30:27Z</time>
      </trkpt>
      <trkpt lat="53.193527022376657" lon="10.345415035262704">
        <ele>27.530000000000001</ele>
        <time>2019-05-07T11:30:28Z</time>
      </trkpt>
      <trkpt lat="53.193489974364638" lon="10.345477983355522">
        <ele>28.98</ele>
        <time>2019-05-07T11:30:32Z</time>
      </trkpt>
      <trkpt lat="53.193496009334922" lon="10.34555803053081">
        <ele>29.940000000000001</ele>
        <time>2019-05-07T11:30:33Z</time>
      </trkpt>
      <trkpt lat="53.193505983799696" lon="10.345675963908434">
        <ele>30.420000000000002</ele>
        <time>2019-05-07T11:30:34Z</time>
      </trkpt>
      <trkpt lat="53.193524004891515" lon="10.345823988318443">
        <ele>30.899999999999999</ele>
        <time>2019-05-07T11:30:35Z</time>
      </trkpt>
      <trkpt lat="53.193544037640095" lon="10.345996990799904">
        <ele>30.899999999999999</ele>
        <time>2019-05-07T11:30:36Z</time>
      </trkpt>
      <trkpt lat="53.193678986281157" lon="10.347779989242554">
        <ele>33.780000000000001</ele>
        <time>2019-05-07T11:30:43Z</time>
      </trkpt>
      <trkpt lat="53.193778982385993" lon="10.350989000871778">
        <ele>37.630000000000003</ele>
        <time>2019-05-07T11:30:52Z</time>
      </trkpt>
      <trkpt lat="53.193691978231072" lon="10.355976987630129">
        <ele>41.950000000000003</ele>
        <time>2019-05-07T11:31:04Z</time>
      </trkpt>
      <trkpt lat="53.193222004920244" lon="10.361253982409835">
        <ele>49.649999999999999</ele>
        <time>2019-05-07T11:31:17Z</time>
      </trkpt>
      <trkpt lat="53.192663015797734" lon="10.366543969139457">
        <ele>52.049999999999997</ele>
        <time>2019-05-07T11:31:30Z</time>
      </trkpt>
      <trkpt lat="53.192710960283875" lon="10.369155015796423">
        <ele>49.649999999999999</ele>
        <time>2019-05-07T11:31:38Z</time>
      </trkpt>
      <trkpt lat="53.193185962736607" lon="10.371934035792947">
        <ele>46.280000000000001</ele>
        <time>2019-05-07T11:31:47Z</time>
      </trkpt>
      <trkpt lat="53.194071007892489" lon="10.374157000333071">
        <ele>42.920000000000002</ele>
        <time>2019-05-07T11:31:55Z</time>
      </trkpt>
      <trkpt lat="53.196153994649649" lon="10.378358010202646">
        <ele>40.509999999999998</ele>
        <time>2019-05-07T11:32:11Z</time>
      </trkpt>
      <trkpt lat="53.197711016982794" lon="10.381490997970104">
        <ele>39.07</ele>
        <time>2019-05-07T11:32:23Z</time>
      </trkpt>
      <trkpt lat="53.199220011010766" lon="10.385354971513152">
        <ele>34.740000000000002</ele>
        <time>2019-05-07T11:32:36Z</time>
      </trkpt>
      <trkpt lat="53.200206980109215" lon="10.388909988105297">
        <ele>36.189999999999998</ele>
        <time>2019-05-07T11:32:46Z</time>
      </trkpt>
      <trkpt lat="53.200942995026708" lon="10.39239602163434">
        <ele>39.07</ele>
        <time>2019-05-07T11:32:55Z</time>
      </trkpt>
      <trkpt lat="53.201568033546209" lon="10.3960279840976">
        <ele>37.630000000000003</ele>
        <time>2019-05-07T11:33:04Z</time>
      </trkpt>
      <trkpt lat="53.202177984640002" lon="10.399788022041321">
        <ele>36.670000000000002</ele>
        <time>2019-05-07T11:33:14Z</time>
      </trkpt>
      <trkpt lat="53.202822972089052" lon="10.402246015146375">
        <ele>33.780000000000001</ele>
        <time>2019-05-07T11:33:21Z</time>
      </trkpt>
      <trkpt lat="53.203652026131749" lon="10.404413994401693">
        <ele>28.02</ele>
        <time>2019-05-07T11:33:29Z</time>
      </trkpt>
      <trkpt lat="53.20425502024591" lon="10.406063972041011">
        <ele>26.09</ele>
        <time>2019-05-07T11:33:36Z</time>
      </trkpt>
      <trkpt lat="53.204296007752419" lon="10.406269999220967">
        <ele>25.609999999999999</ele>
        <time>2019-05-07T11:33:37Z</time>
      </trkpt>
      <trkpt lat="53.204288966953754" lon="10.406477032229304">
        <ele>25.609999999999999</ele>
        <time>2019-05-07T11:33:38Z</time>
      </trkpt>
      <trkpt lat="53.204281004145741" lon="10.406693033874035">
        <ele>25.129999999999999</ele>
        <time>2019-05-07T11:33:39Z</time>
      </trkpt>
      <trkpt lat="53.204257031902671" lon="10.406881039962173">
        <ele>24.649999999999999</ele>
        <time>2019-05-07T11:33:40Z</time>
      </trkpt>
      <trkpt lat="53.204193999990821" lon="10.407047001644969">
        <ele>24.170000000000002</ele>
        <time>2019-05-07T11:33:41Z</time>
      </trkpt>
      <trkpt lat="53.2041069958359" lon="10.407196031883359">
        <ele>23.690000000000001</ele>
        <time>2019-05-07T11:33:42Z</time>
      </trkpt>
      <trkpt lat="53.20399702526629" lon="10.407300973311067">
        <ele>23.210000000000001</ele>
        <time>2019-05-07T11:33:43Z</time>
      </trkpt>
      <trkpt lat="53.203882025554776" lon="10.407353024929762">
        <ele>23.210000000000001</ele>
        <time>2019-05-07T11:33:44Z</time>
      </trkpt>
      <trkpt lat="53.203755039721727" lon="10.407346989959478">
        <ele>23.210000000000001</ele>
        <time>2019-05-07T11:33:45Z</time>
      </trkpt>
      <trkpt lat="53.203639034181833" lon="10.407294016331434">
        <ele>23.210000000000001</ele>
        <time>2019-05-07T11:33:46Z</time>
      </trkpt>
      <trkpt lat="53.203528979793191" lon="10.407171975821257">
        <ele>23.210000000000001</ele>
        <time>2019-05-07T11:33:47Z</time>
      </trkpt>
      <trkpt lat="53.20344197563827" lon="10.407030992209911">
        <ele>23.210000000000001</ele>
        <time>2019-05-07T11:33:48Z</time>
      </trkpt>
      <trkpt lat="53.203386990353465" lon="10.406831000000238">
        <ele>23.690000000000001</ele>
        <time>2019-05-07T11:33:49Z</time>
      </trkpt>
      <trkpt lat="53.203348014503717" lon="10.406636036932468">
        <ele>24.170000000000002</ele>
        <time>2019-05-07T11:33:50Z</time>
      </trkpt>
      <trkpt lat="53.203328987583518" lon="10.406432021409273">
        <ele>24.649999999999999</ele>
        <time>2019-05-07T11:33:51Z</time>
      </trkpt>
      <trkpt lat="53.203323036432266" lon="10.406233035027981">
        <ele>25.609999999999999</ele>
        <time>2019-05-07T11:33:52Z</time>
      </trkpt>
      <trkpt lat="53.203318007290363" lon="10.406050980091095">
        <ele>26.57</ele>
        <time>2019-05-07T11:33:53Z</time>
      </trkpt>
      <trkpt lat="53.203338040038943" lon="10.405745040625334">
        <ele>28.02</ele>
        <time>2019-05-07T11:33:55Z</time>
      </trkpt>
      <trkpt lat="53.203371986746788" lon="10.40563297457993">
        <ele>28.5</ele>
        <time>2019-05-07T11:33:56Z</time>
      </trkpt>
      <trkpt lat="53.203401993960142" lon="10.405532978475094">
        <ele>28.98</ele>
        <time>2019-05-07T11:33:57Z</time>
      </trkpt>
      <trkpt lat="53.203427977859974" lon="10.405444968491793">
        <ele>29.460000000000001</ele>
        <time>2019-05-07T11:33:58Z</time>
      </trkpt>
      <trkpt lat="53.203488998115063" lon="10.405380008742213">
        <ele>29.940000000000001</ele>
        <time>2019-05-07T11:33:59Z</time>
      </trkpt>
      <trkpt lat="53.203563010320067" lon="10.405342960730195">
        <ele>30.420000000000002</ele>
        <time>2019-05-07T11:34:00Z</time>
      </trkpt>
      <trkpt lat="53.203663006424904" lon="10.405318988487124">
        <ele>30.899999999999999</ele>
        <time>2019-05-07T11:34:01Z</time>
      </trkpt>
      <trkpt lat="53.203777000308037" lon="10.405322005972266">
        <ele>31.379999999999999</ele>
        <time>2019-05-07T11:34:02Z</time>
      </trkpt>
      <trkpt lat="53.204852985218167" lon="10.40533097460866">
        <ele>31.859999999999999</ele>
        <time>2019-05-07T11:34:09Z</time>
      </trkpt>
      <trkpt lat="53.206004993990064" lon="10.405297027900815">
        <ele>30.420000000000002</ele>
        <time>2019-05-07T11:34:17Z</time>
      </trkpt>
      <trkpt lat="53.207109980285168" lon="10.405319994315505">
        <ele>29.460000000000001</ele>
        <time>2019-05-07T11:34:27Z</time>
      </trkpt>
      <trkpt lat="53.207446010783315" lon="10.40526601485908">
        <ele>28.98</ele>
        <time>2019-05-07T11:34:32Z</time>
      </trkpt>
      <trkpt lat="53.207507031038404" lon="10.405256040394306">
        <ele>28.98</ele>
        <time>2019-05-07T11:34:33Z</time>
      </trkpt>
      <trkpt lat="53.207634016871452" lon="10.405424013733864">
        <ele>28.5</ele>
        <time>2019-05-07T11:34:35Z</time>
      </trkpt>
      <trkpt lat="53.207694031298161" lon="10.405409010127187">
        <ele>28.02</ele>
        <time>2019-05-07T11:34:36Z</time>
      </trkpt>
      <trkpt lat="53.207710040733218" lon="10.405404986813664">
        <ele>28.02</ele>
        <time>2019-05-07T11:34:37Z</time>
      </trkpt>
      <trkpt lat="53.207849012687802" lon="10.405289987102151">
        <ele>27.530000000000001</ele>
        <time>2019-05-07T11:34:38Z</time>
      </trkpt>
      <trkpt lat="53.2079510204494" lon="10.405304990708828">
        <ele>27.050000000000001</ele>
        <time>2019-05-07T11:34:39Z</time>
      </trkpt>
      <trkpt lat="53.208066020160913" lon="10.405323011800647">
        <ele>26.57</ele>
        <time>2019-05-07T11:34:40Z</time>
      </trkpt>
      <trkpt lat="53.20947996340692" lon="10.405370034277439">
        <ele>20.809999999999999</ele>
        <time>2019-05-07T11:34:50Z</time>
      </trkpt>
      <trkpt lat="53.210613029077649" lon="10.405380008742213">
        <ele>17.920000000000002</ele>
        <time>2019-05-07T11:34:58Z</time>
      </trkpt>
      <trkpt lat="53.211012007668614" lon="10.405369028449059">
        <ele>16.48</ele>
        <time>2019-05-07T11:35:04Z</time>
      </trkpt>
      <trkpt lat="53.211051989346743" lon="10.405367016792297">
        <ele>16</ele>
        <time>2019-05-07T11:35:05Z</time>
      </trkpt>
      <trkpt lat="53.21108995936811" lon="10.405366010963917">
        <ele>15.52</ele>
        <time>2019-05-07T11:35:06Z</time>
      </trkpt>
      <trkpt lat="53.211184004321694" lon="10.40563004091382">
        <ele>15.039999999999999</ele>
        <time>2019-05-07T11:35:07Z</time>
      </trkpt>
      <trkpt lat="53.211165983229876" lon="10.405702041462064">
        <ele>15.039999999999999</ele>
        <time>2019-05-07T11:35:08Z</time>
      </trkpt>
      <trkpt lat="53.211143016815186" lon="10.405793990939856">
        <ele>15.039999999999999</ele>
        <time>2019-05-07T11:35:09Z</time>
      </trkpt>
      <trkpt lat="53.211121978238225" lon="10.405876971781254">
        <ele>14.56</ele>
        <time>2019-05-07T11:35:10Z</time>
      </trkpt>
      <trkpt lat="53.211070010438561" lon="10.406030025333166">
        <ele>14.56</ele>
        <time>2019-05-07T11:35:11Z</time>
      </trkpt>
      <trkpt lat="53.210710007697344" lon="10.407093018293381">
        <ele>11.19</ele>
        <time>2019-05-07T11:35:17Z</time>
      </trkpt>
      <trkpt lat="53.21033600717783" lon="10.408214014023542">
        <ele>6.87</ele>
        <time>2019-05-07T11:35:24Z</time>
      </trkpt>
      <trkpt lat="53.210282027721405" lon="10.408375030383468">
        <ele>6.39</ele>
        <time>2019-05-07T11:35:25Z</time>
      </trkpt>
      <trkpt lat="53.210071977227926" lon="10.409006020054221">
        <ele>6.87</ele>
        <time>2019-05-07T11:35:29Z</time>
      </trkpt>
      <trkpt lat="53.209912972524762" lon="10.409483034163713">
        <ele>6.39</ele>
        <time>2019-05-07T11:35:32Z</time>
      </trkpt>
      <trkpt lat="53.209855975583196" lon="10.409653019160032">
        <ele>6.87</ele>
        <time>2019-05-07T11:35:33Z</time>
      </trkpt>
      <trkpt lat="53.209795039147139" lon="10.409794002771378">
        <ele>6.87</ele>
        <time>2019-05-07T11:35:34Z</time>
      </trkpt>
      <trkpt lat="53.209459008648992" lon="10.410286020487547">
        <ele>6.87</ele>
        <time>2019-05-07T11:35:38Z</time>
      </trkpt>
      <trkpt lat="53.209362030029297" lon="10.410382999107242">
        <ele>6.87</ele>
        <time>2019-05-07T11:35:39Z</time>
      </trkpt>
      <trkpt lat="53.20926396176219" lon="10.410481989383698">
        <ele>7.35</ele>
        <time>2019-05-07T11:35:40Z</time>
      </trkpt>
      <trkpt lat="53.209148040041327" lon="10.410596989095211">
        <ele>7.35</ele>
        <time>2019-05-07T11:35:41Z</time>
      </trkpt>
      <trkpt lat="53.209080984815955" lon="10.410732021555305">
        <ele>6.87</ele>
        <time>2019-05-07T11:35:42Z</time>
      </trkpt>
      <trkpt lat="53.20900596678257" lon="10.410907035693526">
        <ele>6.87</ele>
        <time>2019-05-07T11:35:43Z</time>
      </trkpt>
      <trkpt lat="53.208956010639668" lon="10.411095963791013">
        <ele>6.87</ele>
        <time>2019-05-07T11:35:44Z</time>
      </trkpt>
      <trkpt lat="53.208903037011623" lon="10.411296039819717">
        <ele>6.39</ele>
        <time>2019-05-07T11:35:45Z</time>
      </trkpt>
      <trkpt lat="53.208846962079406" lon="10.411505000665784">
        <ele>6.39</ele>
        <time>2019-05-07T11:35:46Z</time>
      </trkpt>
      <trkpt lat="53.20859600789845" lon="10.413299985229969">
        <ele>4.46</ele>
        <time>2019-05-07T11:35:54Z</time>
      </trkpt>
      <trkpt lat="53.208286967128515" lon="10.415196977555752">
        <ele>1.58</ele>
        <time>2019-05-07T11:36:02Z</time>
      </trkpt>
      <trkpt lat="53.208217984065413" lon="10.415429994463921">
        <ele>1.1</ele>
        <time>2019-05-07T11:36:03Z</time>
      </trkpt>
      <trkpt lat="53.207802996039391" lon="10.416776966303587">
        <ele>-2.75</ele>
        <time>2019-05-07T11:36:09Z</time>
      </trkpt>
      <trkpt lat="53.207640973851085" lon="10.41714602150023">
        <ele>-4.19</ele>
        <time>2019-05-07T11:36:11Z</time>
      </trkpt>
      <trkpt lat="53.207569979131222" lon="10.417325980961323">
        <ele>-4.67</ele>
        <time>2019-05-07T11:36:12Z</time>
      </trkpt>
      <trkpt lat="53.207428995519876" lon="10.417723031714559">
        <ele>-5.15</ele>
        <time>2019-05-07T11:36:14Z</time>
      </trkpt>
      <trkpt lat="53.207379961386323" lon="10.417937021702528">
        <ele>-5.63</ele>
        <time>2019-05-07T11:36:15Z</time>
      </trkpt>
      <trkpt lat="53.207339979708195" lon="10.418138019740582">
        <ele>-5.63</ele>
        <time>2019-05-07T11:36:16Z</time>
      </trkpt>
      <trkpt lat="53.207327993586659" lon="10.418345974758267">
        <ele>-5.63</ele>
        <time>2019-05-07T11:36:17Z</time>
      </trkpt>
      <trkpt lat="53.207335034385324" lon="10.41854202747345">
        <ele>-5.15</ele>
        <time>2019-05-07T11:36:18Z</time>
      </trkpt>
      <trkpt lat="53.207340985536575" lon="10.418741013854742">
        <ele>-4.67</ele>
        <time>2019-05-07T11:36:19Z</time>
      </trkpt>
      <trkpt lat="53.207365041598678" lon="10.418956009671092">
        <ele>-4.19</ele>
        <time>2019-05-07T11:36:20Z</time>
      </trkpt>
      <trkpt lat="53.207416003569961" lon="10.419149966910481">
        <ele>-3.71</ele>
        <time>2019-05-07T11:36:21Z</time>
      </trkpt>
      <trkpt lat="53.207866027951241" lon="10.421034973114729">
        <ele>4.46</ele>
        <time>2019-05-07T11:36:31Z</time>
      </trkpt>
      <trkpt lat="53.207940962165594" lon="10.421865032985806">
        <ele>7.35</ele>
        <time>2019-05-07T11:36:35Z</time>
      </trkpt>
      <trkpt lat="53.20797398686409" lon="10.423949025571346">
        <ele>11.67</ele>
        <time>2019-05-07T11:36:45Z</time>
      </trkpt>
      <trkpt lat="53.207970969378948" lon="10.42415102943778">
        <ele>11.67</ele>
        <time>2019-05-07T11:36:46Z</time>
      </trkpt>
      <trkpt lat="53.207969041541219" lon="10.424360996112227">
        <ele>11.67</ele>
        <time>2019-05-07T11:36:47Z</time>
      </trkpt>
      <trkpt lat="53.207980021834373" lon="10.4245609883219">
        <ele>11.67</ele>
        <time>2019-05-07T11:36:48Z</time>
      </trkpt>
      <trkpt lat="53.207991002127528" lon="10.424762992188334">
        <ele>12.15</ele>
        <time>2019-05-07T11:36:49Z</time>
      </trkpt>
      <trkpt lat="53.208001982420683" lon="10.42496801353991">
        <ele>12.15</ele>
        <time>2019-05-07T11:36:50Z</time>
      </trkpt>
      <trkpt lat="53.208012962713838" lon="10.425169011577964">
        <ele>12.15</ele>
        <time>2019-05-07T11:36:51Z</time>
      </trkpt>
      <trkpt lat="53.208054034039378" lon="10.42599898763001">
        <ele>13.6</ele>
        <time>2019-05-07T11:36:55Z</time>
      </trkpt>
      <trkpt lat="53.208054034039378" lon="10.426414981484413">
        <ele>13.119999999999999</ele>
        <time>2019-05-07T11:36:57Z</time>
      </trkpt>
      <trkpt lat="53.208027966320515" lon="10.426634000614285">
        <ele>13.119999999999999</ele>
        <time>2019-05-07T11:36:58Z</time>
      </trkpt>
      <trkpt lat="53.207696964964271" lon="10.428627971559763">
        <ele>11.67</ele>
        <time>2019-05-07T11:37:08Z</time>
      </trkpt>
      <trkpt lat="53.207658994942904" lon="10.428800974041224">
        <ele>10.710000000000001</ele>
        <time>2019-05-07T11:37:09Z</time>
      </trkpt>
      <trkpt lat="53.207606021314859" lon="10.428927959874272">
        <ele>10.23</ele>
        <time>2019-05-07T11:37:10Z</time>
      </trkpt>
      <trkpt lat="53.207508958876133" lon="10.429010018706322">
        <ele>9.75</ele>
        <time>2019-05-07T11:37:11Z</time>
      </trkpt>
      <trkpt lat="53.207411980256438" lon="10.429041031748056">
        <ele>9.27</ele>
        <time>2019-05-07T11:37:12Z</time>
      </trkpt>
      <trkpt lat="53.207305027171969" lon="10.429074978455901">
        <ele>9.27</ele>
        <time>2019-05-07T11:37:13Z</time>
      </trkpt>
      <trkpt lat="53.207190027460456" lon="10.429112026467919">
        <ele>9.27</ele>
        <time>2019-05-07T11:37:14Z</time>
      </trkpt>
      <trkpt lat="53.205960988998413" lon="10.429498013108969">
        <ele>13.119999999999999</ele>
        <time>2019-05-07T11:37:24Z</time>
      </trkpt>
      <trkpt lat="53.20503001101315" lon="10.429794983938336">
        <ele>16</ele>
        <time>2019-05-07T11:37:32Z</time>
      </trkpt>
      <trkpt lat="53.203836008906364" lon="10.430696038529277">
        <ele>20.809999999999999</ele>
        <time>2019-05-07T11:37:42Z</time>
      </trkpt>
      <trkpt lat="53.202762035652995" lon="10.431215967983007">
        <ele>23.690000000000001</ele>
        <time>2019-05-07T11:37:51Z</time>
      </trkpt>
      <trkpt lat="53.2025389932096" lon="10.431368015706539">
        <ele>23.210000000000001</ele>
        <time>2019-05-07T11:37:55Z</time>
      </trkpt>
      <trkpt lat="53.202555002644658" lon="10.431472035124898">
        <ele>23.210000000000001</ele>
        <time>2019-05-07T11:37:56Z</time>
      </trkpt>
      <trkpt lat="53.202572017908096" lon="10.431580999866128">
        <ele>23.210000000000001</ele>
        <time>2019-05-07T11:37:57Z</time>
      </trkpt>
      <trkpt lat="53.202590038999915" lon="10.431701028719544">
        <ele>23.210000000000001</ele>
        <time>2019-05-07T11:37:58Z</time>
      </trkpt>
      <trkpt lat="53.202610993757844" lon="10.431835977360606">
        <ele>23.210000000000001</ele>
        <time>2019-05-07T11:37:59Z</time>
      </trkpt>
      <trkpt lat="53.202631026506424" lon="10.431989030912519">
        <ele>23.210000000000001</ele>
        <time>2019-05-07T11:38:00Z</time>
      </trkpt>
      <trkpt lat="53.202648041769862" lon="10.432152980938554">
        <ele>23.690000000000001</ele>
        <time>2019-05-07T11:38:01Z</time>
      </trkpt>
      <trkpt lat="53.202786007896066" lon="10.434060031548142">
        <ele>25.129999999999999</ele>
        <time>2019-05-07T11:38:10Z</time>
      </trkpt>
      <trkpt lat="53.202826995402575" lon="10.435850992798805">
        <ele>22.73</ele>
        <time>2019-05-07T11:38:18Z</time>
      </trkpt>
      <trkpt lat="53.202725993469357" lon="10.437935991212726">
        <ele>26.09</ele>
        <time>2019-05-07T11:38:29Z</time>
      </trkpt>
      <trkpt lat="53.20271098986268" lon="10.438585001975298">
        <ele>28.02</ele>
        <time>2019-05-07T11:38:37Z</time>
      </trkpt>
      <trkpt lat="53.20271098986268" lon="10.438673011958599">
        <ele>28.5</ele>
        <time>2019-05-07T11:38:47Z</time>
      </trkpt>
      <trkpt lat="53.20271098986268" lon="10.438750041648746">
        <ele>28.98</ele>
        <time>2019-05-07T11:38:48Z</time>
      </trkpt>
      <trkpt lat="53.202936965972185" lon="10.439691999927163">
        <ele>30.420000000000002</ele>
        <time>2019-05-07T11:38:55Z</time>
      </trkpt>
      <trkpt lat="53.203598968684673" lon="10.441560996696353">
        <ele>35.229999999999997</ele>
        <time>2019-05-07T11:39:06Z</time>
      </trkpt>
      <trkpt lat="53.204315034672618" lon="10.443642977625132">
        <ele>41.950000000000003</ele>
        <time>2019-05-07T11:39:17Z</time>
      </trkpt>
      <trkpt lat="53.204828007146716" lon="10.445112995803356">
        <ele>42.439999999999998</ele>
        <time>2019-05-07T11:39:25Z</time>
      </trkpt>
      <trkpt lat="53.205446004867554" lon="10.446928013116121">
        <ele>39.07</ele>
        <time>2019-05-07T11:39:35Z</time>
      </trkpt>
      <trkpt lat="53.206022009253502" lon="10.448673963546753">
        <ele>39.549999999999997</ele>
        <time>2019-05-07T11:39:45Z</time>
      </trkpt>
      <trkpt lat="53.206558031961322" lon="10.45021103695035">
        <ele>40.030000000000001</ele>
        <time>2019-05-07T11:39:54Z</time>
      </trkpt>
      <trkpt lat="53.207315001636744" lon="10.452482029795647">
        <ele>39.07</ele>
        <time>2019-05-07T11:40:07Z</time>
      </trkpt>
      <trkpt lat="53.207580959424376" lon="10.454327976331115">
        <ele>38.590000000000003</ele>
        <time>2019-05-07T11:40:14Z</time>
      </trkpt>
      <trkpt lat="53.207716997712851" lon="10.458021964877844">
        <ele>42.439999999999998</ele>
        <time>2019-05-07T11:40:25Z</time>
      </trkpt>
      <trkpt lat="53.208053028210998" lon="10.460663018748164">
        <ele>45.32</ele>
        <time>2019-05-07T11:40:33Z</time>
      </trkpt>
      <trkpt lat="53.208826007321477" lon="10.462375022470951">
        <ele>43.880000000000003</ele>
        <time>2019-05-07T11:40:39Z</time>
      </trkpt>
      <trkpt lat="53.210361991077662" lon="10.464206971228123">
        <ele>41.469999999999999</ele>
        <time>2019-05-07T11:40:48Z</time>
      </trkpt>
      <trkpt lat="53.211895041167736" lon="10.465636001899838">
        <ele>43.399999999999999</ele>
        <time>2019-05-07T11:40:57Z</time>
      </trkpt>
      <trkpt lat="53.213173029944301" lon="10.465780002996325">
        <ele>44.840000000000003</ele>
        <time>2019-05-07T11:41:04Z</time>
      </trkpt>
      <trkpt lat="53.215033980086446" lon="10.465192012488842">
        <ele>45.32</ele>
        <time>2019-05-07T11:41:13Z</time>
      </trkpt>
      <trkpt lat="53.217167006805539" lon="10.46445700339973">
        <ele>44.359999999999999</ele>
        <time>2019-05-07T11:41:23Z</time>
      </trkpt>
      <trkpt lat="53.219168018549681" lon="10.463773040100932">
        <ele>45.32</ele>
        <time>2019-05-07T11:41:35Z</time>
      </trkpt>
      <trkpt lat="53.220242997631431" lon="10.463309017941356">
        <ele>44.840000000000003</ele>
        <time>2019-05-07T11:41:43Z</time>
      </trkpt>
      <trkpt lat="53.22043402120471" lon="10.46318999491632">
        <ele>44.359999999999999</ele>
        <time>2019-05-07T11:41:45Z</time>
      </trkpt>
      <trkpt lat="53.22049998678267" lon="10.46312503516674">
        <ele>43.880000000000003</ele>
        <time>2019-05-07T11:41:46Z</time>
      </trkpt>
      <trkpt lat="53.220728980377316" lon="10.463164011016488">
        <ele>43.880000000000003</ele>
        <time>2019-05-07T11:41:47Z</time>
      </trkpt>
      <trkpt lat="53.220758987590671" lon="10.463272975757718">
        <ele>43.399999999999999</ele>
        <time>2019-05-07T11:41:48Z</time>
      </trkpt>
      <trkpt lat="53.22077801451087" lon="10.46334003098309">
        <ele>43.399999999999999</ele>
        <time>2019-05-07T11:41:49Z</time>
      </trkpt>
      <trkpt lat="53.220801986753941" lon="10.463586039841175">
        <ele>43.399999999999999</ele>
        <time>2019-05-07T11:41:50Z</time>
      </trkpt>
      <trkpt lat="53.22082101367414" lon="10.463790977373719">
        <ele>42.920000000000002</ele>
        <time>2019-05-07T11:41:51Z</time>
      </trkpt>
      <trkpt lat="53.220814978703856" lon="10.463979989290237">
        <ele>42.920000000000002</ele>
        <time>2019-05-07T11:41:52Z</time>
      </trkpt>
      <trkpt lat="53.220808021724224" lon="10.46419900842011">
        <ele>42.920000000000002</ele>
        <time>2019-05-07T11:41:53Z</time>
      </trkpt>
      <trkpt lat="53.220710959285498" lon="10.466350978240371">
        <ele>44.359999999999999</ele>
        <time>2019-05-07T11:42:01Z</time>
      </trkpt>
      <trkpt lat="53.220594031736255" lon="10.469341976568103">
        <ele>48.200000000000003</ele>
        <time>2019-05-07T11:42:11Z</time>
      </trkpt>
      <trkpt lat="53.220579028129578" lon="10.469813039526343">
        <ele>49.159999999999997</ele>
        <time>2019-05-07T11:42:14Z</time>
      </trkpt>
      <trkpt lat="53.220576010644436" lon="10.469932984560728">
        <ele>49.649999999999999</ele>
        <time>2019-05-07T11:42:15Z</time>
      </trkpt>
      <trkpt lat="53.220530999824405" lon="10.471283979713917">
        <ele>53.009999999999998</ele>
        <time>2019-05-07T11:42:22Z</time>
      </trkpt>
      <trkpt lat="53.220432009547949" lon="10.473857978358865">
        <ele>52.049999999999997</ele>
        <time>2019-05-07T11:42:30Z</time>
      </trkpt>
      <trkpt lat="53.220273004844785" lon="10.477967038750648">
        <ele>52.049999999999997</ele>
        <time>2019-05-07T11:42:41Z</time>
      </trkpt>
      <trkpt lat="53.220109976828098" lon="10.482235020026565">
        <ele>49.649999999999999</ele>
        <time>2019-05-07T11:42:52Z</time>
      </trkpt>
      <trkpt lat="53.220266969874501" lon="10.485410001128912">
        <ele>49.649999999999999</ele>
        <time>2019-05-07T11:43:00Z</time>
      </trkpt>
      <trkpt lat="53.220855966210365" lon="10.48858598805964">
        <ele>49.159999999999997</ele>
        <time>2019-05-07T11:43:08Z</time>
      </trkpt>
      <trkpt lat="53.221468012779951" lon="10.491427034139633">
        <ele>46.759999999999998</ele>
        <time>2019-05-07T11:43:16Z</time>
      </trkpt>
      <trkpt lat="53.222292959690094" lon="10.494867973029613">
        <ele>41.469999999999999</ele>
        <time>2019-05-07T11:43:27Z</time>
      </trkpt>
      <trkpt lat="53.223165012896061" lon="10.497034024447203">
        <ele>39.07</ele>
        <time>2019-05-07T11:43:34Z</time>
      </trkpt>
      <trkpt lat="53.224164973944426" lon="10.499742971733212">
        <ele>40.030000000000001</ele>
        <time>2019-05-07T11:43:43Z</time>
      </trkpt>
      <trkpt lat="53.224549032747746" lon="10.502226026728749">
        <ele>42.439999999999998</ele>
        <time>2019-05-07T11:43:50Z</time>
      </trkpt>
      <trkpt lat="53.224928984418511" lon="10.50555900670588">
        <ele>43.880000000000003</ele>
        <time>2019-05-07T11:43:59Z</time>
      </trkpt>
      <trkpt lat="53.225512029603124" lon="10.510743968188763">
        <ele>47.240000000000002</ele>
        <time>2019-05-07T11:44:13Z</time>
      </trkpt>
      <trkpt lat="53.225829033181071" lon="10.513632036745548">
        <ele>51.57</ele>
        <time>2019-05-07T11:44:22Z</time>
      </trkpt>
      <trkpt lat="53.225984014570713" lon="10.515088979154825">
        <ele>54.450000000000003</ele>
        <time>2019-05-07T11:44:29Z</time>
      </trkpt>
      <trkpt lat="53.225996000692248" lon="10.515197021886706">
        <ele>54.93</ele>
        <time>2019-05-07T11:44:30Z</time>
      </trkpt>
      <trkpt lat="53.226004969328642" lon="10.515284026041627">
        <ele>55.409999999999997</ele>
        <time>2019-05-07T11:44:31Z</time>
      </trkpt>
      <trkpt lat="53.226013015955687" lon="10.51535896025598">
        <ele>55.409999999999997</ele>
        <time>2019-05-07T11:44:32Z</time>
      </trkpt>
      <trkpt lat="53.225906984880567" lon="10.515602035447955">
        <ele>55.890000000000001</ele>
        <time>2019-05-07T11:44:33Z</time>
      </trkpt>
      <trkpt lat="53.225830961018801" lon="10.515622990205884">
        <ele>56.369999999999997</ele>
        <time>2019-05-07T11:44:34Z</time>
      </trkpt>
      <trkpt lat="53.225736999884248" lon="10.515649979934096">
        <ele>56.859999999999999</ele>
        <time>2019-05-07T11:44:35Z</time>
      </trkpt>
      <trkpt lat="53.225626023486257" lon="10.515681998804212">
        <ele>56.859999999999999</ele>
        <time>2019-05-07T11:44:36Z</time>
      </trkpt>
      <trkpt lat="53.225498031824827" lon="10.515718962997198">
        <ele>57.340000000000003</ele>
        <time>2019-05-07T11:44:37Z</time>
      </trkpt>
      <trkpt lat="53.224325990304351" lon="10.516085000708699">
        <ele>58.299999999999997</ele>
        <time>2019-05-07T11:44:44Z</time>
      </trkpt>
      <trkpt lat="53.223064010962844" lon="10.516572995111346">
        <ele>56.859999999999999</ele>
        <time>2019-05-07T11:44:50Z</time>
      </trkpt>
      <trkpt lat="53.222856977954507" lon="10.516733005642891">
        <ele>56.369999999999997</ele>
        <time>2019-05-07T11:44:51Z</time>
      </trkpt>
      <trkpt lat="53.222660003229976" lon="10.516940038651228">
        <ele>55.890000000000001</ele>
        <time>2019-05-07T11:44:52Z</time>
      </trkpt>
      <trkpt lat="53.222469985485077" lon="10.517169032245874">
        <ele>55.409999999999997</ele>
        <time>2019-05-07T11:44:53Z</time>
      </trkpt>
      <trkpt lat="53.222307963296771" lon="10.51743901334703">
        <ele>55.409999999999997</ele>
        <time>2019-05-07T11:44:54Z</time>
      </trkpt>
      <trkpt lat="53.222158011049032" lon="10.51769700832665">
        <ele>55.409999999999997</ele>
        <time>2019-05-07T11:44:55Z</time>
      </trkpt>
      <trkpt lat="53.220902988687158" lon="10.519471960142255">
        <ele>55.409999999999997</ele>
        <time>2019-05-07T11:45:03Z</time>
      </trkpt>
      <trkpt lat="53.220501998439431" lon="10.519715035334229">
        <ele>55.409999999999997</ele>
        <time>2019-05-07T11:45:05Z</time>
      </trkpt>
      <trkpt lat="53.220293037593365" lon="10.519810002297163">
        <ele>55.409999999999997</ele>
        <time>2019-05-07T11:45:06Z</time>
      </trkpt>
      <trkpt lat="53.220068989321589" lon="10.519853001460433">
        <ele>55.409999999999997</ele>
        <time>2019-05-07T11:45:07Z</time>
      </trkpt>
      <trkpt lat="53.219838989898562" lon="10.519898012280464">
        <ele>54.93</ele>
        <time>2019-05-07T11:45:08Z</time>
      </trkpt>
      <trkpt lat="53.219599016010761" lon="10.519861970096827">
        <ele>54.93</ele>
        <time>2019-05-07T11:45:09Z</time>
      </trkpt>
      <trkpt lat="53.219356024637818" lon="10.519816037267447">
        <ele>54.93</ele>
        <time>2019-05-07T11:45:10Z</time>
      </trkpt>
      <trkpt lat="53.219105992466211" lon="10.519768008962274">
        <ele>54.450000000000003</ele>
        <time>2019-05-07T11:45:11Z</time>
      </trkpt>
      <trkpt lat="53.215921958908439" lon="10.518915988504887">
        <ele>51.57</ele>
        <time>2019-05-07T11:45:23Z</time>
      </trkpt>
      <trkpt lat="53.213629005476832" lon="10.518490020185709">
        <ele>51.090000000000003</ele>
        <time>2019-05-07T11:45:32Z</time>
      </trkpt>
      <trkpt lat="53.213390959426761" lon="10.518521033227444">
        <ele>51.090000000000003</ele>
        <time>2019-05-07T11:45:33Z</time>
      </trkpt>
      <trkpt lat="53.213160960003734" lon="10.518633015453815">
        <ele>51.090000000000003</ele>
        <time>2019-05-07T11:45:34Z</time>
      </trkpt>
      <trkpt lat="53.212928026914597" lon="10.518744997680187">
        <ele>51.090000000000003</ele>
        <time>2019-05-07T11:45:35Z</time>
      </trkpt>
      <trkpt lat="53.21269802749157" lon="10.518864020705223">
        <ele>51.090000000000003</ele>
        <time>2019-05-07T11:45:36Z</time>
      </trkpt>
      <trkpt lat="53.212490994483232" lon="10.519069964066148">
        <ele>50.609999999999999</ele>
        <time>2019-05-07T11:45:37Z</time>
      </trkpt>
      <trkpt lat="53.21229100227356" lon="10.51928898319602">
        <ele>50.609999999999999</ele>
        <time>2019-05-07T11:45:38Z</time>
      </trkpt>
      <trkpt lat="53.212112970650196" lon="10.519562987610698">
        <ele>50.609999999999999</ele>
        <time>2019-05-07T11:45:39Z</time>
      </trkpt>
      <trkpt lat="53.211933011189103" lon="10.519841015338898">
        <ele>50.609999999999999</ele>
        <time>2019-05-07T11:45:40Z</time>
      </trkpt>
      <trkpt lat="53.211769983172417" lon="10.52014896646142">
        <ele>51.090000000000003</ele>
        <time>2019-05-07T11:45:41Z</time>
      </trkpt>
      <trkpt lat="53.211619025096297" lon="10.520484996959567">
        <ele>51.090000000000003</ele>
        <time>2019-05-07T11:45:42Z</time>
      </trkpt>
      <trkpt lat="53.211467983201146" lon="10.520821027457714">
        <ele>51.090000000000003</ele>
        <time>2019-05-07T11:45:43Z</time>
      </trkpt>
      <trkpt lat="53.211338985711336" lon="10.521184969693422">
        <ele>51.57</ele>
        <time>2019-05-07T11:45:44Z</time>
      </trkpt>
      <trkpt lat="53.209546012803912" lon="10.52629197947681">
        <ele>60.219999999999999</ele>
        <time>2019-05-07T11:45:58Z</time>
      </trkpt>
      <trkpt lat="53.208679994568229" lon="10.528818033635616">
        <ele>65.989999999999995</ele>
        <time>2019-05-07T11:46:06Z</time>
      </trkpt>
      <trkpt lat="53.208088986575603" lon="10.530475974082947">
        <ele>68.390000000000001</ele>
        <time>2019-05-07T11:46:14Z</time>
      </trkpt>
      <trkpt lat="53.20780199021101" lon="10.531065976247191">
        <ele>68.870000000000005</ele>
        <time>2019-05-07T11:46:18Z</time>
      </trkpt>
      <trkpt lat="53.207740969955921" lon="10.531191034242511">
        <ele>68.870000000000005</ele>
        <time>2019-05-07T11:46:19Z</time>
      </trkpt>
      <trkpt lat="53.207581965252757" lon="10.53119002841413">
        <ele>68.870000000000005</ele>
        <time>2019-05-07T11:46:20Z</time>
      </trkpt>
      <trkpt lat="53.207549024373293" lon="10.531214000657201">
        <ele>68.870000000000005</ele>
        <time>2019-05-07T11:46:21Z</time>
      </trkpt>
      <trkpt lat="53.207476017996669" lon="10.531312990933657">
        <ele>68.870000000000005</ele>
        <time>2019-05-07T11:46:22Z</time>
      </trkpt>
      <trkpt lat="53.207438969984651" lon="10.531423967331648">
        <ele>68.870000000000005</ele>
        <time>2019-05-07T11:46:23Z</time>
      </trkpt>
      <trkpt lat="53.207431007176638" lon="10.53144701756537">
        <ele>69.349999999999994</ele>
        <time>2019-05-07T11:46:24Z</time>
      </trkpt>
      <trkpt lat="53.207384990528226" lon="10.53172898478806">
        <ele>69.829999999999998</ele>
        <time>2019-05-07T11:46:25Z</time>
      </trkpt>
      <trkpt lat="53.207302009686828" lon="10.531831998378038">
        <ele>69.829999999999998</ele>
        <time>2019-05-07T11:46:26Z</time>
      </trkpt>
      <trkpt lat="53.207206958904862" lon="10.531950015574694">
        <ele>69.829999999999998</ele>
        <time>2019-05-07T11:46:27Z</time>
      </trkpt>
      <trkpt lat="53.207103023305535" lon="10.532078007236123">
        <ele>69.829999999999998</ele>
        <time>2019-05-07T11:46:28Z</time>
      </trkpt>
      <trkpt lat="53.206989029422402" lon="10.532203987240791">
        <ele>69.349999999999994</ele>
        <time>2019-05-07T11:46:29Z</time>
      </trkpt>
      <trkpt lat="53.206857014447451" lon="10.532312029972672">
        <ele>69.349999999999994</ele>
        <time>2019-05-07T11:46:30Z</time>
      </trkpt>
      <trkpt lat="53.205535020679235" lon="10.533379968255758">
        <ele>65.989999999999995</ele>
        <time>2019-05-07T11:46:38Z</time>
      </trkpt>
      <trkpt lat="53.204032983630896" lon="10.534553015604615">
        <ele>64.549999999999997</ele>
        <time>2019-05-07T11:46:46Z</time>
      </trkpt>
      <trkpt lat="53.203366035595536" lon="10.535411993041635">
        <ele>63.100000000000001</ele>
        <time>2019-05-07T11:46:52Z</time>
      </trkpt>
      <trkpt lat="53.203306021168828" lon="10.535515006631613">
        <ele>63.100000000000001</ele>
        <time>2019-05-07T11:46:53Z</time>
      </trkpt>
      <trkpt lat="53.203229997307062" lon="10.535671999678016">
        <ele>62.619999999999997</ele>
        <time>2019-05-07T11:46:54Z</time>
      </trkpt>
      <trkpt lat="53.203255981206894" lon="10.535795968025923">
        <ele>62.140000000000001</ele>
        <time>2019-05-07T11:46:55Z</time>
      </trkpt>
      <trkpt lat="53.203288000077009" lon="10.535948015749454">
        <ele>62.140000000000001</ele>
        <time>2019-05-07T11:46:56Z</time>
      </trkpt>
      <trkpt lat="53.203324964269996" lon="10.536125963553786">
        <ele>62.140000000000001</ele>
        <time>2019-05-07T11:46:57Z</time>
      </trkpt>
      <trkpt lat="53.203368969261646" lon="10.536334002390504">
        <ele>61.659999999999997</ele>
        <time>2019-05-07T11:46:58Z</time>
      </trkpt>
      <trkpt lat="53.203709023073316" lon="10.537983980029821">
        <ele>61.659999999999997</ele>
        <time>2019-05-07T11:47:04Z</time>
      </trkpt>
      <trkpt lat="53.204348981380463" lon="10.541649973019958">
        <ele>59.740000000000002</ele>
        <time>2019-05-07T11:47:16Z</time>
      </trkpt>
      <trkpt lat="53.204628014937043" lon="10.543251000344753">
        <ele>61.659999999999997</ele>
        <time>2019-05-07T11:47:23Z</time>
      </trkpt>
      <trkpt lat="53.204850973561406" lon="10.544587997719646">
        <ele>62.140000000000001</ele>
        <time>2019-05-07T11:47:31Z</time>
      </trkpt>
      <trkpt lat="53.204830018803477" lon="10.544691011309624">
        <ele>61.659999999999997</ele>
        <time>2019-05-07T11:47:32Z</time>
      </trkpt>
      <trkpt lat="53.204813003540039" lon="10.544774997979403">
        <ele>61.18</ele>
        <time>2019-05-07T11:47:33Z</time>
      </trkpt>
      <trkpt lat="53.20477101020515" lon="10.544986976310611">
        <ele>60.219999999999999</ele>
        <time>2019-05-07T11:47:39Z</time>
      </trkpt>
      <trkpt lat="53.204811997711658" lon="10.545022012665868">
        <ele>60.219999999999999</ele>
        <time>2019-05-07T11:47:40Z</time>
      </trkpt>
      <trkpt lat="53.204873017966747" lon="10.545073980465531">
        <ele>59.740000000000002</ele>
        <time>2019-05-07T11:47:41Z</time>
      </trkpt>
      <trkpt lat="53.205527979880571" lon="10.545631041750312">
        <ele>59.740000000000002</ele>
        <time>2019-05-07T11:47:47Z</time>
      </trkpt>
      <trkpt lat="53.206979976966977" lon="10.546896038576961">
        <ele>61.18</ele>
        <time>2019-05-07T11:47:57Z</time>
      </trkpt>
      <trkpt lat="53.208914017304778" lon="10.54863603785634">
        <ele>65.030000000000001</ele>
        <time>2019-05-07T11:48:07Z</time>
      </trkpt>
      <trkpt lat="53.211383996531367" lon="10.550860008224845">
        <ele>64.069999999999993</ele>
        <time>2019-05-07T11:48:18Z</time>
      </trkpt>
      <trkpt lat="53.213850958272815" lon="10.553209958598018">
        <ele>63.100000000000001</ele>
        <time>2019-05-07T11:48:29Z</time>
      </trkpt>
      <trkpt lat="53.214034019038081" lon="10.553480023518205">
        <ele>63.579999999999998</ele>
        <time>2019-05-07T11:48:30Z</time>
      </trkpt>
      <trkpt lat="53.214196963235736" lon="10.553781017661095">
        <ele>63.579999999999998</ele>
        <time>2019-05-07T11:48:31Z</time>
      </trkpt>
      <trkpt lat="53.214342975988984" lon="10.5541140306741">
        <ele>64.069999999999993</ele>
        <time>2019-05-07T11:48:32Z</time>
      </trkpt>
      <trkpt lat="53.215617025271058" lon="10.557107962667942">
        <ele>67.909999999999997</ele>
        <time>2019-05-07T11:48:41Z</time>
      </trkpt>
      <trkpt lat="53.216404002159834" lon="10.559094976633787">
        <ele>70.310000000000002</ele>
        <time>2019-05-07T11:48:48Z</time>
      </trkpt>
      <trkpt lat="53.216629978269339" lon="10.559591017663479">
        <ele>70.790000000000006</ele>
        <time>2019-05-07T11:48:50Z</time>
      </trkpt>
      <trkpt lat="53.216765010729432" lon="10.559825040400028">
        <ele>70.790000000000006</ele>
        <time>2019-05-07T11:48:51Z</time>
      </trkpt>
      <trkpt lat="53.216918986290693" lon="10.560022015124559">
        <ele>71.269999999999996</ele>
        <time>2019-05-07T11:48:52Z</time>
      </trkpt>
      <trkpt lat="53.217078996822238" lon="10.560199040919542">
        <ele>71.269999999999996</ele>
        <time>2019-05-07T11:48:53Z</time>
      </trkpt>
      <trkpt lat="53.217240013182163" lon="10.560370031744242">
        <ele>71.760000000000005</ele>
        <time>2019-05-07T11:48:54Z</time>
      </trkpt>
      <trkpt lat="53.217414021492004" lon="10.560509003698826">
        <ele>72.239999999999995</ele>
        <time>2019-05-07T11:48:55Z</time>
      </trkpt>
      <trkpt lat="53.217603033408523" lon="10.560599025338888">
        <ele>72.239999999999995</ele>
        <time>2019-05-07T11:48:56Z</time>
      </trkpt>
      <trkpt lat="53.21779103949666" lon="10.560683012008667">
        <ele>72.719999999999999</ele>
        <time>2019-05-07T11:48:57Z</time>
      </trkpt>
      <trkpt lat="53.218145007267594" lon="10.560864983126521">
        <ele>73.200000000000003</ele>
        <time>2019-05-07T11:48:59Z</time>
      </trkpt>
      <trkpt lat="53.218497969210148" lon="10.561127001419663">
        <ele>73.680000000000007</ele>
        <time>2019-05-07T11:49:01Z</time>
      </trkpt>
      <trkpt lat="53.218636019155383" lon="10.561345014721155">
        <ele>73.680000000000007</ele>
        <time>2019-05-07T11:49:02Z</time>
      </trkpt>
      <trkpt lat="53.218777002766728" lon="10.561566967517138">
        <ele>73.680000000000007</ele>
        <time>2019-05-07T11:49:03Z</time>
      </trkpt>
      <trkpt lat="53.218914968892932" lon="10.56180601939559">
        <ele>73.680000000000007</ele>
        <time>2019-05-07T11:49:04Z</time>
      </trkpt>
      <trkpt lat="53.219028040766716" lon="10.562081029638648">
        <ele>74.159999999999997</ele>
        <time>2019-05-07T11:49:05Z</time>
      </trkpt>
      <trkpt lat="53.219809988513589" lon="10.563981961458921">
        <ele>77.040000000000006</ele>
        <time>2019-05-07T11:49:12Z</time>
      </trkpt>
      <trkpt lat="53.220422035083175" lon="10.565517023205757">
        <ele>77.519999999999996</ele>
        <time>2019-05-07T11:49:19Z</time>
      </trkpt>
      <trkpt lat="53.220897037535906" lon="10.566703984513879">
        <ele>74.640000000000001</ele>
        <time>2019-05-07T11:49:27Z</time>
      </trkpt>
      <trkpt lat="53.221032992005348" lon="10.566974971443415">
        <ele>73.200000000000003</ele>
        <time>2019-05-07T11:49:30Z</time>
      </trkpt>
      <trkpt lat="53.221062999218702" lon="10.567034985870123">
        <ele>73.200000000000003</ele>
        <time>2019-05-07T11:49:31Z</time>
      </trkpt>
      <trkpt lat="53.221074985340238" lon="10.567204970866442">
        <ele>72.719999999999999</ele>
        <time>2019-05-07T11:49:32Z</time>
      </trkpt>
      <trkpt lat="53.221052018925548" lon="10.567292980849743">
        <ele>72.239999999999995</ele>
        <time>2019-05-07T11:49:33Z</time>
      </trkpt>
      <trkpt lat="53.221020000055432" lon="10.567415021359921">
        <ele>72.239999999999995</ele>
        <time>2019-05-07T11:49:34Z</time>
      </trkpt>
      <trkpt lat="53.220982030034065" lon="10.567562961950898">
        <ele>71.760000000000005</ele>
        <time>2019-05-07T11:49:35Z</time>
      </trkpt>
      <trkpt lat="53.22067198343575" lon="10.568867018446326">
        <ele>71.760000000000005</ele>
        <time>2019-05-07T11:49:41Z</time>
      </trkpt>
      <trkpt lat="53.220078041777015" lon="10.571343032643199">
        <ele>71.269999999999996</ele>
        <time>2019-05-07T11:49:49Z</time>
      </trkpt>
      <trkpt lat="53.219358958303928" lon="10.574347022920847">
        <ele>67.909999999999997</ele>
        <time>2019-05-07T11:49:57Z</time>
      </trkpt>
      <trkpt lat="53.218469973653555" lon="10.577965993434191">
        <ele>69.349999999999994</ele>
        <time>2019-05-07T11:50:06Z</time>
      </trkpt>
      <trkpt lat="53.217861028388143" lon="10.580447958782315">
        <ele>70.310000000000002</ele>
        <time>2019-05-07T11:50:13Z</time>
      </trkpt>
      <trkpt lat="53.217008002102375" lon="10.583231002092361">
        <ele>66.950000000000003</ele>
        <time>2019-05-07T11:50:22Z</time>
      </trkpt>
      <trkpt lat="53.215908966958523" lon="10.58516101911664">
        <ele>62.140000000000001</ele>
        <time>2019-05-07T11:50:30Z</time>
      </trkpt>
      <trkpt lat="53.214241974055767" lon="10.587692018598318">
        <ele>60.219999999999999</ele>
        <time>2019-05-07T11:50:41Z</time>
      </trkpt>
      <trkpt lat="53.213391965255141" lon="10.589941972866654">
        <ele>58.780000000000001</ele>
        <time>2019-05-07T11:50:49Z</time>
      </trkpt>
      <trkpt lat="53.212933978065848" lon="10.593107985332608">
        <ele>57.82</ele>
        <time>2019-05-07T11:50:58Z</time>
      </trkpt>
      <trkpt lat="53.212475990876555" lon="10.595550974830985">
        <ele>55.409999999999997</ele>
        <time>2019-05-07T11:51:05Z</time>
      </trkpt>
      <trkpt lat="53.211546018719673" lon="10.598183982074261">
        <ele>52.530000000000001</ele>
        <time>2019-05-07T11:51:14Z</time>
      </trkpt>
      <trkpt lat="53.210188988596201" lon="10.601265002042055">
        <ele>44.840000000000003</ele>
        <time>2019-05-07T11:51:25Z</time>
      </trkpt>
      <trkpt lat="53.208719976246357" lon="10.603340025991201">
        <ele>39.07</ele>
        <time>2019-05-07T11:51:34Z</time>
      </trkpt>
      <trkpt lat="53.207025993615389" lon="10.604787999764085">
        <ele>34.740000000000002</ele>
        <time>2019-05-07T11:51:43Z</time>
      </trkpt>
      <trkpt lat="53.20518197491765" lon="10.606299005448818">
        <ele>30.899999999999999</ele>
        <time>2019-05-07T11:51:53Z</time>
      </trkpt>
      <trkpt lat="53.20361103862524" lon="10.607753014191985">
        <ele>27.050000000000001</ele>
        <time>2019-05-07T11:52:02Z</time>
      </trkpt>
      <trkpt lat="53.202419970184565" lon="10.609700968489051">
        <ele>21.77</ele>
        <time>2019-05-07T11:52:10Z</time>
      </trkpt>
      <trkpt lat="53.201692001894116" lon="10.612056031823158">
        <ele>20.32</ele>
        <time>2019-05-07T11:52:18Z</time>
      </trkpt>
      <trkpt lat="53.201381033286452" lon="10.614608991891146">
        <ele>22.73</ele>
        <time>2019-05-07T11:52:26Z</time>
      </trkpt>
      <trkpt lat="53.201295034959912" lon="10.617596972733736">
        <ele>28.5</ele>
        <time>2019-05-07T11:52:35Z</time>
      </trkpt>
      <trkpt lat="53.201178023591638" lon="10.620507001876831">
        <ele>34.740000000000002</ele>
        <time>2019-05-07T11:52:44Z</time>
      </trkpt>
      <trkpt lat="53.200985994189978" lon="10.621952963992953">
        <ele>38.590000000000003</ele>
        <time>2019-05-07T11:52:50Z</time>
      </trkpt>
      <trkpt lat="53.200597995892167" lon="10.623858002945781">
        <ele>44.359999999999999</ele>
        <time>2019-05-07T11:52:59Z</time>
      </trkpt>
      <trkpt lat="53.199998019263148" lon="10.626426972448826">
        <ele>47.240000000000002</ele>
        <time>2019-05-07T11:53:08Z</time>
      </trkpt>
      <trkpt lat="53.199093025177717" lon="10.63021500594914">
        <ele>46.759999999999998</ele>
        <time>2019-05-07T11:53:19Z</time>
      </trkpt>
      <trkpt lat="53.198661021888256" lon="10.632019964978099">
        <ele>48.200000000000003</ele>
        <time>2019-05-07T11:53:26Z</time>
      </trkpt>
      <trkpt lat="53.198256008327007" lon="10.633689975365996">
        <ele>51.57</ele>
        <time>2019-05-07T11:53:35Z</time>
      </trkpt>
      <trkpt lat="53.197657959535718" lon="10.636130031198263">
        <ele>54.450000000000003</ele>
        <time>2019-05-07T11:53:48Z</time>
      </trkpt>
      <trkpt lat="53.197154039517045" lon="10.638307984918356">
        <ele>55.409999999999997</ele>
        <time>2019-05-07T11:53:59Z</time>
      </trkpt>
      <trkpt lat="53.196939965710044" lon="10.639237035065889">
        <ele>58.299999999999997</ele>
        <time>2019-05-07T11:54:06Z</time>
      </trkpt>
      <trkpt lat="53.196916999295354" lon="10.639336025342345">
        <ele>58.299999999999997</ele>
        <time>2019-05-07T11:54:07Z</time>
      </trkpt>
      <trkpt lat="53.196894032880664" lon="10.639416994526982">
        <ele>58.780000000000001</ele>
        <time>2019-05-07T11:54:08Z</time>
      </trkpt>
      <trkpt lat="53.196937032043934" lon="10.639512967318296">
        <ele>58.780000000000001</ele>
        <time>2019-05-07T11:54:09Z</time>
      </trkpt>
      <trkpt lat="53.19699302315712" lon="10.639537023380399">
        <ele>58.780000000000001</ele>
        <time>2019-05-07T11:54:10Z</time>
      </trkpt>
      <trkpt lat="53.19705898873508" lon="10.639565018936992">
        <ele>59.259999999999998</ele>
        <time>2019-05-07T11:54:11Z</time>
      </trkpt>
      <trkpt lat="53.197135012596846" lon="10.639597959816456">
        <ele>59.259999999999998</ele>
        <time>2019-05-07T11:54:12Z</time>
      </trkpt>
      <trkpt lat="53.19794001057744" lon="10.639942958950996">
        <ele>60.700000000000003</ele>
        <time>2019-05-07T11:54:19Z</time>
      </trkpt>
      <trkpt lat="53.199310032650828" lon="10.640538996085525">
        <ele>61.18</ele>
        <time>2019-05-07T11:54:27Z</time>
      </trkpt>
      <trkpt lat="53.201435012742877" lon="10.641470979899168">
        <ele>53.490000000000002</ele>
        <time>2019-05-07T11:54:37Z</time>
      </trkpt>
      <trkpt lat="53.203056994825602" lon="10.642465995624661">
        <ele>48.68</ele>
        <time>2019-05-07T11:54:45Z</time>
      </trkpt>
      <trkpt lat="53.205621019005775" lon="10.644684014841914">
        <ele>41.950000000000003</ele>
        <time>2019-05-07T11:54:58Z</time>
      </trkpt>
      <trkpt lat="53.206774033606052" lon="10.645652040839195">
        <ele>40.990000000000002</ele>
        <time>2019-05-07T11:55:04Z</time>
      </trkpt>
      <trkpt lat="53.206979976966977" lon="10.645763017237186">
        <ele>40.509999999999998</ele>
        <time>2019-05-07T11:55:05Z</time>
      </trkpt>
      <trkpt lat="53.209131024777889" lon="10.646848976612091">
        <ele>39.549999999999997</ele>
        <time>2019-05-07T11:55:15Z</time>
      </trkpt>
      <trkpt lat="53.211041009053588" lon="10.647803004831076">
        <ele>40.030000000000001</ele>
        <time>2019-05-07T11:55:24Z</time>
      </trkpt>
      <trkpt lat="53.211445016786456" lon="10.64800601452589">
        <ele>40.030000000000001</ele>
        <time>2019-05-07T11:55:26Z</time>
      </trkpt>
      <trkpt lat="53.213660018518567" lon="10.648610014468431">
        <ele>43.880000000000003</ele>
        <time>2019-05-07T11:55:37Z</time>
      </trkpt>
      <trkpt lat="53.216336024925113" lon="10.649214014410973">
        <ele>43.880000000000003</ele>
        <time>2019-05-07T11:55:51Z</time>
      </trkpt>
      <trkpt lat="53.217043038457632" lon="10.649485001340508">
        <ele>41.469999999999999</ele>
        <time>2019-05-07T11:55:55Z</time>
      </trkpt>
      <trkpt lat="53.217225009575486" lon="10.649587009102106">
        <ele>40.509999999999998</ele>
        <time>2019-05-07T11:55:56Z</time>
      </trkpt>
      <trkpt lat="53.217545030638576" lon="10.649929996579885">
        <ele>39.549999999999997</ele>
        <time>2019-05-07T11:55:58Z</time>
      </trkpt>
      <trkpt lat="53.217693977057934" lon="10.650121020153165">
        <ele>39.549999999999997</ele>
        <time>2019-05-07T11:55:59Z</time>
      </trkpt>
      <trkpt lat="53.21852495893836" lon="10.651201028376818">
        <ele>40.509999999999998</ele>
        <time>2019-05-07T11:56:05Z</time>
      </trkpt>
      <trkpt lat="53.218657979741693" lon="10.651374030858278">
        <ele>41.469999999999999</ele>
        <time>2019-05-07T11:56:06Z</time>
      </trkpt>
      <trkpt lat="53.219169024378061" lon="10.652038967236876">
        <ele>43.399999999999999</ele>
        <time>2019-05-07T11:56:10Z</time>
      </trkpt>
      <trkpt lat="53.219322999939322" lon="10.652152039110661">
        <ele>43.880000000000003</ele>
        <time>2019-05-07T11:56:11Z</time>
      </trkpt>
      <trkpt lat="53.219479992985725" lon="10.652243988588452">
        <ele>43.880000000000003</ele>
        <time>2019-05-07T11:56:12Z</time>
      </trkpt>
      <trkpt lat="53.219644026830792" lon="10.652339039370418">
        <ele>44.359999999999999</ele>
        <time>2019-05-07T11:56:13Z</time>
      </trkpt>
      <trkpt lat="53.219809988513589" lon="10.652435012161732">
        <ele>44.359999999999999</ele>
        <time>2019-05-07T11:56:14Z</time>
      </trkpt>
      <trkpt lat="53.221491985023022" lon="10.653178989887238">
        <ele>46.759999999999998</ele>
        <time>2019-05-07T11:56:23Z</time>
      </trkpt>
      <trkpt lat="53.223095024004579" lon="10.653879968449473">
        <ele>44.359999999999999</ele>
        <time>2019-05-07T11:56:31Z</time>
      </trkpt>
      <trkpt lat="53.224423974752426" lon="10.654461001977324">
        <ele>41.469999999999999</ele>
        <time>2019-05-07T11:56:39Z</time>
      </trkpt>
      <trkpt lat="53.225486967712641" lon="10.654982021078467">
        <ele>37.149999999999999</ele>
        <time>2019-05-07T11:56:48Z</time>
      </trkpt>
      <trkpt lat="53.226249972358346" lon="10.655509997159243">
        <ele>33.780000000000001</ele>
        <time>2019-05-07T11:56:55Z</time>
      </trkpt>
      <trkpt lat="53.227468030527234" lon="10.655646035447717">
        <ele>31.859999999999999</ele>
        <time>2019-05-07T11:57:05Z</time>
      </trkpt>
      <trkpt lat="53.227588981389999" lon="10.65563396550715">
        <ele>31.379999999999999</ele>
        <time>2019-05-07T11:57:06Z</time>
      </trkpt>
      <trkpt lat="53.227709010243416" lon="10.655622985213995">
        <ele>30.899999999999999</ele>
        <time>2019-05-07T11:57:07Z</time>
      </trkpt>
      <trkpt lat="53.227821998298168" lon="10.655558025464416">
        <ele>29.940000000000001</ele>
        <time>2019-05-07T11:57:08Z</time>
      </trkpt>
      <trkpt lat="53.229041984304786" lon="10.654812958091497">
        <ele>25.129999999999999</ele>
        <time>2019-05-07T11:57:19Z</time>
      </trkpt>
      <trkpt lat="53.23027303442359" lon="10.654022041708231">
        <ele>26.57</ele>
        <time>2019-05-07T11:57:30Z</time>
      </trkpt>
      <trkpt lat="53.23147701099515" lon="10.653276974335313">
        <ele>29.460000000000001</ele>
        <time>2019-05-07T11:57:38Z</time>
      </trkpt>
      <trkpt lat="53.231987971812487" lon="10.652992995455861">
        <ele>29.940000000000001</ele>
        <time>2019-05-07T11:57:41Z</time>
      </trkpt>
      <trkpt lat="53.232163991779089" lon="10.652957037091255">
        <ele>29.940000000000001</ele>
        <time>2019-05-07T11:57:42Z</time>
      </trkpt>
      <trkpt lat="53.232345040887594" lon="10.652948990464211">
        <ele>29.940000000000001</ele>
        <time>2019-05-07T11:57:43Z</time>
      </trkpt>
      <trkpt lat="53.232522988691926" lon="10.652941027656198">
        <ele>29.940000000000001</ele>
        <time>2019-05-07T11:57:44Z</time>
      </trkpt>
      <trkpt lat="53.232692973688245" lon="10.65301101654768">
        <ele>29.940000000000001</ele>
        <time>2019-05-07T11:57:45Z</time>
      </trkpt>
      <trkpt lat="53.232862958684564" lon="10.653087040409446">
        <ele>29.940000000000001</ele>
        <time>2019-05-07T11:57:46Z</time>
      </trkpt>
      <trkpt lat="53.234189981594682" lon="10.653732027858496">
        <ele>28.5</ele>
        <time>2019-05-07T11:57:54Z</time>
      </trkpt>
      <trkpt lat="53.234352003782988" lon="10.653725992888212">
        <ele>28.5</ele>
        <time>2019-05-07T11:57:55Z</time>
      </trkpt>
      <trkpt lat="53.234517965465784" lon="10.653716018423438">
        <ele>28.5</ele>
        <time>2019-05-07T11:57:56Z</time>
      </trkpt>
      <trkpt lat="53.234676970168948" lon="10.653645023703575">
        <ele>28.5</ele>
        <time>2019-05-07T11:57:57Z</time>
      </trkpt>
      <trkpt lat="53.234833041206002" lon="10.653541004285216">
        <ele>28.5</ele>
        <time>2019-05-07T11:57:58Z</time>
      </trkpt>
      <trkpt lat="53.234985005110502" lon="10.653366995975375">
        <ele>28.5</ele>
        <time>2019-05-07T11:57:59Z</time>
      </trkpt>
      <trkpt lat="53.235133029520512" lon="10.653198016807437">
        <ele>28.5</ele>
        <time>2019-05-07T11:58:00Z</time>
      </trkpt>
      <trkpt lat="53.235251968726516" lon="10.652959970757365">
        <ele>28.5</ele>
        <time>2019-05-07T11:58:01Z</time>
      </trkpt>
      <trkpt lat="53.235374009236693" lon="10.652715973556042">
        <ele>28.5</ele>
        <time>2019-05-07T11:58:02Z</time>
      </trkpt>
      <trkpt lat="53.235495965927839" lon="10.652472982183099">
        <ele>28.02</ele>
        <time>2019-05-07T11:58:03Z</time>
      </trkpt>
      <trkpt lat="53.2356240414083" lon="10.652249017730355">
        <ele>27.530000000000001</ele>
        <time>2019-05-07T11:58:04Z</time>
      </trkpt>
      <trkpt lat="53.235771981999278" lon="10.652069980278611">
        <ele>27.050000000000001</ele>
        <time>2019-05-07T11:58:05Z</time>
      </trkpt>
      <trkpt lat="53.235937021672726" lon="10.651926985010505">
        <ele>26.57</ele>
        <time>2019-05-07T11:58:06Z</time>
      </trkpt>
      <trkpt lat="53.236106000840664" lon="10.651791030541062">
        <ele>26.09</ele>
        <time>2019-05-07T11:58:07Z</time>
      </trkpt>
      <trkpt lat="53.236274980008602" lon="10.651654992252588">
        <ele>25.609999999999999</ele>
        <time>2019-05-07T11:58:08Z</time>
      </trkpt>
      <trkpt lat="53.236450999975204" lon="10.651513002812862">
        <ele>25.609999999999999</ele>
        <time>2019-05-07T11:58:09Z</time>
      </trkpt>
      <trkpt lat="53.238164009526372" lon="10.650138035416603">
        <ele>24.170000000000002</ele>
        <time>2019-05-07T11:58:19Z</time>
      </trkpt>
      <trkpt lat="53.240019008517265" lon="10.648678997531533">
        <ele>22.73</ele>
        <time>2019-05-07T11:58:30Z</time>
      </trkpt>
      <trkpt lat="53.241388024762273" lon="10.647540986537933">
        <ele>22.73</ele>
        <time>2019-05-07T11:58:38Z</time>
      </trkpt>
      <trkpt lat="53.241545017808676" lon="10.647345017641783">
        <ele>22.73</ele>
        <time>2019-05-07T11:58:39Z</time>
      </trkpt>
      <trkpt lat="53.242683028802276" lon="10.645597977563739">
        <ele>22.73</ele>
        <time>2019-05-07T11:58:47Z</time>
      </trkpt>
      <trkpt lat="53.244650010019541" lon="10.642551993951201">
        <ele>26.57</ele>
        <time>2019-05-07T11:59:01Z</time>
      </trkpt>
      <trkpt lat="53.246022965759039" lon="10.640428019687533">
        <ele>28.02</ele>
        <time>2019-05-07T11:59:12Z</time>
      </trkpt>
      <trkpt lat="53.246662002056837" lon="10.639426968991756">
        <ele>27.050000000000001</ele>
        <time>2019-05-07T11:59:19Z</time>
      </trkpt>
      <trkpt lat="53.246832992881536" lon="10.639140978455544">
        <ele>27.050000000000001</ele>
        <time>2019-05-07T11:59:22Z</time>
      </trkpt>
      <trkpt lat="53.246903987601399" lon="10.638688020408154">
        <ele>26.57</ele>
        <time>2019-05-07T11:59:30Z</time>
      </trkpt>
      <trkpt lat="53.246946986764669" lon="10.638193991035223">
        <ele>25.609999999999999</ele>
        <time>2019-05-07T11:59:39Z</time>
      </trkpt>
      <trkpt lat="53.246991997584701" lon="10.637667020782828">
        <ele>26.09</ele>
        <time>2019-05-07T11:59:49Z</time>
      </trkpt>
      <trkpt lat="53.247032985091209" lon="10.637196963652968">
        <ele>24.649999999999999</ele>
        <time>2019-05-07T11:59:58Z</time>
      </trkpt>
      <trkpt lat="53.247043965384364" lon="10.637053968384862">
        <ele>20.809999999999999</ele>
        <time>2019-05-07T12:00:07Z</time>
      </trkpt>
      <trkpt lat="53.247048994526267" lon="10.636960007250309">
        <ele>19.84</ele>
        <time>2019-05-07T12:00:16Z</time>
      </trkpt>
      <trkpt lat="53.247051006183028" lon="10.636908961459994">
        <ele>18.879999999999999</ele>
        <time>2019-05-07T12:00:17Z</time>
      </trkpt>
      <trkpt lat="53.247055029496551" lon="10.636844001710415">
        <ele>17.920000000000002</ele>
        <time>2019-05-07T12:00:18Z</time>
      </trkpt>
      <trkpt lat="53.247141027823091" lon="10.636310996487737">
        <ele>15.52</ele>
        <time>2019-05-07T12:00:29Z</time>
      </trkpt>
      <trkpt lat="53.247141027823091" lon="10.636310996487737">
        <ele>14.56</ele>
        <time>2019-05-07T12:00:35Z</time>
      </trkpt>
      <trkpt lat="53.247113032266498" lon="10.636444017291069">
        <ele>14.56</ele>
        <time>2019-05-07T12:00:39Z</time>
      </trkpt>
      <trkpt lat="53.247102973982692" lon="10.63648802228272">
        <ele>14.56</ele>
        <time>2019-05-07T12:00:40Z</time>
      </trkpt>
      <trkpt lat="53.247091993689537" lon="10.636544013395905">
        <ele>14.56</ele>
        <time>2019-05-07T12:00:41Z</time>
      </trkpt>
      <trkpt lat="53.247079001739621" lon="10.636606039479375">
        <ele>14.56</ele>
        <time>2019-05-07T12:00:42Z</time>
      </trkpt>
      <trkpt lat="53.247065003961325" lon="10.636669993400574">
        <ele>14.56</ele>
        <time>2019-05-07T12:00:43Z</time>
      </trkpt>
      <trkpt lat="53.247053017839789" lon="10.636879038065672">
        <ele>13.119999999999999</ele>
        <time>2019-05-07T12:00:52Z</time>
      </trkpt>
      <trkpt lat="53.246923014521599" lon="10.637006023898721">
        <ele>35.710000000000001</ele>
        <time>2019-05-07T12:04:00Z</time>
      </trkpt>
      <trkpt lat="53.247019993141294" lon="10.636964030563831">
        <ele>15.52</ele>
        <time>2019-05-07T12:04:31Z</time>
      </trkpt>
      <trkpt lat="53.246980011463165" lon="10.636938968673348">
        <ele>19.359999999999999</ele>
        <time>2019-05-07T12:05:23Z</time>
      </trkpt>
      <trkpt lat="53.246996020898223" lon="10.636933017522097">
        <ele>16</ele>
        <time>2019-05-07T12:06:17Z</time>
      </trkpt>
      <trkpt lat="53.246982023119926" lon="10.63702697865665">
        <ele>16.960000000000001</ele>
        <time>2019-05-07T12:07:03Z</time>
      </trkpt>
      <trkpt lat="53.246982023119926" lon="10.637044999748468">
        <ele>16.960000000000001</ele>
        <time>2019-05-07T12:07:04Z</time>
      </trkpt>
      <trkpt lat="53.246995015069842" lon="10.637089004740119">
        <ele>16.960000000000001</ele>
        <time>2019-05-07T12:07:06Z</time>
      </trkpt>
      <trkpt lat="53.247046982869506" lon="10.636994959786534">
        <ele>17.920000000000002</ele>
        <time>2019-05-07T12:07:12Z</time>
      </trkpt>
      <trkpt lat="53.247055029496551" lon="10.636836038902402">
        <ele>17.920000000000002</ele>
        <time>2019-05-07T12:07:15Z</time>
      </trkpt>
      <trkpt lat="53.247058968991041" lon="10.636760015040636">
        <ele>17.920000000000002</ele>
        <time>2019-05-07T12:07:16Z</time>
      </trkpt>
      <trkpt lat="53.247095011174679" lon="10.636525992304087">
        <ele>17.440000000000001</ele>
        <time>2019-05-07T12:07:19Z</time>
      </trkpt>
      <trkpt lat="53.247263990342617" lon="10.635728035122156">
        <ele>17.440000000000001</ele>
        <time>2019-05-07T12:07:28Z</time>
      </trkpt>
      <trkpt lat="53.247277988120914" lon="10.635660979896784">
        <ele>17.440000000000001</ele>
        <time>2019-05-07T12:07:29Z</time>
      </trkpt>
      <trkpt lat="53.247315958142281" lon="10.635564001277089">
        <ele>17.440000000000001</ele>
        <time>2019-05-07T12:07:30Z</time>
      </trkpt>
      <trkpt lat="53.247364992275834" lon="10.635575987398624">
        <ele>16.960000000000001</ele>
        <time>2019-05-07T12:07:31Z</time>
      </trkpt>
      <trkpt lat="53.24742098338902" lon="10.635589985176921">
        <ele>16.960000000000001</ele>
        <time>2019-05-07T12:07:32Z</time>
      </trkpt>
      <trkpt lat="53.247488038614392" lon="10.635599037632346">
        <ele>16.48</ele>
        <time>2019-05-07T12:07:33Z</time>
      </trkpt>
      <trkpt lat="53.247563978657126" lon="10.635583028197289">
        <ele>16.48</ele>
        <time>2019-05-07T12:07:34Z</time>
      </trkpt>
      <trkpt lat="53.248439971357584" lon="10.635484037920833">
        <ele>17.440000000000001</ele>
        <time>2019-05-07T12:07:45Z</time>
      </trkpt>
      <trkpt lat="53.24851599521935" lon="10.635485965758562">
        <ele>17.920000000000002</ele>
        <time>2019-05-07T12:07:46Z</time>
      </trkpt>
      <trkpt lat="53.248874992132187" lon="10.635510021820664">
        <ele>18.879999999999999</ele>
        <time>2019-05-07T12:07:51Z</time>
      </trkpt>
      <trkpt lat="53.24892695993185" lon="10.635536005720496">
        <ele>19.359999999999999</ele>
        <time>2019-05-07T12:07:52Z</time>
      </trkpt>
      <trkpt lat="53.248958978801966" lon="10.635552015155554">
        <ele>18.879999999999999</ele>
        <time>2019-05-07T12:07:53Z</time>
      </trkpt>
      <trkpt lat="53.248993009328842" lon="10.635569030418992">
        <ele>18.879999999999999</ele>
        <time>2019-05-07T12:08:04Z</time>
      </trkpt>
      <trkpt lat="53.249030979350209" lon="10.63558797352016">
        <ele>18.879999999999999</ele>
        <time>2019-05-07T12:08:05Z</time>
      </trkpt>
      <trkpt lat="53.249101974070072" lon="10.635624015703797">
        <ele>19.359999999999999</ele>
        <time>2019-05-07T12:08:06Z</time>
      </trkpt>
      <trkpt lat="53.249157965183258" lon="10.635594008490443">
        <ele>19.359999999999999</ele>
        <time>2019-05-07T12:08:07Z</time>
      </trkpt>
      <trkpt lat="53.249436998739839" lon="10.63548001460731">
        <ele>20.809999999999999</ele>
        <time>2019-05-07T12:08:10Z</time>
      </trkpt>
      <trkpt lat="53.250433020293713" lon="10.635326961055398">
        <ele>21.77</ele>
        <time>2019-05-07T12:08:17Z</time>
      </trkpt>
      <trkpt lat="53.25058096088469" lon="10.635268036276102">
        <ele>22.25</ele>
        <time>2019-05-07T12:08:18Z</time>
      </trkpt>
      <trkpt lat="53.250738037750125" lon="10.635198969393969">
        <ele>22.73</ele>
        <time>2019-05-07T12:08:19Z</time>
      </trkpt>
      <trkpt lat="53.250881033018231" lon="10.635067960247397">
        <ele>23.690000000000001</ele>
        <time>2019-05-07T12:08:20Z</time>
      </trkpt>
      <trkpt lat="53.251024028286338" lon="10.634885989129543">
        <ele>24.170000000000002</ele>
        <time>2019-05-07T12:08:21Z</time>
      </trkpt>
      <trkpt lat="53.251169035211205" lon="10.634701000526547">
        <ele>24.649999999999999</ele>
        <time>2019-05-07T12:08:22Z</time>
      </trkpt>
      <trkpt lat="53.251463994383812" lon="10.634327000007033">
        <ele>26.09</ele>
        <time>2019-05-07T12:08:24Z</time>
      </trkpt>
      <trkpt lat="53.251616964116693" lon="10.634151985868812">
        <ele>27.050000000000001</ele>
        <time>2019-05-07T12:08:25Z</time>
      </trkpt>
      <trkpt lat="53.251799019053578" lon="10.634060958400369">
        <ele>28.02</ele>
        <time>2019-05-07T12:08:26Z</time>
      </trkpt>
      <trkpt lat="53.251985013484955" lon="10.633968003094196">
        <ele>28.98</ele>
        <time>2019-05-07T12:08:27Z</time>
      </trkpt>
      <trkpt lat="53.25219196267426" lon="10.633864989504218">
        <ele>29.940000000000001</ele>
        <time>2019-05-07T12:08:28Z</time>
      </trkpt>
      <trkpt lat="53.25236102566123" lon="10.633818972855806">
        <ele>31.379999999999999</ele>
        <time>2019-05-07T12:08:29Z</time>
      </trkpt>
      <trkpt lat="53.254320966079831" lon="10.633289990946651">
        <ele>40.990000000000002</ele>
        <time>2019-05-07T12:08:39Z</time>
      </trkpt>
      <trkpt lat="53.255792995914817" lon="10.632807025685906">
        <ele>45.32</ele>
        <time>2019-05-07T12:08:47Z</time>
      </trkpt>
      <trkpt lat="53.255977984517813" lon="10.632696971297264">
        <ele>45.799999999999997</ele>
        <time>2019-05-07T12:08:48Z</time>
      </trkpt>
      <trkpt lat="53.256157021969557" lon="10.632518017664552">
        <ele>46.280000000000001</ele>
        <time>2019-05-07T12:08:49Z</time>
      </trkpt>
      <trkpt lat="53.256516018882394" lon="10.632129013538361">
        <ele>46.759999999999998</ele>
        <time>2019-05-07T12:08:51Z</time>
      </trkpt>
      <trkpt lat="53.256663037464023" lon="10.631898008286953">
        <ele>46.759999999999998</ele>
        <time>2019-05-07T12:08:52Z</time>
      </trkpt>
      <trkpt lat="53.257919987663627" lon="10.629682000726461">
        <ele>43.880000000000003</ele>
        <time>2019-05-07T12:09:02Z</time>
      </trkpt>
      <trkpt lat="53.2583980076015" lon="10.62851901166141">
        <ele>41.469999999999999</ele>
        <time>2019-05-07T12:09:08Z</time>
      </trkpt>
      <trkpt lat="53.259121030569077" lon="10.627411007881165">
        <ele>38.109999999999999</ele>
        <time>2019-05-07T12:09:16Z</time>
      </trkpt>
      <trkpt lat="53.259902978315949" lon="10.626874985173345">
        <ele>33.299999999999997</ele>
        <time>2019-05-07T12:09:24Z</time>
      </trkpt>
      <trkpt lat="53.260904029011726" lon="10.626826034858823">
        <ele>28.02</ele>
        <time>2019-05-07T12:09:34Z</time>
      </trkpt>
      <trkpt lat="53.261673990637064" lon="10.627261977642775">
        <ele>20.809999999999999</ele>
        <time>2019-05-07T12:09:44Z</time>
      </trkpt>
      <trkpt lat="53.26228997670114" lon="10.627413019537926">
        <ele>17.440000000000001</ele>
        <time>2019-05-07T12:09:54Z</time>
      </trkpt>
      <trkpt lat="53.262430038303137" lon="10.627404972910881">
        <ele>17.920000000000002</ele>
        <time>2019-05-07T12:09:56Z</time>
      </trkpt>
      <trkpt lat="53.263216009363532" lon="10.626914966851473">
        <ele>22.73</ele>
        <time>2019-05-07T12:10:06Z</time>
      </trkpt>
      <trkpt lat="53.263951018452644" lon="10.626482963562012">
        <ele>25.129999999999999</ele>
        <time>2019-05-07T12:10:14Z</time>
      </trkpt>
      <trkpt lat="53.264057971537113" lon="10.626470977440476">
        <ele>25.609999999999999</ele>
        <time>2019-05-07T12:10:15Z</time>
      </trkpt>
      <trkpt lat="53.264168025925756" lon="10.626457985490561">
        <ele>25.609999999999999</ele>
        <time>2019-05-07T12:10:16Z</time>
      </trkpt>
      <trkpt lat="53.264276990666986" lon="10.626444993540645">
        <ele>25.129999999999999</ele>
        <time>2019-05-07T12:10:17Z</time>
      </trkpt>
      <trkpt lat="53.264386961236596" lon="10.626467037945986">
        <ele>25.129999999999999</ele>
        <time>2019-05-07T12:10:18Z</time>
      </trkpt>
      <trkpt lat="53.264590976759791" lon="10.626543983817101">
        <ele>24.649999999999999</ele>
        <time>2019-05-07T12:10:20Z</time>
      </trkpt>
      <trkpt lat="53.264686027541757" lon="10.626580026000738">
        <ele>24.649999999999999</ele>
        <time>2019-05-07T12:10:21Z</time>
      </trkpt>
      <trkpt lat="53.264776971191168" lon="10.626613972708583">
        <ele>24.170000000000002</ele>
        <time>2019-05-07T12:10:22Z</time>
      </trkpt>
      <trkpt lat="53.265010993927717" lon="10.626702988520265">
        <ele>23.210000000000001</ele>
        <time>2019-05-07T12:10:25Z</time>
      </trkpt>
      <trkpt lat="53.265075031667948" lon="10.626726960763335">
        <ele>23.210000000000001</ele>
        <time>2019-05-07T12:10:26Z</time>
      </trkpt>
      <trkpt lat="53.265134040266275" lon="10.626749005168676">
        <ele>22.73</ele>
        <time>2019-05-07T12:10:27Z</time>
      </trkpt>
      <trkpt lat="53.26518701389432" lon="10.626769037917256">
        <ele>22.25</ele>
        <time>2019-05-07T12:10:28Z</time>
      </trkpt>
      <trkpt lat="53.265233030542731" lon="10.626786975190043">
        <ele>21.77</ele>
        <time>2019-05-07T12:10:29Z</time>
      </trkpt>
      <trkpt lat="53.265271000564098" lon="10.62680097296834">
        <ele>21.77</ele>
        <time>2019-05-07T12:10:30Z</time>
      </trkpt>
      <trkpt lat="53.265280975028872" lon="10.626804996281862">
        <ele>21.289999999999999</ele>
        <time>2019-05-07T12:10:31Z</time>
      </trkpt>
      <trkpt lat="53.265507034957409" lon="10.626923013478518">
        <ele>17.920000000000002</ele>
        <time>2019-05-07T12:10:38Z</time>
      </trkpt>
      <trkpt lat="53.265533018857241" lon="10.62699400819838">
        <ele>17.440000000000001</ele>
        <time>2019-05-07T12:10:39Z</time>
      </trkpt>
      <trkpt lat="53.265901990234852" lon="10.627825995907187">
        <ele>15.52</ele>
        <time>2019-05-07T12:10:46Z</time>
      </trkpt>
      <trkpt lat="53.266210025176406" lon="10.628524040803313">
        <ele>16.960000000000001</ele>
        <time>2019-05-07T12:10:50Z</time>
      </trkpt>
      <trkpt lat="53.266367018222809" lon="10.62888496555388">
        <ele>17.440000000000001</ele>
        <time>2019-05-07T12:10:52Z</time>
      </trkpt>
      <trkpt lat="53.266612021252513" lon="10.629530036821961">
        <ele>18.399999999999999</ele>
        <time>2019-05-07T12:10:55Z</time>
      </trkpt>
      <trkpt lat="53.266658037900925" lon="10.629769004881382">
        <ele>18.879999999999999</ele>
        <time>2019-05-07T12:10:56Z</time>
      </trkpt>
      <trkpt lat="53.266903962939978" lon="10.632059024646878">
        <ele>19.84</ele>
        <time>2019-05-07T12:11:05Z</time>
      </trkpt>
      <trkpt lat="53.267142008990049" lon="10.635005012154579">
        <ele>18.399999999999999</ele>
        <time>2019-05-07T12:11:15Z</time>
      </trkpt>
      <trkpt lat="53.267104038968682" lon="10.637468034401536">
        <ele>17.440000000000001</ele>
        <time>2019-05-07T12:11:22Z</time>
      </trkpt>
      <trkpt lat="53.266736995428801" lon="10.642594993114471">
        <ele>17.920000000000002</ele>
        <time>2019-05-07T12:11:36Z</time>
      </trkpt>
      <trkpt lat="53.266356959939003" lon="10.647779032588005">
        <ele>19.84</ele>
        <time>2019-05-07T12:11:50Z</time>
      </trkpt>
      <trkpt lat="53.26609100215137" lon="10.652062017470598">
        <ele>20.809999999999999</ele>
        <time>2019-05-07T12:12:01Z</time>
      </trkpt>
      <trkpt lat="53.266237014904618" lon="10.654381038621068">
        <ele>19.359999999999999</ele>
        <time>2019-05-07T12:12:07Z</time>
      </trkpt>
      <trkpt lat="53.266951991245151" lon="10.658307038247585">
        <ele>17.920000000000002</ele>
        <time>2019-05-07T12:12:17Z</time>
      </trkpt>
      <trkpt lat="53.267718013375998" lon="10.662720026448369">
        <ele>16</ele>
        <time>2019-05-07T12:12:28Z</time>
      </trkpt>
      <trkpt lat="53.268036022782326" lon="10.665498962625861">
        <ele>15.52</ele>
        <time>2019-05-07T12:12:35Z</time>
      </trkpt>
      <trkpt lat="53.268326036632061" lon="10.668297009542584">
        <ele>14.56</ele>
        <time>2019-05-07T12:12:42Z</time>
      </trkpt>
      <trkpt lat="53.269094992429018" lon="10.670938985422254">
        <ele>12.630000000000001</ele>
        <time>2019-05-07T12:12:49Z</time>
      </trkpt>
      <trkpt lat="53.270157985389233" lon="10.674313958734274">
        <ele>11.19</ele>
        <time>2019-05-07T12:12:58Z</time>
      </trkpt>
      <trkpt lat="53.271693969145417" lon="10.679150987416506">
        <ele>9.75</ele>
        <time>2019-05-07T12:13:11Z</time>
      </trkpt>
      <trkpt lat="53.272954020649195" lon="10.683216964825988">
        <ele>9.75</ele>
        <time>2019-05-07T12:13:22Z</time>
      </trkpt>
      <trkpt lat="53.273880975320935" lon="10.686628986150026">
        <ele>11.19</ele>
        <time>2019-05-07T12:13:31Z</time>
      </trkpt>
      <trkpt lat="53.274408029392362" lon="10.68895798176527">
        <ele>9.27</ele>
        <time>2019-05-07T12:13:37Z</time>
      </trkpt>
      <trkpt lat="53.274529986083508" lon="10.689311027526855">
        <ele>8.789999999999999</ele>
        <time>2019-05-07T12:13:38Z</time>
      </trkpt>
      <trkpt lat="53.276008972898126" lon="10.693164020776749">
        <ele>8.789999999999999</ele>
        <time>2019-05-07T12:13:49Z</time>
      </trkpt>
      <trkpt lat="53.277103984728456" lon="10.69606700912118">
        <ele>13.119999999999999</ele>
        <time>2019-05-07T12:13:58Z</time>
      </trkpt>
      <trkpt lat="53.277894984930754" lon="10.698120994493365">
        <ele>15.039999999999999</ele>
        <time>2019-05-07T12:14:05Z</time>
      </trkpt>
      <trkpt lat="53.278625970706344" lon="10.70004397071898">
        <ele>15.039999999999999</ele>
        <time>2019-05-07T12:14:11Z</time>
      </trkpt>
      <trkpt lat="53.279523001983762" lon="10.702410014346242">
        <ele>15.039999999999999</ele>
        <time>2019-05-07T12:14:18Z</time>
      </trkpt>
      <trkpt lat="53.280643997713923" lon="10.705315014347434">
        <ele>14.56</ele>
        <time>2019-05-07T12:14:27Z</time>
      </trkpt>
      <trkpt lat="53.281455030664802" lon="10.707489028573036">
        <ele>13.119999999999999</ele>
        <time>2019-05-07T12:14:34Z</time>
      </trkpt>
      <trkpt lat="53.281569024547935" lon="10.707797985523939">
        <ele>12.15</ele>
        <time>2019-05-07T12:14:35Z</time>
      </trkpt>
      <trkpt lat="53.282568985596299" lon="10.710649006068707">
        <ele>6.39</ele>
        <time>2019-05-07T12:14:44Z</time>
      </trkpt>
      <trkpt lat="53.283283039927483" lon="10.713500026613474">
        <ele>5.42</ele>
        <time>2019-05-07T12:14:53Z</time>
      </trkpt>
      <trkpt lat="53.283982006832957" lon="10.716332020238042">
        <ele>7.83</ele>
        <time>2019-05-07T12:15:03Z</time>
      </trkpt>
      <trkpt lat="53.284608973190188" lon="10.718887997791171">
        <ele>8.310000000000001</ele>
        <time>2019-05-07T12:15:16Z</time>
      </trkpt>
      <trkpt lat="53.285002000629902" lon="10.720469998195767">
        <ele>3.5</ele>
        <time>2019-05-07T12:15:25Z</time>
      </trkpt>
      <trkpt lat="53.285500975325704" lon="10.722447959706187">
        <ele>4.46</ele>
        <time>2019-05-07T12:15:36Z</time>
      </trkpt>
      <trkpt lat="53.286023000255227" lon="10.724500017240644">
        <ele>6.87</ele>
        <time>2019-05-07T12:15:47Z</time>
      </trkpt>
      <trkpt lat="53.286105981096625" lon="10.724748959764838">
        <ele>6.87</ele>
        <time>2019-05-07T12:15:49Z</time>
      </trkpt>
      <trkpt lat="53.286134982481599" lon="10.724834036082029">
        <ele>6.87</ele>
        <time>2019-05-07T12:15:50Z</time>
      </trkpt>
      <trkpt lat="53.2862229924649" lon="10.724844010546803">
        <ele>6.87</ele>
        <time>2019-05-07T12:15:51Z</time>
      </trkpt>
      <trkpt lat="53.286274038255215" lon="10.724790031090379">
        <ele>7.35</ele>
        <time>2019-05-07T12:15:52Z</time>
      </trkpt>
      <trkpt lat="53.286333968862891" lon="10.724728005006909">
        <ele>7.35</ele>
        <time>2019-05-07T12:15:53Z</time>
      </trkpt>
      <trkpt lat="53.286403035745025" lon="10.724654998630285">
        <ele>6.87</ele>
        <time>2019-05-07T12:15:54Z</time>
      </trkpt>
      <trkpt lat="53.287127986550331" lon="10.723898028954864">
        <ele>4.94</ele>
        <time>2019-05-07T12:16:02Z</time>
      </trkpt>
      <trkpt lat="53.287899037823081" lon="10.723051959648728">
        <ele>5.42</ele>
        <time>2019-05-07T12:16:10Z</time>
      </trkpt>
      <trkpt lat="53.288293993100524" lon="10.722615011036396">
        <ele>3.5</ele>
        <time>2019-05-07T12:16:14Z</time>
      </trkpt>
      <trkpt lat="53.28841301612556" lon="10.722485007718205">
        <ele>3.02</ele>
        <time>2019-05-07T12:16:15Z</time>
      </trkpt>
      <trkpt lat="53.288472024723887" lon="10.722303036600351">
        <ele>2.54</ele>
        <time>2019-05-07T12:16:16Z</time>
      </trkpt>
      <trkpt lat="53.288534972816706" lon="10.722110001370311">
        <ele>2.06</ele>
        <time>2019-05-07T12:16:17Z</time>
      </trkpt>
      <trkpt lat="53.288601022213697" lon="10.721905985847116">
        <ele>2.06</ele>
        <time>2019-05-07T12:16:18Z</time>
      </trkpt>
      <trkpt lat="53.288722978904843" lon="10.721469037234783">
        <ele>1.58</ele>
        <time>2019-05-07T12:16:20Z</time>
      </trkpt>
      <trkpt lat="53.288748962804675" lon="10.721223028376698">
        <ele>1.1</ele>
        <time>2019-05-07T12:16:21Z</time>
      </trkpt>
      <trkpt lat="53.288990026339889" lon="10.718653975054622">
        <ele>-0.34</ele>
        <time>2019-05-07T12:16:30Z</time>
      </trkpt>
      <trkpt lat="53.289205022156239" lon="10.716252978891134">
        <ele>1.1</ele>
        <time>2019-05-07T12:16:39Z</time>
      </trkpt>
      <trkpt lat="53.289385987445712" lon="10.714240986853838">
        <ele>2.54</ele>
        <time>2019-05-07T12:16:47Z</time>
      </trkpt>
      <trkpt lat="53.28944499604404" lon="10.714010987430811">
        <ele>2.54</ele>
        <time>2019-05-07T12:16:48Z</time>
      </trkpt>
      <trkpt lat="53.290290981531143" lon="10.710741961374879">
        <ele>3.98</ele>
        <time>2019-05-07T12:17:02Z</time>
      </trkpt>
      <trkpt lat="53.291080975905061" lon="10.707688014954329">
        <ele>3.98</ele>
        <time>2019-05-07T12:17:15Z</time>
      </trkpt>
      <trkpt lat="53.291554972529411" lon="10.705850031226873">
        <ele>1.58</ele>
        <time>2019-05-07T12:17:24Z</time>
      </trkpt>
      <trkpt lat="53.292083032429218" lon="10.703775007277727">
        <ele>1.58</ele>
        <time>2019-05-07T12:17:33Z</time>
      </trkpt>
      <trkpt lat="53.292240025475621" lon="10.703160027042031">
        <ele>1.58</ele>
        <time>2019-05-07T12:17:36Z</time>
      </trkpt>
      <trkpt lat="53.292247988283634" lon="10.702935978770256">
        <ele>1.58</ele>
        <time>2019-05-07T12:17:37Z</time>
      </trkpt>
      <trkpt lat="53.292189985513687" lon="10.702748978510499">
        <ele>2.06</ele>
        <time>2019-05-07T12:17:38Z</time>
      </trkpt>
      <trkpt lat="53.292125025764108" lon="10.702540017664433">
        <ele>2.06</ele>
        <time>2019-05-07T12:17:39Z</time>
      </trkpt>
      <trkpt lat="53.292059982195497" lon="10.702328961342573">
        <ele>2.06</ele>
        <time>2019-05-07T12:17:40Z</time>
      </trkpt>
      <trkpt lat="53.291810033842921" lon="10.70152698084712">
        <ele>3.5</ele>
        <time>2019-05-07T12:17:44Z</time>
      </trkpt>
      <trkpt lat="53.291747001931071" lon="10.701321037486196">
        <ele>3.98</ele>
        <time>2019-05-07T12:17:45Z</time>
      </trkpt>
      <trkpt lat="53.291688999161124" lon="10.701126996427774">
        <ele>4.46</ele>
        <time>2019-05-07T12:17:46Z</time>
      </trkpt>
      <trkpt lat="53.291450031101704" lon="10.700338007882237">
        <ele>6.39</ele>
        <time>2019-05-07T12:17:50Z</time>
      </trkpt>
      <trkpt lat="53.29142002388835" lon="10.700105996802449">
        <ele>6.39</ele>
        <time>2019-05-07T12:17:51Z</time>
      </trkpt>
      <trkpt lat="53.291376018896699" lon="10.699642980471253">
        <ele>6.87</ele>
        <time>2019-05-07T12:17:53Z</time>
      </trkpt>
      <trkpt lat="53.291355986148119" lon="10.699371993541718">
        <ele>6.87</ele>
        <time>2019-05-07T12:17:54Z</time>
      </trkpt>
      <trkpt lat="53.291394961997867" lon="10.699138976633549">
        <ele>7.35</ele>
        <time>2019-05-07T12:17:55Z</time>
      </trkpt>
      <trkpt lat="53.291589003056288" lon="10.697962995618582">
        <ele>7.83</ele>
        <time>2019-05-07T12:18:00Z</time>
      </trkpt>
      <trkpt lat="53.292008014395833" lon="10.695421015843749">
        <ele>7.83</ele>
        <time>2019-05-07T12:18:10Z</time>
      </trkpt>
      <trkpt lat="53.292382014915347" lon="10.69306100718677">
        <ele>7.35</ele>
        <time>2019-05-07T12:18:19Z</time>
      </trkpt>
      <trkpt lat="53.292477987706661" lon="10.692043025046587">
        <ele>6.39</ele>
        <time>2019-05-07T12:18:23Z</time>
      </trkpt>
      <trkpt lat="53.292498020455241" lon="10.691828029230237">
        <ele>5.91</ele>
        <time>2019-05-07T12:18:24Z</time>
      </trkpt>
      <trkpt lat="53.292497014626861" lon="10.691614039242268">
        <ele>5.42</ele>
        <time>2019-05-07T12:18:25Z</time>
      </trkpt>
      <trkpt lat="53.292468013241887" lon="10.691445982083678">
        <ele>4.94</ele>
        <time>2019-05-07T12:18:26Z</time>
      </trkpt>
      <trkpt lat="53.292443035170436" lon="10.691286977380514">
        <ele>4.94</ele>
        <time>2019-05-07T12:18:27Z</time>
      </trkpt>
      <trkpt lat="53.292399030178785" lon="10.690832007676363">
        <ele>4.94</ele>
        <time>2019-05-07T12:18:30Z</time>
      </trkpt>
      <trkpt lat="53.292385032400489" lon="10.690684989094734">
        <ele>4.94</ele>
        <time>2019-05-07T12:18:31Z</time>
      </trkpt>
      <trkpt lat="53.292371034622192" lon="10.690535958856344">
        <ele>4.94</ele>
        <time>2019-05-07T12:18:32Z</time>
      </trkpt>
      <trkpt lat="53.292384026572108" lon="10.690349964424968">
        <ele>4.94</ele>
        <time>2019-05-07T12:18:33Z</time>
      </trkpt>
      <trkpt lat="53.292428031563759" lon="10.690206969156861">
        <ele>4.94</ele>
        <time>2019-05-07T12:18:34Z</time>
      </trkpt>
      <trkpt lat="53.292473964393139" lon="10.690056011080742">
        <ele>4.94</ele>
        <time>2019-05-07T12:18:35Z</time>
      </trkpt>
      <trkpt lat="53.292521992698312" lon="10.689904969185591">
        <ele>4.94</ele>
        <time>2019-05-07T12:18:36Z</time>
      </trkpt>
      <trkpt lat="53.292579995468259" lon="10.689761973917484">
        <ele>4.94</ele>
        <time>2019-05-07T12:18:37Z</time>
      </trkpt>
      <trkpt lat="53.292639004066586" lon="10.689615961164236">
        <ele>4.94</ele>
        <time>2019-05-07T12:18:38Z</time>
      </trkpt>
      <trkpt lat="53.293002024292946" lon="10.688738962635398">
        <ele>4.94</ele>
        <time>2019-05-07T12:18:46Z</time>
      </trkpt>
      <trkpt lat="53.293176032602787" lon="10.688349036499858">
        <ele>5.42</ele>
        <time>2019-05-07T12:18:51Z</time>
      </trkpt>
      <trkpt lat="53.293214002624154" lon="10.688262032344937">
        <ele>4.94</ele>
        <time>2019-05-07T12:18:52Z</time>
      </trkpt>
      <trkpt lat="53.293261025100946" lon="10.688159018754959">
        <ele>4.94</ele>
        <time>2019-05-07T12:18:53Z</time>
      </trkpt>
      <trkpt lat="53.293311987072229" lon="10.688043013215065">
        <ele>5.42</ele>
        <time>2019-05-07T12:18:54Z</time>
      </trkpt>
      <trkpt lat="53.293366972357035" lon="10.687919966876507">
        <ele>5.42</ele>
        <time>2019-05-07T12:18:55Z</time>
      </trkpt>
      <trkpt lat="53.293971978127956" lon="10.686563020572066">
        <ele>5.42</ele>
        <time>2019-05-07T12:19:04Z</time>
      </trkpt>
      <trkpt lat="53.294186973944306" lon="10.686081983149052">
        <ele>5.42</ele>
        <time>2019-05-07T12:19:07Z</time>
      </trkpt>
      <trkpt lat="53.294260986149311" lon="10.685913003981113">
        <ele>5.42</ele>
        <time>2019-05-07T12:19:08Z</time>
      </trkpt>
      <trkpt lat="53.294399958103895" lon="10.685565993189812">
        <ele>5.42</ele>
        <time>2019-05-07T12:19:10Z</time>
      </trkpt>
      <trkpt lat="53.2945810072124" lon="10.685258964076638">
        <ele>5.42</ele>
        <time>2019-05-07T12:19:12Z</time>
      </trkpt>
      <trkpt lat="53.295667972415686" lon="10.683264993131161">
        <ele>6.39</ele>
        <time>2019-05-07T12:19:24Z</time>
      </trkpt>
      <trkpt lat="53.295817002654076" lon="10.682882023975253">
        <ele>6.39</ele>
        <time>2019-05-07T12:19:26Z</time>
      </trkpt>
      <trkpt lat="53.296180022880435" lon="10.6813720241189">
        <ele>5.91</ele>
        <time>2019-05-07T12:19:33Z</time>
      </trkpt>
      <trkpt lat="53.296252023428679" lon="10.681204972788692">
        <ele>5.42</ele>
        <time>2019-05-07T12:19:34Z</time>
      </trkpt>
      <trkpt lat="53.296326035633683" lon="10.681031970307231">
        <ele>4.94</ele>
        <time>2019-05-07T12:19:35Z</time>
      </trkpt>
      <trkpt lat="53.296996001154184" lon="10.679749036207795">
        <ele>2.54</ele>
        <time>2019-05-07T12:19:43Z</time>
      </trkpt>
      <trkpt lat="53.297560019418597" lon="10.678555034101009">
        <ele>3.98</ele>
        <time>2019-05-07T12:19:52Z</time>
      </trkpt>
      <trkpt lat="53.29775900579989" lon="10.678095035254955">
        <ele>3.98</ele>
        <time>2019-05-07T12:19:57Z</time>
      </trkpt>
      <trkpt lat="53.297791024670005" lon="10.678021023049951">
        <ele>3.5</ele>
        <time>2019-05-07T12:19:58Z</time>
      </trkpt>
      <trkpt lat="53.297879034653306" lon="10.677816001698375">
        <ele>3.5</ele>
        <time>2019-05-07T12:20:01Z</time>
      </trkpt>
      <trkpt lat="53.297909963876009" lon="10.677745006978512">
        <ele>3.02</ele>
        <time>2019-05-07T12:20:02Z</time>
      </trkpt>
      <trkpt lat="53.297941982746124" lon="10.677670994773507">
        <ele>3.02</ele>
        <time>2019-05-07T12:20:03Z</time>
      </trkpt>
      <trkpt lat="53.298003003001213" lon="10.677530011162162">
        <ele>2.54</ele>
        <time>2019-05-07T12:20:05Z</time>
      </trkpt>
      <trkpt lat="53.298092018812895" lon="10.677323983982205">
        <ele>2.54</ele>
        <time>2019-05-07T12:20:08Z</time>
      </trkpt>
      <trkpt lat="53.298129988834262" lon="10.677235973998904">
        <ele>2.54</ele>
        <time>2019-05-07T12:20:09Z</time>
      </trkpt>
      <trkpt lat="53.29859996214509" lon="10.676010036841035">
        <ele>2.54</ele>
        <time>2019-05-07T12:20:18Z</time>
      </trkpt>
      <trkpt lat="53.299127016216516" lon="10.67423902451992">
        <ele>3.02</ele>
        <time>2019-05-07T12:20:26Z</time>
      </trkpt>
      <trkpt lat="53.299660021439195" lon="10.672939997166395">
        <ele>2.54</ele>
        <time>2019-05-07T12:20:34Z</time>
      </trkpt>
      <trkpt lat="53.300313977524638" lon="10.671453969553113">
        <ele>3.02</ele>
        <time>2019-05-07T12:20:43Z</time>
      </trkpt>
      <trkpt lat="53.300924012437463" lon="10.67007196135819">
        <ele>2.54</ele>
        <time>2019-05-07T12:20:50Z</time>
      </trkpt>
      <trkpt lat="53.301752982661128" lon="10.66826700232923">
        <ele>-0.34</ele>
        <time>2019-05-07T12:21:00Z</time>
      </trkpt>
      <trkpt lat="53.303062990307808" lon="10.66596700809896">
        <ele>-1.79</ele>
        <time>2019-05-07T12:21:11Z</time>
      </trkpt>
      <trkpt lat="53.304267972707748" lon="10.663854014128447">
        <ele>-3.23</ele>
        <time>2019-05-07T12:21:21Z</time>
      </trkpt>
      <trkpt lat="53.304541977122426" lon="10.663372976705432">
        <ele>-2.27</ele>
        <time>2019-05-07T12:21:27Z</time>
      </trkpt>
      <trkpt lat="53.304943973198533" lon="10.662668980658054">
        <ele>-2.27</ele>
        <time>2019-05-07T12:21:33Z</time>
      </trkpt>
      <trkpt lat="53.305197022855282" lon="10.662224991247058">
        <ele>-1.79</ele>
        <time>2019-05-07T12:21:38Z</time>
      </trkpt>
      <trkpt lat="53.305228035897017" lon="10.662171011790633">
        <ele>-1.79</ele>
        <time>2019-05-07T12:21:39Z</time>
      </trkpt>
      <trkpt lat="53.305277992039919" lon="10.662080990150571">
        <ele>-1.79</ele>
        <time>2019-05-07T12:21:40Z</time>
      </trkpt>
      <trkpt lat="53.305320991203189" lon="10.662132035940886">
        <ele>-1.79</ele>
        <time>2019-05-07T12:21:41Z</time>
      </trkpt>
      <trkpt lat="53.305390980094671" lon="10.662214010953903">
        <ele>-1.3</ele>
        <time>2019-05-07T12:21:42Z</time>
      </trkpt>
      <trkpt lat="53.305478990077972" lon="10.662319036200643">
        <ele>-1.3</ele>
        <time>2019-05-07T12:21:43Z</time>
      </trkpt>
      <trkpt lat="53.306240988895297" lon="10.663220006972551">
        <ele>-1.79</ele>
        <time>2019-05-07T12:21:49Z</time>
      </trkpt>
      <trkpt lat="53.307545967400074" lon="10.664764037355781">
        <ele>-1.3</ele>
        <time>2019-05-07T12:21:56Z</time>
      </trkpt>
      <trkpt lat="53.3090849686414" lon="10.666586011648178">
        <ele>-1.3</ele>
        <time>2019-05-07T12:22:04Z</time>
      </trkpt>
      <trkpt lat="53.31065196543932" lon="10.668297009542584">
        <ele>1.58</ele>
        <time>2019-05-07T12:22:14Z</time>
      </trkpt>
      <trkpt lat="53.311971025541425" lon="10.66959897056222">
        <ele>3.02</ele>
        <time>2019-05-07T12:22:23Z</time>
      </trkpt>
      <trkpt lat="53.313127979636192" lon="10.670739999040961">
        <ele>3.02</ele>
        <time>2019-05-07T12:22:29Z</time>
      </trkpt>
      <trkpt lat="53.314139004796743" lon="10.671720011159778">
        <ele>3.98</ele>
        <time>2019-05-07T12:22:36Z</time>
      </trkpt>
      <trkpt lat="53.31445500254631" lon="10.672016981989145">
        <ele>4.46</ele>
        <time>2019-05-07T12:22:40Z</time>
      </trkpt>
      <trkpt lat="53.314492972567677" lon="10.672052018344402">
        <ele>4.94</ele>
        <time>2019-05-07T12:22:41Z</time>
      </trkpt>
      <trkpt lat="53.314544018357992" lon="10.672099040821195">
        <ele>5.42</ele>
        <time>2019-05-07T12:22:43Z</time>
      </trkpt>
      <trkpt lat="53.314574025571346" lon="10.672102980315685">
        <ele>5.42</ele>
        <time>2019-05-07T12:22:44Z</time>
      </trkpt>
      <trkpt lat="53.314593974500895" lon="10.672015976160765">
        <ele>5.42</ele>
        <time>2019-05-07T12:22:45Z</time>
      </trkpt>
      <trkpt lat="53.314619036391377" lon="10.67189896479249">
        <ele>5.42</ele>
        <time>2019-05-07T12:22:46Z</time>
      </trkpt>
      <trkpt lat="53.314648037776351" lon="10.671768961474299">
        <ele>5.42</ele>
        <time>2019-05-07T12:22:47Z</time>
      </trkpt>
      <trkpt lat="53.314753985032439" lon="10.671203015372157">
        <ele>5.42</ele>
        <time>2019-05-07T12:22:50Z</time>
      </trkpt>
      <trkpt lat="53.314773011952639" lon="10.670977039262652">
        <ele>4.94</ele>
        <time>2019-05-07T12:22:51Z</time>
      </trkpt>
      <trkpt lat="53.314909972250462" lon="10.668520973995328">
        <ele>4.94</ele>
        <time>2019-05-07T12:22:59Z</time>
      </trkpt>
      <trkpt lat="53.315233010798693" lon="10.665307017043233">
        <ele>4.94</ele>
        <time>2019-05-07T12:23:09Z</time>
      </trkpt>
      <trkpt lat="53.315816977992654" lon="10.661265011876822">
        <ele>4.94</ele>
        <time>2019-05-07T12:23:22Z</time>
      </trkpt>
      <trkpt lat="53.316353000700474" lon="10.657713012769818">
        <ele>7.35</ele>
        <time>2019-05-07T12:23:33Z</time>
      </trkpt>
      <trkpt lat="53.317016009241343" lon="10.653221989050508">
        <ele>6.87</ele>
        <time>2019-05-07T12:23:47Z</time>
      </trkpt>
      <trkpt lat="53.317660996690392" lon="10.648913020268083">
        <ele>5.91</ele>
        <time>2019-05-07T12:24:00Z</time>
      </trkpt>
      <trkpt lat="53.318298021331429" lon="10.644255029037595">
        <ele>3.02</ele>
        <time>2019-05-07T12:24:13Z</time>
      </trkpt>
      <trkpt lat="53.318281006067991" lon="10.643908018246293">
        <ele>3.02</ele>
        <time>2019-05-07T12:24:14Z</time>
      </trkpt>
      <trkpt lat="53.31823498941958" lon="10.64355899579823">
        <ele>2.54</ele>
        <time>2019-05-07T12:24:15Z</time>
      </trkpt>
      <trkpt lat="53.31765596754849" lon="10.639167968183756">
        <ele>3.02</ele>
        <time>2019-05-07T12:24:27Z</time>
      </trkpt>
      <trkpt lat="53.317390009760857" lon="10.637612035498023">
        <ele>3.02</ele>
        <time>2019-05-07T12:24:32Z</time>
      </trkpt>
      <trkpt lat="53.317281967028975" lon="10.637339036911726">
        <ele>3.02</ele>
        <time>2019-05-07T12:24:33Z</time>
      </trkpt>
      <trkpt lat="53.316244035959244" lon="10.634971987456083">
        <ele>2.54</ele>
        <time>2019-05-07T12:24:42Z</time>
      </trkpt>
      <trkpt lat="53.316114032641053" lon="10.634785993024707">
        <ele>2.54</ele>
        <time>2019-05-07T12:24:43Z</time>
      </trkpt>
      <trkpt lat="53.315368965268135" lon="10.633808998391032">
        <ele>2.54</ele>
        <time>2019-05-07T12:24:50Z</time>
      </trkpt>
      <trkpt lat="53.315215995535254" lon="10.633477997034788">
        <ele>2.54</ele>
        <time>2019-05-07T12:24:52Z</time>
      </trkpt>
      <trkpt lat="53.315135026350617" lon="10.633301977068186">
        <ele>2.54</ele>
        <time>2019-05-07T12:24:53Z</time>
      </trkpt>
      <trkpt lat="53.31509998999536" lon="10.633092010393739">
        <ele>2.54</ele>
        <time>2019-05-07T12:24:54Z</time>
      </trkpt>
      <trkpt lat="53.315066965296865" lon="10.632861005142331">
        <ele>3.02</ele>
        <time>2019-05-07T12:24:55Z</time>
      </trkpt>
      <trkpt lat="53.315049028024077" lon="10.632624970749021">
        <ele>2.54</ele>
        <time>2019-05-07T12:24:56Z</time>
      </trkpt>
      <trkpt lat="53.315083980560303" lon="10.632363958284259">
        <ele>2.54</ele>
        <time>2019-05-07T12:24:57Z</time>
      </trkpt>
      <trkpt lat="53.315121028572321" lon="10.632080985233188">
        <ele>3.02</ele>
        <time>2019-05-07T12:24:58Z</time>
      </trkpt>
      <trkpt lat="53.31548698246479" lon="10.629287967458367">
        <ele>3.02</ele>
        <time>2019-05-07T12:25:06Z</time>
      </trkpt>
      <trkpt lat="53.316172035411" lon="10.624031005427241">
        <ele>3.02</ele>
        <time>2019-05-07T12:25:19Z</time>
      </trkpt>
      <trkpt lat="53.316820962354541" lon="10.619059028103948">
        <ele>3.02</ele>
        <time>2019-05-07T12:25:32Z</time>
      </trkpt>
      <trkpt lat="53.31767700612545" lon="10.61305096372962">
        <ele>3.02</ele>
        <time>2019-05-07T12:25:48Z</time>
      </trkpt>
      <trkpt lat="53.318897997960448" lon="10.606365976855159">
        <ele>4.46</ele>
        <time>2019-05-07T12:26:06Z</time>
      </trkpt>
      <trkpt lat="53.319064965471625" lon="10.605773963034153">
        <ele>4.46</ele>
        <time>2019-05-07T12:26:08Z</time>
      </trkpt>
      <trkpt lat="53.319552037864923" lon="10.604381980374455">
        <ele>4.94</ele>
        <time>2019-05-07T12:26:14Z</time>
      </trkpt>
      <trkpt lat="53.320476980879903" lon="10.601890962570906">
        <ele>4.94</ele>
        <time>2019-05-07T12:26:28Z</time>
      </trkpt>
      <trkpt lat="53.321149041876197" lon="10.600133026018739">
        <ele>5.91</ele>
        <time>2019-05-07T12:26:38Z</time>
      </trkpt>
      <trkpt lat="53.321997039020061" lon="10.598607016727328">
        <ele>5.91</ele>
        <time>2019-05-07T12:26:48Z</time>
      </trkpt>
      <trkpt lat="53.322846964001656" lon="10.597754996269941">
        <ele>6.39</ele>
        <time>2019-05-07T12:26:56Z</time>
      </trkpt>
      <trkpt lat="53.322967998683453" lon="10.597715014591813">
        <ele>6.39</ele>
        <time>2019-05-07T12:26:57Z</time>
      </trkpt>
      <trkpt lat="53.32309003919363" lon="10.597675032913685">
        <ele>6.39</ele>
        <time>2019-05-07T12:26:58Z</time>
      </trkpt>
      <trkpt lat="53.323213001713157" lon="10.597636979073286">
        <ele>6.39</ele>
        <time>2019-05-07T12:26:59Z</time>
      </trkpt>
      <trkpt lat="53.323337975889444" lon="10.597602026537061">
        <ele>6.39</ele>
        <time>2019-05-07T12:27:00Z</time>
      </trkpt>
      <trkpt lat="53.323461022228003" lon="10.597616024315357">
        <ele>6.39</ele>
        <time>2019-05-07T12:27:01Z</time>
      </trkpt>
      <trkpt lat="53.325060037896037" lon="10.597742004320025">
        <ele>3.98</ele>
        <time>2019-05-07T12:27:14Z</time>
      </trkpt>
      <trkpt lat="53.325568987056613" lon="10.59773001819849">
        <ele>4.46</ele>
        <time>2019-05-07T12:27:18Z</time>
      </trkpt>
      <trkpt lat="53.325683986768126" lon="10.597647959366441">
        <ele>3.98</ele>
        <time>2019-05-07T12:27:19Z</time>
      </trkpt>
      <trkpt lat="53.325794963166118" lon="10.597561961039901">
        <ele>3.98</ele>
        <time>2019-05-07T12:27:20Z</time>
      </trkpt>
      <trkpt lat="53.325896970927715" lon="10.59745199047029">
        <ele>3.98</ele>
        <time>2019-05-07T12:27:21Z</time>
      </trkpt>
      <trkpt lat="53.325989004224539" lon="10.597310001030564">
        <ele>3.5</ele>
        <time>2019-05-07T12:27:22Z</time>
      </trkpt>
      <trkpt lat="53.326283963397145" lon="10.596910016611218">
        <ele>3.5</ele>
        <time>2019-05-07T12:27:25Z</time>
      </trkpt>
      <trkpt lat="53.326683025807142" lon="10.59639997780323">
        <ele>3.02</ele>
        <time>2019-05-07T12:27:29Z</time>
      </trkpt>
      <trkpt lat="53.326768018305302" lon="10.596244996413589">
        <ele>3.02</ele>
        <time>2019-05-07T12:27:30Z</time>
      </trkpt>
      <trkpt lat="53.326847981661558" lon="10.59609797783196">
        <ele>3.02</ele>
        <time>2019-05-07T12:27:31Z</time>
      </trkpt>
      <trkpt lat="53.326989971101284" lon="10.595836965367198">
        <ele>3.5</ele>
        <time>2019-05-07T12:27:33Z</time>
      </trkpt>
      <trkpt lat="53.327211001887918" lon="10.595535971224308">
        <ele>3.02</ele>
        <time>2019-05-07T12:27:36Z</time>
      </trkpt>
      <trkpt lat="53.327286019921303" lon="10.595449972897768">
        <ele>3.02</ele>
        <time>2019-05-07T12:27:37Z</time>
      </trkpt>
      <trkpt lat="53.32736698910594" lon="10.595376966521144">
        <ele>2.54</ele>
        <time>2019-05-07T12:27:38Z</time>
      </trkpt>
      <trkpt lat="53.327461034059525" lon="10.595333967357874">
        <ele>2.54</ele>
        <time>2019-05-07T12:27:39Z</time>
      </trkpt>
      <trkpt lat="53.327561030164361" lon="10.595287028700113">
        <ele>2.54</ele>
        <time>2019-05-07T12:27:40Z</time>
      </trkpt>
      <trkpt lat="53.328736005350947" lon="10.594945969060063">
        <ele>1.1</ele>
        <time>2019-05-07T12:27:49Z</time>
      </trkpt>
      <trkpt lat="53.329998990520835" lon="10.594608010724187">
        <ele>-0.34</ele>
        <time>2019-05-07T12:27:58Z</time>
      </trkpt>
      <trkpt lat="53.330194037407637" lon="10.594555959105492">
        <ele>-0.34</ele>
        <time>2019-05-07T12:28:00Z</time>
      </trkpt>
      <trkpt lat="53.330276012420654" lon="10.594533998519182">
        <ele>-0.34</ele>
        <time>2019-05-07T12:28:01Z</time>
      </trkpt>
      <trkpt lat="53.330391012132168" lon="10.59463701210916">
        <ele>-0.34</ele>
        <time>2019-05-07T12:28:02Z</time>
      </trkpt>
      <trkpt lat="53.330421019345522" lon="10.59476500377059">
        <ele>-0.82</ele>
        <time>2019-05-07T12:28:03Z</time>
      </trkpt>
      <trkpt lat="53.330456977710128" lon="10.594924008473754">
        <ele>-0.82</ele>
        <time>2019-05-07T12:28:04Z</time>
      </trkpt>
      <trkpt lat="53.330496959388256" lon="10.595104973763227">
        <ele>-0.82</ele>
        <time>2019-05-07T12:28:05Z</time>
      </trkpt>
      <trkpt lat="53.3308279607445" lon="10.59659100137651">
        <ele>-1.79</ele>
        <time>2019-05-07T12:28:11Z</time>
      </trkpt>
      <trkpt lat="53.331279996782541" lon="10.598320020362735">
        <ele>-1.79</ele>
        <time>2019-05-07T12:28:17Z</time>
      </trkpt>
      <trkpt lat="53.331385022029281" lon="10.598561000078917">
        <ele>-1.79</ele>
        <time>2019-05-07T12:28:18Z</time>
      </trkpt>
      <trkpt lat="53.331532040610909" lon="10.598749006167054">
        <ele>-1.79</ele>
        <time>2019-05-07T12:28:19Z</time>
      </trkpt>
      <trkpt lat="53.331692973151803" lon="10.598910022526979">
        <ele>-1.79</ele>
        <time>2019-05-07T12:28:20Z</time>
      </trkpt>
      <trkpt lat="53.331878967583179" lon="10.599010018631816">
        <ele>-1.79</ele>
        <time>2019-05-07T12:28:21Z</time>
      </trkpt>
      <trkpt lat="53.332066973671317" lon="10.599100040271878">
        <ele>-1.79</ele>
        <time>2019-05-07T12:28:22Z</time>
      </trkpt>
      <trkpt lat="53.333646962419152" lon="10.599873019382358">
        <ele>-0.34</ele>
        <time>2019-05-07T12:28:30Z</time>
      </trkpt>
      <trkpt lat="53.334955964237452" lon="10.601395005360246">
        <ele>-1.3</ele>
        <time>2019-05-07T12:28:37Z</time>
      </trkpt>
      <trkpt lat="53.336809035390615" lon="10.603548986837268">
        <ele>-2.75</ele>
        <time>2019-05-07T12:28:46Z</time>
      </trkpt>
      <trkpt lat="53.338958993554115" lon="10.606000022962689">
        <ele>-4.19</ele>
        <time>2019-05-07T12:28:57Z</time>
      </trkpt>
      <trkpt lat="53.340195994824171" lon="10.607361998409033">
        <ele>-3.23</ele>
        <time>2019-05-07T12:29:04Z</time>
      </trkpt>
      <trkpt lat="53.340377965942025" lon="10.607533995062113">
        <ele>-3.23</ele>
        <time>2019-05-07T12:29:05Z</time>
      </trkpt>
      <trkpt lat="53.340576030313969" lon="10.60765502974391">
        <ele>-2.75</ele>
        <time>2019-05-07T12:29:06Z</time>
      </trkpt>
      <trkpt lat="53.340779962018132" lon="10.607728958129883">
        <ele>-2.75</ele>
        <time>2019-05-07T12:29:07Z</time>
      </trkpt>
      <trkpt lat="53.340978026390076" lon="10.607728958129883">
        <ele>-2.27</ele>
        <time>2019-05-07T12:29:08Z</time>
      </trkpt>
      <trkpt lat="53.341169971972704" lon="10.607689982280135">
        <ele>-2.27</ele>
        <time>2019-05-07T12:29:09Z</time>
      </trkpt>
      <trkpt lat="53.341348003596067" lon="10.607596021145582">
        <ele>-2.27</ele>
        <time>2019-05-07T12:29:10Z</time>
      </trkpt>
      <trkpt lat="53.341514971107244" lon="10.607476998120546">
        <ele>-1.79</ele>
        <time>2019-05-07T12:29:11Z</time>
      </trkpt>
      <trkpt lat="53.341671964153647" lon="10.607320005074143">
        <ele>-1.79</ele>
        <time>2019-05-07T12:29:12Z</time>
      </trkpt>
      <trkpt lat="53.341829963028431" lon="10.607153959572315">
        <ele>-1.3</ele>
        <time>2019-05-07T12:29:13Z</time>
      </trkpt>
      <trkpt lat="53.34195401519537" lon="10.606915997341275">
        <ele>-1.3</ele>
        <time>2019-05-07T12:29:14Z</time>
      </trkpt>
      <trkpt lat="53.342082006856799" lon="10.606663031503558">
        <ele>-1.3</ele>
        <time>2019-05-07T12:29:15Z</time>
      </trkpt>
      <trkpt lat="53.342147972434759" lon="10.606363965198398">
        <ele>-1.3</ele>
        <time>2019-05-07T12:29:16Z</time>
      </trkpt>
      <trkpt lat="53.342205975204706" lon="10.606050984933972">
        <ele>-0.82</ele>
        <time>2019-05-07T12:29:17Z</time>
      </trkpt>
      <trkpt lat="53.342254003509879" lon="10.605729036033154">
        <ele>-0.82</ele>
        <time>2019-05-07T12:29:18Z</time>
      </trkpt>
      <trkpt lat="53.342271018773317" lon="10.605389988049865">
        <ele>-0.82</ele>
        <time>2019-05-07T12:29:19Z</time>
      </trkpt>
      <trkpt lat="53.342266995459795" lon="10.605060998350382">
        <ele>-0.34</ele>
        <time>2019-05-07T12:29:20Z</time>
      </trkpt>
      <trkpt lat="53.342274036258459" lon="10.603371961042285">
        <ele>-0.34</ele>
        <time>2019-05-07T12:29:25Z</time>
      </trkpt>
      <trkpt lat="53.34229800850153" lon="10.60303702019155">
        <ele>-0.34</ele>
        <time>2019-05-07T12:29:26Z</time>
      </trkpt>
      <trkpt lat="53.342337990179658" lon="10.602709036320448">
        <ele>-0.82</ele>
        <time>2019-05-07T12:29:27Z</time>
      </trkpt>
      <trkpt lat="53.342409990727901" lon="10.6023920327425">
        <ele>-0.82</ele>
        <time>2019-05-07T12:29:28Z</time>
      </trkpt>
      <trkpt lat="53.342481991276145" lon="10.602073017507792">
        <ele>-0.34</ele>
        <time>2019-05-07T12:29:29Z</time>
      </trkpt>
      <trkpt lat="53.342553991824389" lon="10.601752996444702">
        <ele>-0.34</ele>
        <time>2019-05-07T12:29:30Z</time>
      </trkpt>
      <trkpt lat="53.343230998143554" lon="10.599829014390707">
        <ele>0.62</ele>
        <time>2019-05-07T12:29:37Z</time>
      </trkpt>
      <trkpt lat="53.343741036951542" lon="10.598538033664227">
        <ele>2.06</ele>
        <time>2019-05-07T12:29:44Z</time>
      </trkpt>
      <trkpt lat="53.343774983659387" lon="10.59837399981916">
        <ele>2.06</ele>
        <time>2019-05-07T12:29:45Z</time>
      </trkpt>
      <trkpt lat="53.343809014186263" lon="10.598212983459234">
        <ele>2.54</ele>
        <time>2019-05-07T12:29:46Z</time>
      </trkpt>
      <trkpt lat="53.343838015571237" lon="10.598058002069592">
        <ele>2.54</ele>
        <time>2019-05-07T12:29:47Z</time>
      </trkpt>
      <trkpt lat="53.343843966722488" lon="10.597884999588132">
        <ele>3.02</ele>
        <time>2019-05-07T12:29:48Z</time>
      </trkpt>
      <trkpt lat="53.343848995864391" lon="10.597707973793149">
        <ele>3.02</ele>
        <time>2019-05-07T12:29:49Z</time>
      </trkpt>
      <trkpt lat="53.343855030834675" lon="10.597530025988817">
        <ele>3.5</ele>
        <time>2019-05-07T12:29:50Z</time>
      </trkpt>
      <trkpt lat="53.34391001611948" lon="10.596539033576846">
        <ele>4.46</ele>
        <time>2019-05-07T12:29:56Z</time>
      </trkpt>
      <trkpt lat="53.343936000019312" lon="10.596395032480359">
        <ele>4.94</ele>
        <time>2019-05-07T12:29:57Z</time>
      </trkpt>
      <trkpt lat="53.343967013061047" lon="10.59622798115015">
        <ele>4.94</ele>
        <time>2019-05-07T12:29:58Z</time>
      </trkpt>
      <trkpt lat="53.344465987756848" lon="10.594568029046059">
        <ele>6.87</ele>
        <time>2019-05-07T12:30:08Z</time>
      </trkpt>
      <trkpt lat="53.344518961384892" lon="10.594392009079456">
        <ele>6.87</ele>
        <time>2019-05-07T12:30:09Z</time>
      </trkpt>
      <trkpt lat="53.344567995518446" lon="10.594221018254757">
        <ele>6.87</ele>
        <time>2019-05-07T12:30:10Z</time>
      </trkpt>
      <trkpt lat="53.344575958326459" lon="10.594027983024716">
        <ele>6.87</ele>
        <time>2019-05-07T12:30:11Z</time>
      </trkpt>
      <trkpt lat="53.344585010781884" lon="10.593833019956946">
        <ele>6.87</ele>
        <time>2019-05-07T12:30:12Z</time>
      </trkpt>
      <trkpt lat="53.344592973589897" lon="10.593634033575654">
        <ele>6.87</ele>
        <time>2019-05-07T12:30:13Z</time>
      </trkpt>
      <trkpt lat="53.344599008560181" lon="10.590902036055923">
        <ele>6.87</ele>
        <time>2019-05-07T12:30:27Z</time>
      </trkpt>
      <trkpt lat="53.344505969434977" lon="10.589599991217256">
        <ele>5.91</ele>
        <time>2019-05-07T12:30:34Z</time>
      </trkpt>
      <trkpt lat="53.344474034383893" lon="10.589268989861012">
        <ele>5.91</ele>
        <time>2019-05-07T12:30:36Z</time>
      </trkpt>
      <trkpt lat="53.344456013292074" lon="10.589109985157847">
        <ele>5.91</ele>
        <time>2019-05-07T12:30:37Z</time>
      </trkpt>
      <trkpt lat="53.344412008300424" lon="10.588958021253347">
        <ele>5.42</ele>
        <time>2019-05-07T12:30:38Z</time>
      </trkpt>
      <trkpt lat="53.344366997480392" lon="10.588808991014957">
        <ele>5.42</ele>
        <time>2019-05-07T12:30:39Z</time>
      </trkpt>
      <trkpt lat="53.344302959740162" lon="10.588673036545515">
        <ele>5.42</ele>
        <time>2019-05-07T12:30:40Z</time>
      </trkpt>
      <trkpt lat="53.344236994162202" lon="10.588532974943519">
        <ele>5.42</ele>
        <time>2019-05-07T12:30:41Z</time>
      </trkpt>
      <trkpt lat="53.34410103969276" lon="10.588256036862731">
        <ele>4.94</ele>
        <time>2019-05-07T12:30:43Z</time>
      </trkpt>
      <trkpt lat="53.344016969203949" lon="10.587973985821009">
        <ele>4.94</ele>
        <time>2019-05-07T12:30:45Z</time>
      </trkpt>
      <trkpt lat="53.344000959768891" lon="10.587821016088128">
        <ele>4.94</ele>
        <time>2019-05-07T12:30:46Z</time>
      </trkpt>
      <trkpt lat="53.343991991132498" lon="10.587663017213345">
        <ele>4.94</ele>
        <time>2019-05-07T12:30:47Z</time>
      </trkpt>
      <trkpt lat="53.344016969203949" lon="10.587502000853419">
        <ele>4.94</ele>
        <time>2019-05-07T12:30:48Z</time>
      </trkpt>
      <trkpt lat="53.344048988074064" lon="10.587344001978636">
        <ele>4.94</ele>
        <time>2019-05-07T12:30:49Z</time>
      </trkpt>
      <trkpt lat="53.344091987237334" lon="10.587188014760613">
        <ele>5.42</ele>
        <time>2019-05-07T12:30:50Z</time>
      </trkpt>
      <trkpt lat="53.344135992228985" lon="10.587031021714211">
        <ele>5.42</ele>
        <time>2019-05-07T12:30:51Z</time>
      </trkpt>
      <trkpt lat="53.344514016062021" lon="10.585254980251193">
        <ele>5.42</ele>
        <time>2019-05-07T12:31:01Z</time>
      </trkpt>
      <trkpt lat="53.34457503631711" lon="10.584873016923666">
        <ele>5.42</ele>
        <time>2019-05-07T12:31:03Z</time>
      </trkpt>
      <trkpt lat="53.344605965539813" lon="10.584677970036864">
        <ele>5.42</ele>
        <time>2019-05-07T12:31:04Z</time>
      </trkpt>
      <trkpt lat="53.344636978581548" lon="10.584484012797475">
        <ele>5.42</ele>
        <time>2019-05-07T12:31:05Z</time>
      </trkpt>
      <trkpt lat="53.344668997451663" lon="10.584289971739054">
        <ele>5.42</ele>
        <time>2019-05-07T12:31:06Z</time>
      </trkpt>
      <trkpt lat="53.344699004665017" lon="10.584100037813187">
        <ele>5.42</ele>
        <time>2019-05-07T12:31:07Z</time>
      </trkpt>
      <trkpt lat="53.344993041828275" lon="10.582184018567204">
        <ele>4.94</ele>
        <time>2019-05-07T12:31:17Z</time>
      </trkpt>
      <trkpt lat="53.345018019899726" lon="10.58116402477026">
        <ele>4.94</ele>
        <time>2019-05-07T12:31:22Z</time>
      </trkpt>
      <trkpt lat="53.344992035999894" lon="10.580749036744237">
        <ele>4.46</ele>
        <time>2019-05-07T12:31:24Z</time>
      </trkpt>
      <trkpt lat="53.344679977744818" lon="10.578868975862861">
        <ele>4.94</ele>
        <time>2019-05-07T12:31:32Z</time>
      </trkpt>
      <trkpt lat="53.34464100189507" lon="10.578588014468551">
        <ele>4.94</ele>
        <time>2019-05-07T12:31:33Z</time>
      </trkpt>
      <trkpt lat="53.344602026045322" lon="10.578302023932338">
        <ele>4.94</ele>
        <time>2019-05-07T12:31:34Z</time>
      </trkpt>
      <trkpt lat="53.344604959711432" lon="10.578023996204138">
        <ele>4.46</ele>
        <time>2019-05-07T12:31:35Z</time>
      </trkpt>
      <trkpt lat="53.344630021601915" lon="10.577732976526022">
        <ele>4.46</ele>
        <time>2019-05-07T12:31:36Z</time>
      </trkpt>
      <trkpt lat="53.344652988016605" lon="10.577473975718021">
        <ele>4.46</ele>
        <time>2019-05-07T12:31:37Z</time>
      </trkpt>
      <trkpt lat="53.344729011878371" lon="10.57725302875042">
        <ele>3.98</ele>
        <time>2019-05-07T12:31:38Z</time>
      </trkpt>
      <trkpt lat="53.344804029911757" lon="10.577035015448928">
        <ele>3.98</ele>
        <time>2019-05-07T12:31:39Z</time>
      </trkpt>
      <trkpt lat="53.344875024631619" lon="10.576839968562126">
        <ele>3.98</ele>
        <time>2019-05-07T12:31:40Z</time>
      </trkpt>
      <trkpt lat="53.344974014908075" lon="10.576685993000865">
        <ele>3.98</ele>
        <time>2019-05-07T12:31:41Z</time>
      </trkpt>
      <trkpt lat="53.34507099352777" lon="10.576534029096365">
        <ele>3.98</ele>
        <time>2019-05-07T12:31:42Z</time>
      </trkpt>
      <trkpt lat="53.345167972147465" lon="10.576381981372833">
        <ele>3.98</ele>
        <time>2019-05-07T12:31:43Z</time>
      </trkpt>
      <trkpt lat="53.345964001491666" lon="10.575184039771557">
        <ele>4.46</ele>
        <time>2019-05-07T12:31:52Z</time>
      </trkpt>
      <trkpt lat="53.346055028960109" lon="10.575029980391264">
        <ele>4.94</ele>
        <time>2019-05-07T12:31:53Z</time>
      </trkpt>
      <trkpt lat="53.346143960952759" lon="10.574872987344861">
        <ele>5.42</ele>
        <time>2019-05-07T12:31:54Z</time>
      </trkpt>
      <trkpt lat="53.346230965107679" lon="10.574715994298458">
        <ele>5.42</ele>
        <time>2019-05-07T12:31:55Z</time>
      </trkpt>
      <trkpt lat="53.3463179692626" lon="10.574557995423675">
        <ele>5.91</ele>
        <time>2019-05-07T12:31:56Z</time>
      </trkpt>
      <trkpt lat="53.346658023074269" lon="10.573941003531218">
        <ele>5.91</ele>
        <time>2019-05-07T12:32:00Z</time>
      </trkpt>
      <trkpt lat="53.346739998087287" lon="10.573781998828053">
        <ele>6.39</ele>
        <time>2019-05-07T12:32:01Z</time>
      </trkpt>
      <trkpt lat="53.347033029422164" lon="10.573118990287185">
        <ele>5.91</ele>
        <time>2019-05-07T12:32:05Z</time>
      </trkpt>
      <trkpt lat="53.347081979736686" lon="10.572929978370667">
        <ele>5.91</ele>
        <time>2019-05-07T12:32:06Z</time>
      </trkpt>
      <trkpt lat="53.347121039405465" lon="10.572734009474516">
        <ele>6.39</ele>
        <time>2019-05-07T12:32:07Z</time>
      </trkpt>
      <trkpt lat="53.347647003829479" lon="10.570276016369462">
        <ele>5.42</ele>
        <time>2019-05-07T12:32:20Z</time>
      </trkpt>
      <trkpt lat="53.347768960520625" lon="10.569934034720063">
        <ele>4.94</ele>
        <time>2019-05-07T12:32:22Z</time>
      </trkpt>
      <trkpt lat="53.34784003905952" lon="10.56977603584528">
        <ele>4.46</ele>
        <time>2019-05-07T12:32:23Z</time>
      </trkpt>
      <trkpt lat="53.347911033779383" lon="10.569618036970496">
        <ele>4.46</ele>
        <time>2019-05-07T12:32:24Z</time>
      </trkpt>
      <trkpt lat="53.3479930087924" lon="10.569475963711739">
        <ele>3.98</ele>
        <time>2019-05-07T12:32:25Z</time>
      </trkpt>
      <trkpt lat="53.348093004897237" lon="10.569372028112411">
        <ele>3.98</ele>
        <time>2019-05-07T12:32:26Z</time>
      </trkpt>
      <trkpt lat="53.348195012658834" lon="10.569265997037292">
        <ele>3.5</ele>
        <time>2019-05-07T12:32:27Z</time>
      </trkpt>
      <trkpt lat="53.348296014592052" lon="10.569159965962172">
        <ele>3.5</ele>
        <time>2019-05-07T12:32:28Z</time>
      </trkpt>
      <trkpt lat="53.348837988451123" lon="10.568655040115118">
        <ele>3.98</ele>
        <time>2019-05-07T12:32:33Z</time>
      </trkpt>
      <trkpt lat="53.349641980603337" lon="10.567418960854411">
        <ele>3.98</ele>
        <time>2019-05-07T12:32:41Z</time>
      </trkpt>
      <trkpt lat="53.350679995492101" lon="10.566406007856131">
        <ele>4.94</ele>
        <time>2019-05-07T12:32:48Z</time>
      </trkpt>
      <trkpt lat="53.352163005620241" lon="10.565118966624141">
        <ele>5.42</ele>
        <time>2019-05-07T12:32:58Z</time>
      </trkpt>
      <trkpt lat="53.353595975786448" lon="10.563595974817872">
        <ele>4.46</ele>
        <time>2019-05-07T12:33:10Z</time>
      </trkpt>
      <trkpt lat="53.354751002043486" lon="10.562528036534786">
        <ele>4.46</ele>
        <time>2019-05-07T12:33:19Z</time>
      </trkpt>
      <trkpt lat="53.356158994138241" lon="10.56221698410809">
        <ele>4.46</ele>
        <time>2019-05-07T12:33:28Z</time>
      </trkpt>
      <trkpt lat="53.357921037822962" lon="10.561974998563528">
        <ele>6.39</ele>
        <time>2019-05-07T12:33:38Z</time>
      </trkpt>
      <trkpt lat="53.359480993822217" lon="10.561760002747178">
        <ele>8.789999999999999</ele>
        <time>2019-05-07T12:33:47Z</time>
      </trkpt>
      <trkpt lat="53.360338965430856" lon="10.561575014144182">
        <ele>8.310000000000001</ele>
        <time>2019-05-07T12:33:53Z</time>
      </trkpt>
      <trkpt lat="53.36045597679913" lon="10.56146596558392">
        <ele>7.83</ele>
        <time>2019-05-07T12:33:54Z</time>
      </trkpt>
      <trkpt lat="53.360569970682263" lon="10.561359012499452">
        <ele>7.83</ele>
        <time>2019-05-07T12:33:55Z</time>
      </trkpt>
      <trkpt lat="53.360679019242525" lon="10.561240995302796">
        <ele>7.35</ele>
        <time>2019-05-07T12:33:56Z</time>
      </trkpt>
      <trkpt lat="53.360758982598782" lon="10.561048965901136">
        <ele>7.35</ele>
        <time>2019-05-07T12:33:57Z</time>
      </trkpt>
      <trkpt lat="53.360830983147025" lon="10.560838999226689">
        <ele>6.87</ele>
        <time>2019-05-07T12:33:58Z</time>
      </trkpt>
      <trkpt lat="53.360907007008791" lon="10.560620985925198">
        <ele>6.87</ele>
        <time>2019-05-07T12:33:59Z</time>
      </trkpt>
      <trkpt lat="53.361590970307589" lon="10.558429034426808">
        <ele>4.94</ele>
        <time>2019-05-07T12:34:08Z</time>
      </trkpt>
      <trkpt lat="53.362287003546953" lon="10.556116970255971">
        <ele>4.94</ele>
        <time>2019-05-07T12:34:19Z</time>
      </trkpt>
      <trkpt lat="53.362849010154605" lon="10.554385017603636">
        <ele>3.98</ele>
        <time>2019-05-07T12:34:28Z</time>
      </trkpt>
      <trkpt lat="53.362937020137906" lon="10.554275969043374">
        <ele>3.5</ele>
        <time>2019-05-07T12:34:29Z</time>
      </trkpt>
      <trkpt lat="53.363021006807685" lon="10.554171027615666">
        <ele>3.5</ele>
        <time>2019-05-07T12:34:30Z</time>
      </trkpt>
      <trkpt lat="53.363125026226044" lon="10.554147977381945">
        <ele>3.5</ele>
        <time>2019-05-07T12:34:31Z</time>
      </trkpt>
      <trkpt lat="53.363222004845738" lon="10.554129034280777">
        <ele>3.5</ele>
        <time>2019-05-07T12:34:32Z</time>
      </trkpt>
      <trkpt lat="53.363306997343898" lon="10.554139008745551">
        <ele>3.5</ele>
        <time>2019-05-07T12:34:33Z</time>
      </trkpt>
      <trkpt lat="53.363369023427367" lon="10.554146971553564">
        <ele>3.5</ele>
        <time>2019-05-07T12:34:34Z</time>
      </trkpt>
      <trkpt lat="53.36341897957027" lon="10.554153006523848">
        <ele>3.5</ele>
        <time>2019-05-07T12:34:35Z</time>
      </trkpt>
      <trkpt lat="53.363458961248398" lon="10.554158035665751">
        <ele>3.98</ele>
        <time>2019-05-07T12:34:36Z</time>
      </trkpt>
      <trkpt lat="53.363488968461752" lon="10.554161975160241">
        <ele>3.98</ele>
        <time>2019-05-07T12:34:37Z</time>
      </trkpt>
      <trkpt lat="53.363503972068429" lon="10.554163986817002">
        <ele>4.46</ele>
        <time>2019-05-07T12:34:38Z</time>
      </trkpt>
      <trkpt lat="53.363561974838376" lon="10.554233975708485">
        <ele>4.46</ele>
        <time>2019-05-07T12:34:48Z</time>
      </trkpt>
      <trkpt lat="53.363573960959911" lon="10.554382000118494">
        <ele>4.94</ele>
        <time>2019-05-07T12:34:50Z</time>
      </trkpt>
      <trkpt lat="53.363583013415337" lon="10.554504962638021">
        <ele>4.94</ele>
        <time>2019-05-07T12:34:51Z</time>
      </trkpt>
      <trkpt lat="53.363801026716828" lon="10.555670969188213">
        <ele>4.94</ele>
        <time>2019-05-07T12:34:57Z</time>
      </trkpt>
      <trkpt lat="53.364469986408949" lon="10.557138975709677">
        <ele>5.91</ele>
        <time>2019-05-07T12:35:04Z</time>
      </trkpt>
      <trkpt lat="53.365198038518429" lon="10.558609999716282">
        <ele>9.75</ele>
        <time>2019-05-07T12:35:14Z</time>
      </trkpt>
      <trkpt lat="53.365811007097363" lon="10.559863010421395">
        <ele>12.15</ele>
        <time>2019-05-07T12:35:25Z</time>
      </trkpt>
      <trkpt lat="53.365903962403536" lon="10.560056967660785">
        <ele>13.119999999999999</ele>
        <time>2019-05-07T12:35:34Z</time>
      </trkpt>
      <trkpt lat="53.365903962403536" lon="10.560056967660785">
        <ele>13.119999999999999</ele>
        <time>2019-05-07T12:36:03Z</time>
      </trkpt>
      <trkpt lat="53.365980992093682" lon="10.560216978192329">
        <ele>12.630000000000001</ele>
        <time>2019-05-07T12:36:35Z</time>
      </trkpt>
      <trkpt lat="53.366015022620559" lon="10.560286967083812">
        <ele>12.15</ele>
        <time>2019-05-07T12:36:36Z</time>
      </trkpt>
      <trkpt lat="53.36623496375978" lon="10.560745038092136">
        <ele>11.19</ele>
        <time>2019-05-07T12:36:41Z</time>
      </trkpt>
      <trkpt lat="53.366579040884972" lon="10.561458002775908">
        <ele>9.27</ele>
        <time>2019-05-07T12:36:47Z</time>
      </trkpt>
      <trkpt lat="53.366634026169777" lon="10.561568979173899">
        <ele>8.789999999999999</ele>
        <time>2019-05-07T12:36:48Z</time>
      </trkpt>
      <trkpt lat="53.367194021120667" lon="10.562701039016247">
        <ele>6.87</ele>
        <time>2019-05-07T12:36:59Z</time>
      </trkpt>
      <trkpt lat="53.367984015494585" lon="10.56429703719914">
        <ele>9.27</ele>
        <time>2019-05-07T12:37:12Z</time>
      </trkpt>
      <trkpt lat="53.368621040135622" lon="10.565586006268859">
        <ele>7.83</ele>
        <time>2019-05-07T12:37:22Z</time>
      </trkpt>
      <trkpt lat="53.368750959634781" lon="10.565779963508248">
        <ele>7.35</ele>
        <time>2019-05-07T12:37:24Z</time>
      </trkpt>
      <trkpt lat="53.368814997375011" lon="10.565877025946975">
        <ele>7.35</ele>
        <time>2019-05-07T12:37:25Z</time>
      </trkpt>
      <trkpt lat="53.368881968781352" lon="10.565977022051811">
        <ele>7.35</ele>
        <time>2019-05-07T12:37:26Z</time>
      </trkpt>
      <trkpt lat="53.368956986814737" lon="10.566067965701222">
        <ele>7.83</ele>
        <time>2019-05-07T12:37:27Z</time>
      </trkpt>
      <trkpt lat="53.369042985141277" lon="10.566143989562988">
        <ele>7.83</ele>
        <time>2019-05-07T12:37:28Z</time>
      </trkpt>
      <trkpt lat="53.369320007041097" lon="10.566327972337604">
        <ele>8.310000000000001</ele>
        <time>2019-05-07T12:37:31Z</time>
      </trkpt>
      <trkpt lat="53.369420003145933" lon="10.566372983157635">
        <ele>8.310000000000001</ele>
        <time>2019-05-07T12:37:32Z</time>
      </trkpt>
      <trkpt lat="53.370096003636718" lon="10.566403996199369">
        <ele>8.789999999999999</ele>
        <time>2019-05-07T12:37:39Z</time>
      </trkpt>
      <trkpt lat="53.370171021670103" lon="10.566352028399706">
        <ele>9.27</ele>
        <time>2019-05-07T12:37:40Z</time>
      </trkpt>
      <trkpt lat="53.37025098502636" lon="10.566295031458139">
        <ele>9.27</ele>
        <time>2019-05-07T12:37:41Z</time>
      </trkpt>
      <trkpt lat="53.370331032201648" lon="10.566237028688192">
        <ele>9.75</ele>
        <time>2019-05-07T12:37:42Z</time>
      </trkpt>
      <trkpt lat="53.370412001386285" lon="10.566180031746626">
        <ele>10.23</ele>
        <time>2019-05-07T12:37:43Z</time>
      </trkpt>
      <trkpt lat="53.370490958914161" lon="10.566123034805059">
        <ele>10.23</ele>
        <time>2019-05-07T12:37:44Z</time>
      </trkpt>
      <trkpt lat="53.370571006089449" lon="10.566066037863493">
        <ele>10.23</ele>
        <time>2019-05-07T12:37:45Z</time>
      </trkpt>
      <trkpt lat="53.371411040425301" lon="10.565323987975717">
        <ele>8.310000000000001</ele>
        <time>2019-05-07T12:37:56Z</time>
      </trkpt>
      <trkpt lat="53.37179702706635" lon="10.564963985234499">
        <ele>4.46</ele>
        <time>2019-05-07T12:38:04Z</time>
      </trkpt>
      <trkpt lat="53.37179702706635" lon="10.564839011058211">
        <ele>4.46</ele>
        <time>2019-05-07T12:38:05Z</time>
      </trkpt>
      <trkpt lat="53.37179702706635" lon="10.5647739674896">
        <ele>3.98</ele>
        <time>2019-05-07T12:38:06Z</time>
      </trkpt>
      <trkpt lat="53.37179702706635" lon="10.56466399691999">
        <ele>3.5</ele>
        <time>2019-05-07T12:38:07Z</time>
      </trkpt>
      <trkpt lat="53.371789986267686" lon="10.56464496999979">
        <ele>3.02</ele>
        <time>2019-05-07T12:38:08Z</time>
      </trkpt>
      <trkpt lat="53.371762996539474" lon="10.564576992765069">
        <ele>2.54</ele>
        <time>2019-05-07T12:38:09Z</time>
      </trkpt>
      <trkpt lat="53.371737012639642" lon="10.56451303884387">
        <ele>2.54</ele>
        <time>2019-05-07T12:38:10Z</time>
      </trkpt>
      <trkpt lat="53.37171102873981" lon="10.56444900110364">
        <ele>2.06</ele>
        <time>2019-05-07T12:38:11Z</time>
      </trkpt>
      <trkpt lat="53.371612038463354" lon="10.564275998622179">
        <ele>1.1</ele>
        <time>2019-05-07T12:38:14Z</time>
      </trkpt>
      <trkpt lat="53.371489997953176" lon="10.56406200863421">
        <ele>-0.34</ele>
        <time>2019-05-07T12:38:17Z</time>
      </trkpt>
      <trkpt lat="53.371263016015291" lon="10.563663030043244">
        <ele>-2.27</ele>
        <time>2019-05-07T12:38:23Z</time>
      </trkpt>
      <trkpt lat="53.371230997145176" lon="10.563607960939407">
        <ele>-2.75</ele>
        <time>2019-05-07T12:38:24Z</time>
      </trkpt>
      <trkpt lat="53.371205013245344" lon="10.563563033938408">
        <ele>-3.23</ele>
        <time>2019-05-07T12:38:25Z</time>
      </trkpt>
      <trkpt lat="53.371185986325145" lon="10.563507964834571">
        <ele>-3.23</ele>
        <time>2019-05-07T12:38:26Z</time>
      </trkpt>
      <trkpt lat="53.371169976890087" lon="10.563448034226894">
        <ele>-3.23</ele>
        <time>2019-05-07T12:38:27Z</time>
      </trkpt>
      <trkpt lat="53.37115497328341" lon="10.563391037285328">
        <ele>-3.71</ele>
        <time>2019-05-07T12:38:28Z</time>
      </trkpt>
      <trkpt lat="53.371138963848352" lon="10.563330017030239">
        <ele>-3.71</ele>
        <time>2019-05-07T12:38:29Z</time>
      </trkpt>
      <trkpt lat="53.370887003839016" lon="10.562404990196228">
        <ele>-3.23</ele>
        <time>2019-05-07T12:38:43Z</time>
      </trkpt>
      <trkpt lat="53.370865965262055" lon="10.562329972162843">
        <ele>-2.75</ele>
        <time>2019-05-07T12:38:44Z</time>
      </trkpt>
      <trkpt lat="53.370820032432675" lon="10.562169961631298">
        <ele>-2.75</ele>
        <time>2019-05-07T12:38:46Z</time>
      </trkpt>
      <trkpt lat="53.370726993307471" lon="10.56185002438724">
        <ele>-2.75</ele>
        <time>2019-05-07T12:38:50Z</time>
      </trkpt>
      <trkpt lat="53.370704026892781" lon="10.561769977211952">
        <ele>-2.75</ele>
        <time>2019-05-07T12:38:51Z</time>
      </trkpt>
      <trkpt lat="53.370703021064401" lon="10.56176695972681">
        <ele>-2.75</ele>
        <time>2019-05-07T12:38:52Z</time>
      </trkpt>
      <trkpt lat="53.370691034942865" lon="10.561628993600607">
        <ele>-2.75</ele>
        <time>2019-05-07T12:38:53Z</time>
      </trkpt>
      <trkpt lat="53.370686005800962" lon="10.561559004709125">
        <ele>-2.27</ele>
        <time>2019-05-07T12:38:54Z</time>
      </trkpt>
      <trkpt lat="53.370673013851047" lon="10.561405029147863">
        <ele>-2.27</ele>
        <time>2019-05-07T12:38:56Z</time>
      </trkpt>
      <trkpt lat="53.370506968349218" lon="10.560834975913167">
        <ele>-1.3</ele>
        <time>2019-05-07T12:39:06Z</time>
      </trkpt>
      <trkpt lat="53.37048701941967" lon="10.560765992850065">
        <ele>-1.3</ele>
        <time>2019-05-07T12:39:07Z</time>
      </trkpt>
      <trkpt lat="53.370460029691458" lon="10.560616040602326">
        <ele>-0.82</ele>
        <time>2019-05-07T12:39:09Z</time>
      </trkpt>
      <trkpt lat="53.370383000001311" lon="10.559785980731249">
        <ele>-1.79</ele>
        <time>2019-05-07T12:39:21Z</time>
      </trkpt>
      <trkpt lat="53.370364978909492" lon="10.559596968814731">
        <ele>-1.3</ele>
        <time>2019-05-07T12:39:24Z</time>
      </trkpt>
      <trkpt lat="53.370360033586621" lon="10.559535026550293">
        <ele>-1.3</ele>
        <time>2019-05-07T12:39:25Z</time>
      </trkpt>
      <trkpt lat="53.370343018323183" lon="10.558946030214429">
        <ele>-2.27</ele>
        <time>2019-05-07T12:39:33Z</time>
      </trkpt>
      <trkpt lat="53.370352992787957" lon="10.55886397138238">
        <ele>-2.27</ele>
        <time>2019-05-07T12:39:34Z</time>
      </trkpt>
      <trkpt lat="53.370363973081112" lon="10.55877897888422">
        <ele>-2.27</ele>
        <time>2019-05-07T12:39:35Z</time>
      </trkpt>
      <trkpt lat="53.37038098834455" lon="10.558644030243158">
        <ele>-1.79</ele>
        <time>2019-05-07T12:39:37Z</time>
      </trkpt>
      <trkpt lat="53.370389034971595" lon="10.558582004159689">
        <ele>-1.79</ele>
        <time>2019-05-07T12:39:38Z</time>
      </trkpt>
      <trkpt lat="53.370404960587621" lon="10.558459041640162">
        <ele>-1.3</ele>
        <time>2019-05-07T12:39:40Z</time>
      </trkpt>
      <trkpt lat="53.370415018871427" lon="10.558384023606777">
        <ele>-0.82</ele>
        <time>2019-05-07T12:39:41Z</time>
      </trkpt>
      <trkpt lat="53.37042398750782" lon="10.558312023058534">
        <ele>-0.34</ele>
        <time>2019-05-07T12:39:42Z</time>
      </trkpt>
      <trkpt lat="53.370448965579271" lon="10.558268018066883">
        <ele>0.14</ele>
        <time>2019-05-07T12:39:43Z</time>
      </trkpt>
      <trkpt lat="53.370479978621006" lon="10.558215966448188">
        <ele>0.14</ele>
        <time>2019-05-07T12:39:44Z</time>
      </trkpt>
      <trkpt lat="53.370516020804644" lon="10.55815301835537">
        <ele>0.62</ele>
        <time>2019-05-07T12:39:45Z</time>
      </trkpt>
      <trkpt lat="53.37055197916925" lon="10.5580909922719">
        <ele>1.1</ele>
        <time>2019-05-07T12:39:46Z</time>
      </trkpt>
      <trkpt lat="53.370586009696126" lon="10.558032989501953">
        <ele>1.1</ele>
        <time>2019-05-07T12:39:47Z</time>
      </trkpt>
      <trkpt lat="53.370620040223002" lon="10.557972975075245">
        <ele>1.58</ele>
        <time>2019-05-07T12:39:48Z</time>
      </trkpt>
      <trkpt lat="53.370652981102467" lon="10.557916983962059">
        <ele>1.58</ele>
        <time>2019-05-07T12:39:49Z</time>
      </trkpt>
      <trkpt lat="53.370660021901131" lon="10.557903992012143">
        <ele>2.06</ele>
        <time>2019-05-07T12:39:50Z</time>
      </trkpt>
      <trkpt lat="53.370660021901131" lon="10.557903992012143">
        <ele>2.06</ele>
        <time>2019-05-07T12:39:51Z</time>
      </trkpt>
      <trkpt lat="53.370660021901131" lon="10.557903992012143">
        <ele>2.06</ele>
        <time>2019-05-07T12:39:52Z</time>
      </trkpt>
      <trkpt lat="53.370660021901131" lon="10.557903992012143">
        <ele>2.06</ele>
        <time>2019-05-07T12:39:53Z</time>
      </trkpt>
      <trkpt lat="53.370660021901131" lon="10.557903992012143">
        <ele>2.06</ele>
        <time>2019-05-07T12:39:54Z</time>
      </trkpt>
      <trkpt lat="53.370668990537524" lon="10.557192033156753">
        <ele>2.06</ele>
        <time>2019-05-07T12:39:59Z</time>
      </trkpt>
      <trkpt lat="53.370665973052382" lon="10.55712497793138">
        <ele>2.06</ele>
        <time>2019-05-07T12:40:00Z</time>
      </trkpt>
      <trkpt lat="53.370663039386272" lon="10.557074015960097">
        <ele>1.58</ele>
        <time>2019-05-07T12:40:01Z</time>
      </trkpt>
      <trkpt lat="53.370661027729511" lon="10.55703797377646">
        <ele>1.58</ele>
        <time>2019-05-07T12:40:02Z</time>
      </trkpt>
      <trkpt lat="53.370661027729511" lon="10.55703797377646">
        <ele>1.58</ele>
        <time>2019-05-07T12:40:03Z</time>
      </trkpt>
      <trkpt lat="53.370661027729511" lon="10.55703797377646">
        <ele>0.62</ele>
        <time>2019-05-07T12:40:16Z</time>
      </trkpt>
      <trkpt lat="53.370661027729511" lon="10.55703797377646">
        <ele>0.62</ele>
        <time>2019-05-07T12:40:17Z</time>
      </trkpt>
      <trkpt lat="53.370682988315821" lon="10.557471988722682">
        <ele>-0.82</ele>
        <time>2019-05-07T12:40:24Z</time>
      </trkpt>
      <trkpt lat="53.370686005800962" lon="10.557549018412828">
        <ele>-0.82</ele>
        <time>2019-05-07T12:40:25Z</time>
      </trkpt>
      <trkpt lat="53.370661027729511" lon="10.557910026982427">
        <ele>-0.82</ele>
        <time>2019-05-07T12:40:31Z</time>
      </trkpt>
      <trkpt lat="53.370698997750878" lon="10.557970963418484">
        <ele>-0.82</ele>
        <time>2019-05-07T12:40:32Z</time>
      </trkpt>
      <trkpt lat="53.37070100940764" lon="10.558032989501953">
        <ele>-0.82</ele>
        <time>2019-05-07T12:40:33Z</time>
      </trkpt>
      <trkpt lat="53.37070201523602" lon="10.558085041120648">
        <ele>-0.82</ele>
        <time>2019-05-07T12:40:34Z</time>
      </trkpt>
      <trkpt lat="53.370703021064401" lon="10.558134997263551">
        <ele>-0.82</ele>
        <time>2019-05-07T12:40:35Z</time>
      </trkpt>
      <trkpt lat="53.370704026892781" lon="10.558183025568724">
        <ele>-0.82</ele>
        <time>2019-05-07T12:40:36Z</time>
      </trkpt>
      <trkpt lat="53.370705032721162" lon="10.558234993368387">
        <ele>-0.82</ele>
        <time>2019-05-07T12:40:37Z</time>
      </trkpt>
      <trkpt lat="53.370705032721162" lon="10.558292996138334">
        <ele>-0.82</ele>
        <time>2019-05-07T12:40:38Z</time>
      </trkpt>
      <trkpt lat="53.370706038549542" lon="10.558350998908281">
        <ele>-0.34</ele>
        <time>2019-05-07T12:40:39Z</time>
      </trkpt>
      <trkpt lat="53.370706960558891" lon="10.558403972536325">
        <ele>-0.34</ele>
        <time>2019-05-07T12:40:40Z</time>
      </trkpt>
      <trkpt lat="53.370706960558891" lon="10.558448983356357">
        <ele>0.14</ele>
        <time>2019-05-07T12:40:41Z</time>
      </trkpt>
      <trkpt lat="53.370707966387272" lon="10.558496005833149">
        <ele>0.14</ele>
        <time>2019-05-07T12:40:42Z</time>
      </trkpt>
      <trkpt lat="53.370707966387272" lon="10.558551996946335">
        <ele>0.62</ele>
        <time>2019-05-07T12:40:43Z</time>
      </trkpt>
      <trkpt lat="53.370708972215652" lon="10.558611005544662">
        <ele>0.62</ele>
        <time>2019-05-07T12:40:44Z</time>
      </trkpt>
      <trkpt lat="53.370709978044033" lon="10.55867001414299">
        <ele>0.62</ele>
        <time>2019-05-07T12:40:45Z</time>
      </trkpt>
      <trkpt lat="53.370715007185936" lon="10.559120960533619">
        <ele>2.06</ele>
        <time>2019-05-07T12:40:52Z</time>
      </trkpt>
      <trkpt lat="53.370716013014317" lon="10.559187009930611">
        <ele>2.06</ele>
        <time>2019-05-07T12:40:53Z</time>
      </trkpt>
      <trkpt lat="53.370717018842697" lon="10.55925096385181">
        <ele>2.06</ele>
        <time>2019-05-07T12:40:54Z</time>
      </trkpt>
      <trkpt lat="53.370718024671078" lon="10.559312989935279">
        <ele>2.06</ele>
        <time>2019-05-07T12:40:55Z</time>
      </trkpt>
      <trkpt lat="53.370719030499458" lon="10.559382978826761">
        <ele>2.06</ele>
        <time>2019-05-07T12:40:56Z</time>
      </trkpt>
      <trkpt lat="53.370720036327839" lon="10.559453973546624">
        <ele>1.58</ele>
        <time>2019-05-07T12:40:57Z</time>
      </trkpt>
      <trkpt lat="53.370720958337188" lon="10.559534020721912">
        <ele>1.58</ele>
        <time>2019-05-07T12:40:58Z</time>
      </trkpt>
      <trkpt lat="53.370720958337188" lon="10.559609038755298">
        <ele>1.1</ele>
        <time>2019-05-07T12:40:59Z</time>
      </trkpt>
      <trkpt lat="53.370721964165568" lon="10.55968196131289">
        <ele>1.1</ele>
        <time>2019-05-07T12:41:00Z</time>
      </trkpt>
      <trkpt lat="53.370722969993949" lon="10.559745999053121">
        <ele>1.1</ele>
        <time>2019-05-07T12:41:01Z</time>
      </trkpt>
      <trkpt lat="53.37072397582233" lon="10.559836020693183">
        <ele>1.58</ele>
        <time>2019-05-07T12:41:02Z</time>
      </trkpt>
      <trkpt lat="53.370721964165568" lon="10.559864016249776">
        <ele>2.06</ele>
        <time>2019-05-07T12:41:03Z</time>
      </trkpt>
      <trkpt lat="53.370717018842697" lon="10.559925958514214">
        <ele>2.06</ele>
        <time>2019-05-07T12:41:04Z</time>
      </trkpt>
      <trkpt lat="53.370712995529175" lon="10.559985972940922">
        <ele>2.54</ele>
        <time>2019-05-07T12:41:05Z</time>
      </trkpt>
      <trkpt lat="53.370707966387272" lon="10.560050010681152">
        <ele>2.54</ele>
        <time>2019-05-07T12:41:06Z</time>
      </trkpt>
      <trkpt lat="53.370703021064401" lon="10.560110025107861">
        <ele>3.02</ele>
        <time>2019-05-07T12:41:07Z</time>
      </trkpt>
      <trkpt lat="53.370698997750878" lon="10.560170961543918">
        <ele>3.5</ele>
        <time>2019-05-07T12:41:08Z</time>
      </trkpt>
      <trkpt lat="53.370693968608975" lon="10.560230975970626">
        <ele>3.5</ele>
        <time>2019-05-07T12:41:09Z</time>
      </trkpt>
      <trkpt lat="53.370689023286104" lon="10.560296019539237">
        <ele>3.5</ele>
        <time>2019-05-07T12:41:10Z</time>
      </trkpt>
      <trkpt lat="53.370683994144201" lon="10.560361985117197">
        <ele>3.5</ele>
        <time>2019-05-07T12:41:11Z</time>
      </trkpt>
      <trkpt lat="53.370679970830679" lon="10.560418982058764">
        <ele>3.5</ele>
        <time>2019-05-07T12:41:12Z</time>
      </trkpt>
      <trkpt lat="53.370675025507808" lon="10.560473967343569">
        <ele>3.02</ele>
        <time>2019-05-07T12:41:13Z</time>
      </trkpt>
      <trkpt lat="53.370671002194285" lon="10.560532975941896">
        <ele>3.02</ele>
        <time>2019-05-07T12:41:14Z</time>
      </trkpt>
      <trkpt lat="53.370665973052382" lon="10.560589972883463">
        <ele>2.54</ele>
        <time>2019-05-07T12:41:15Z</time>
      </trkpt>
      <trkpt lat="53.370662033557892" lon="10.560650993138552">
        <ele>2.06</ele>
        <time>2019-05-07T12:41:16Z</time>
      </trkpt>
      <trkpt lat="53.370657004415989" lon="10.560713019222021">
        <ele>1.58</ele>
        <time>2019-05-07T12:41:17Z</time>
      </trkpt>
      <trkpt lat="53.370649041607976" lon="10.560820978134871">
        <ele>0.62</ele>
        <time>2019-05-07T12:41:19Z</time>
      </trkpt>
      <trkpt lat="53.370644012466073" lon="10.560875041410327">
        <ele>0.62</ele>
        <time>2019-05-07T12:41:20Z</time>
      </trkpt>
      <trkpt lat="53.37063898332417" lon="10.560950981453061">
        <ele>0.14</ele>
        <time>2019-05-07T12:41:21Z</time>
      </trkpt>
      <trkpt lat="53.370642000809312" lon="10.560998003929853">
        <ele>0.14</ele>
        <time>2019-05-07T12:41:22Z</time>
      </trkpt>
      <trkpt lat="53.370646024122834" lon="10.561051983386278">
        <ele>-0.34</ele>
        <time>2019-05-07T12:41:23Z</time>
      </trkpt>
      <trkpt lat="53.370649041607976" lon="10.561103029176593">
        <ele>-0.82</ele>
        <time>2019-05-07T12:41:24Z</time>
      </trkpt>
      <trkpt lat="53.370652981102467" lon="10.561151979491115">
        <ele>-0.82</ele>
        <time>2019-05-07T12:41:25Z</time>
      </trkpt>
      <trkpt lat="53.370657004415989" lon="10.561209982261062">
        <ele>-1.3</ele>
        <time>2019-05-07T12:41:26Z</time>
      </trkpt>
      <trkpt lat="53.370661027729511" lon="10.561265973374248">
        <ele>-1.79</ele>
        <time>2019-05-07T12:41:27Z</time>
      </trkpt>
      <trkpt lat="53.370665973052382" lon="10.561320958659053">
        <ele>-2.27</ele>
        <time>2019-05-07T12:41:28Z</time>
      </trkpt>
      <trkpt lat="53.370679970830679" lon="10.561487004160881">
        <ele>-3.23</ele>
        <time>2019-05-07T12:41:31Z</time>
      </trkpt>
      <trkpt lat="53.370694974437356" lon="10.561671992763877">
        <ele>-4.19</ele>
        <time>2019-05-07T12:41:34Z</time>
      </trkpt>
      <trkpt lat="53.370703021064401" lon="10.56176695972681">
        <ele>-4.67</ele>
        <time>2019-05-07T12:41:35Z</time>
      </trkpt>
      <trkpt lat="53.370703021064401" lon="10.56176695972681">
        <ele>-4.67</ele>
        <time>2019-05-07T12:41:36Z</time>
      </trkpt>
      <trkpt lat="53.370746020227671" lon="10.561916995793581">
        <ele>-6.11</ele>
        <time>2019-05-07T12:41:38Z</time>
      </trkpt>
      <trkpt lat="53.370764041319489" lon="10.56197902187705">
        <ele>-7.07</ele>
        <time>2019-05-07T12:41:39Z</time>
      </trkpt>
      <trkpt lat="53.370782984420657" lon="10.56204398162663">
        <ele>-8.029999999999999</ele>
        <time>2019-05-07T12:41:40Z</time>
      </trkpt>
      <trkpt lat="53.370883986353874" lon="10.562394009903073">
        <ele>-12.359999999999999</ele>
        <time>2019-05-07T12:41:46Z</time>
      </trkpt>
      <trkpt lat="53.37093897163868" lon="10.562585033476353">
        <ele>-14.76</ele>
        <time>2019-05-07T12:41:50Z</time>
      </trkpt>
      <trkpt lat="53.370950035750866" lon="10.5626240093261">
        <ele>-15.24</ele>
        <time>2019-05-07T12:41:51Z</time>
      </trkpt>
      <trkpt lat="53.37096001021564" lon="10.562658039852977">
        <ele>-15.24</ele>
        <time>2019-05-07T12:41:52Z</time>
      </trkpt>
      <trkpt lat="53.371118009090424" lon="10.56324896402657">
        <ele>-10.44</ele>
        <time>2019-05-07T12:42:02Z</time>
      </trkpt>
      <trkpt lat="53.371134018525481" lon="10.563309984281659">
        <ele>-9.960000000000001</ele>
        <time>2019-05-07T12:42:03Z</time>
      </trkpt>
      <trkpt lat="53.371149022132158" lon="10.563366981223226">
        <ele>-9</ele>
        <time>2019-05-07T12:42:04Z</time>
      </trkpt>
      <trkpt lat="53.371163019910455" lon="10.563421966508031">
        <ele>-8.51</ele>
        <time>2019-05-07T12:42:05Z</time>
      </trkpt>
      <trkpt lat="53.371179029345512" lon="10.56348298676312">
        <ele>-8.029999999999999</ele>
        <time>2019-05-07T12:42:06Z</time>
      </trkpt>
      <trkpt lat="53.371237032115459" lon="10.563619025051594">
        <ele>-7.07</ele>
        <time>2019-05-07T12:42:08Z</time>
      </trkpt>
      <trkpt lat="53.371275002136827" lon="10.563685996457934">
        <ele>-7.07</ele>
        <time>2019-05-07T12:42:09Z</time>
      </trkpt>
      <trkpt lat="53.371358988806605" lon="10.563833015039563">
        <ele>-7.07</ele>
        <time>2019-05-07T12:42:11Z</time>
      </trkpt>
      <trkpt lat="53.371401987969875" lon="10.563908033072948">
        <ele>-7.07</ele>
        <time>2019-05-07T12:42:12Z</time>
      </trkpt>
      <trkpt lat="53.371450016275048" lon="10.563991013914347">
        <ele>-6.59</ele>
        <time>2019-05-07T12:42:13Z</time>
      </trkpt>
      <trkpt lat="53.371495027095079" lon="10.564069971442223">
        <ele>-6.59</ele>
        <time>2019-05-07T12:42:14Z</time>
      </trkpt>
      <trkpt lat="53.371536014601588" lon="10.564140966162086">
        <ele>-6.59</ele>
        <time>2019-05-07T12:42:15Z</time>
      </trkpt>
      <trkpt lat="53.371571972966194" lon="10.564203998073936">
        <ele>-6.59</ele>
        <time>2019-05-07T12:42:16Z</time>
      </trkpt>
      <trkpt lat="53.371599968522787" lon="10.564253032207489">
        <ele>-6.59</ele>
        <time>2019-05-07T12:42:17Z</time>
      </trkpt>
      <trkpt lat="53.371626036241651" lon="10.564298965036869">
        <ele>-7.07</ele>
        <time>2019-05-07T12:42:18Z</time>
      </trkpt>
      <trkpt lat="53.371652020141482" lon="10.564345987513661">
        <ele>-7.07</ele>
        <time>2019-05-07T12:42:19Z</time>
      </trkpt>
      <trkpt lat="53.371680015698075" lon="10.564394015818834">
        <ele>-7.55</ele>
        <time>2019-05-07T12:42:20Z</time>
      </trkpt>
      <trkpt lat="53.37171102873981" lon="10.56444900110364">
        <ele>-7.55</ele>
        <time>2019-05-07T12:42:21Z</time>
      </trkpt>
      <trkpt lat="53.371726032346487" lon="10.564485965296626">
        <ele>-7.55</ele>
        <time>2019-05-07T12:42:22Z</time>
      </trkpt>
      <trkpt lat="53.371750004589558" lon="10.564544973894954">
        <ele>-7.55</ele>
        <time>2019-05-07T12:42:23Z</time>
      </trkpt>
      <trkpt lat="53.371770959347486" lon="10.56459803134203">
        <ele>-7.55</ele>
        <time>2019-05-07T12:42:24Z</time>
      </trkpt>
      <trkpt lat="53.37179702706635" lon="10.564746977761388">
        <ele>-8.51</ele>
        <time>2019-05-07T12:42:33Z</time>
      </trkpt>
      <trkpt lat="53.371825022622943" lon="10.564963985234499">
        <ele>-8.51</ele>
        <time>2019-05-07T12:42:35Z</time>
      </trkpt>
      <trkpt lat="53.371874978765845" lon="10.564963985234499">
        <ele>-8.51</ele>
        <time>2019-05-07T12:42:36Z</time>
      </trkpt>
      <trkpt lat="53.37196902371943" lon="10.564963985234499">
        <ele>-8.029999999999999</ele>
        <time>2019-05-07T12:42:37Z</time>
      </trkpt>
      <trkpt lat="53.372029960155487" lon="10.565025005489588">
        <ele>-8.51</ele>
        <time>2019-05-07T12:42:38Z</time>
      </trkpt>
      <trkpt lat="53.372111013159156" lon="10.565105974674225">
        <ele>-8.51</ele>
        <time>2019-05-07T12:42:39Z</time>
      </trkpt>
      <trkpt lat="53.372186031192541" lon="10.56518099270761">
        <ele>-8.51</ele>
        <time>2019-05-07T12:42:40Z</time>
      </trkpt>
      <trkpt lat="53.372235987335443" lon="10.565299009904265">
        <ele>-8.51</ele>
        <time>2019-05-07T12:42:41Z</time>
      </trkpt>
      <trkpt lat="53.372275969013572" lon="10.565432030707598">
        <ele>-8.51</ele>
        <time>2019-05-07T12:42:42Z</time>
      </trkpt>
      <trkpt lat="53.372302036732435" lon="10.565571002662182">
        <ele>-8.51</ele>
        <time>2019-05-07T12:42:43Z</time>
      </trkpt>
      <trkpt lat="53.372319974005222" lon="10.565715003758669">
        <ele>-8.51</ele>
        <time>2019-05-07T12:42:44Z</time>
      </trkpt>
      <trkpt lat="53.372333971783519" lon="10.565862022340298">
        <ele>-8.029999999999999</ele>
        <time>2019-05-07T12:42:45Z</time>
      </trkpt>
      <trkpt lat="53.372336989268661" lon="10.566014992073178">
        <ele>-7.55</ele>
        <time>2019-05-07T12:42:46Z</time>
      </trkpt>
      <trkpt lat="53.372352998703718" lon="10.566932978108525">
        <ele>-6.11</ele>
        <time>2019-05-07T12:42:52Z</time>
      </trkpt>
      <trkpt lat="53.372446037828922" lon="10.567705035209656">
        <ele>-5.63</ele>
        <time>2019-05-07T12:42:57Z</time>
      </trkpt>
      <trkpt lat="53.372466992586851" lon="10.567854987457395">
        <ele>-5.63</ele>
        <time>2019-05-07T12:42:58Z</time>
      </trkpt>
      <trkpt lat="53.372487025335431" lon="10.568002006039023">
        <ele>-6.11</ele>
        <time>2019-05-07T12:42:59Z</time>
      </trkpt>
      <trkpt lat="53.372774021700025" lon="10.570083986967802">
        <ele>-1.3</ele>
        <time>2019-05-07T12:43:13Z</time>
      </trkpt>
      <trkpt lat="53.372802017256618" lon="10.57057399302721">
        <ele>0.14</ele>
        <time>2019-05-07T12:43:16Z</time>
      </trkpt>
      <trkpt lat="53.372795982286334" lon="10.57074598968029">
        <ele>0.62</ele>
        <time>2019-05-07T12:43:17Z</time>
      </trkpt>
      <trkpt lat="53.372641000896692" lon="10.572376018390059">
        <ele>3.98</ele>
        <time>2019-05-07T12:43:27Z</time>
      </trkpt>
      <trkpt lat="53.372512003406882" lon="10.574292959645391">
        <ele>3.5</ele>
        <time>2019-05-07T12:43:39Z</time>
      </trkpt>
      <trkpt lat="53.372519966214895" lon="10.57463401928544">
        <ele>3.02</ele>
        <time>2019-05-07T12:43:41Z</time>
      </trkpt>
      <trkpt lat="53.372580986469984" lon="10.575270960107446">
        <ele>2.06</ele>
        <time>2019-05-07T12:43:45Z</time>
      </trkpt>
      <trkpt lat="53.372716018930078" lon="10.575825003907084">
        <ele>1.1</ele>
        <time>2019-05-07T12:43:49Z</time>
      </trkpt>
      <trkpt lat="53.372752983123064" lon="10.575955007225275">
        <ele>1.1</ele>
        <time>2019-05-07T12:43:50Z</time>
      </trkpt>
      <trkpt lat="53.372791036963463" lon="10.576084004715085">
        <ele>1.58</ele>
        <time>2019-05-07T12:43:51Z</time>
      </trkpt>
      <trkpt lat="53.373391013592482" lon="10.577892987057567">
        <ele>4.94</ele>
        <time>2019-05-07T12:44:05Z</time>
      </trkpt>
      <trkpt lat="53.37411998771131" lon="10.579633992165327">
        <ele>7.83</ele>
        <time>2019-05-07T12:44:18Z</time>
      </trkpt>
      <trkpt lat="53.374624997377396" lon="10.580540997907519">
        <ele>8.789999999999999</ele>
        <time>2019-05-07T12:44:26Z</time>
      </trkpt>
      <trkpt lat="53.374685011804104" lon="10.580643005669117">
        <ele>8.789999999999999</ele>
        <time>2019-05-07T12:44:27Z</time>
      </trkpt>
      <trkpt lat="53.37534399703145" lon="10.581728965044022">
        <ele>9.75</ele>
        <time>2019-05-07T12:44:37Z</time>
      </trkpt>
      <trkpt lat="53.375576008111238" lon="10.582056026905775">
        <ele>8.789999999999999</ele>
        <time>2019-05-07T12:44:40Z</time>
      </trkpt>
      <trkpt lat="53.376046987250447" lon="10.582590037956834">
        <ele>7.83</ele>
        <time>2019-05-07T12:44:46Z</time>
      </trkpt>
      <trkpt lat="53.376118987798691" lon="10.582619961351156">
        <ele>7.83</ele>
        <time>2019-05-07T12:44:47Z</time>
      </trkpt>
      <trkpt lat="53.376185959205031" lon="10.582648040726781">
        <ele>8.310000000000001</ele>
        <time>2019-05-07T12:44:48Z</time>
      </trkpt>
      <trkpt lat="53.37624597363174" lon="10.582673018798232">
        <ele>8.310000000000001</ele>
        <time>2019-05-07T12:44:49Z</time>
      </trkpt>
      <trkpt lat="53.376300036907196" lon="10.58268902823329">
        <ele>8.310000000000001</ele>
        <time>2019-05-07T12:44:50Z</time>
      </trkpt>
      <trkpt lat="53.376569012179971" lon="10.582705037668347">
        <ele>8.310000000000001</ele>
        <time>2019-05-07T12:44:55Z</time>
      </trkpt>
      <trkpt lat="53.376619974151254" lon="10.582707971334457">
        <ele>8.310000000000001</ele>
        <time>2019-05-07T12:44:56Z</time>
      </trkpt>
      <trkpt lat="53.376678982749581" lon="10.582726998254657">
        <ele>8.310000000000001</ele>
        <time>2019-05-07T12:44:57Z</time>
      </trkpt>
      <trkpt lat="53.376729022711515" lon="10.58275499381125">
        <ele>8.310000000000001</ele>
        <time>2019-05-07T12:44:58Z</time>
      </trkpt>
      <trkpt lat="53.376776967197657" lon="10.582781983539462">
        <ele>8.310000000000001</ele>
        <time>2019-05-07T12:44:59Z</time>
      </trkpt>
      <trkpt lat="53.3768489677459" lon="10.582777038216591">
        <ele>8.789999999999999</ele>
        <time>2019-05-07T12:45:00Z</time>
      </trkpt>
      <trkpt lat="53.376871012151241" lon="10.582682993263006">
        <ele>8.789999999999999</ele>
        <time>2019-05-07T12:45:01Z</time>
      </trkpt>
      <trkpt lat="53.376895990222692" lon="10.582574028521776">
        <ele>8.789999999999999</ele>
        <time>2019-05-07T12:45:02Z</time>
      </trkpt>
      <trkpt lat="53.376922979950905" lon="10.582460034638643">
        <ele>8.789999999999999</ele>
        <time>2019-05-07T12:45:03Z</time>
      </trkpt>
      <trkpt lat="53.376951981335878" lon="10.582335982471704">
        <ele>8.310000000000001</ele>
        <time>2019-05-07T12:45:04Z</time>
      </trkpt>
      <trkpt lat="53.376982994377613" lon="10.582207990810275">
        <ele>8.310000000000001</ele>
        <time>2019-05-07T12:45:05Z</time>
      </trkpt>
      <trkpt lat="53.377043008804321" lon="10.581621006131172">
        <ele>8.310000000000001</ele>
        <time>2019-05-07T12:45:09Z</time>
      </trkpt>
      <trkpt lat="53.377096988260746" lon="10.579806994646788">
        <ele>10.710000000000001</ele>
        <time>2019-05-07T12:45:19Z</time>
      </trkpt>
      <trkpt lat="53.377058012410998" lon="10.579260997474194">
        <ele>13.119999999999999</ele>
        <time>2019-05-07T12:45:22Z</time>
      </trkpt>
      <trkpt lat="53.377022976055741" lon="10.579075003042817">
        <ele>13.6</ele>
        <time>2019-05-07T12:45:23Z</time>
      </trkpt>
      <trkpt lat="53.376473039388657" lon="10.576983969658613">
        <ele>23.210000000000001</ele>
        <time>2019-05-07T12:45:34Z</time>
      </trkpt>
      <trkpt lat="53.376386035233736" lon="10.576843991875648">
        <ele>23.690000000000001</ele>
        <time>2019-05-07T12:45:35Z</time>
      </trkpt>
      <trkpt lat="53.37628997862339" lon="10.576709965243936">
        <ele>24.170000000000002</ele>
        <time>2019-05-07T12:45:36Z</time>
      </trkpt>
      <trkpt lat="53.375746998935938" lon="10.57583699002862">
        <ele>28.5</ele>
        <time>2019-05-07T12:45:42Z</time>
      </trkpt>
      <trkpt lat="53.375688996165991" lon="10.575658036395907">
        <ele>28.98</ele>
        <time>2019-05-07T12:45:43Z</time>
      </trkpt>
      <trkpt lat="53.375634010881186" lon="10.57547296397388">
        <ele>29.460000000000001</ele>
        <time>2019-05-07T12:45:44Z</time>
      </trkpt>
      <trkpt lat="53.375604003667831" lon="10.575273977592587">
        <ele>30.420000000000002</ele>
        <time>2019-05-07T12:45:45Z</time>
      </trkpt>
      <trkpt lat="53.375584976747632" lon="10.575067028403282">
        <ele>30.899999999999999</ele>
        <time>2019-05-07T12:45:46Z</time>
      </trkpt>
      <trkpt lat="53.375573996454477" lon="10.574859995394945">
        <ele>31.379999999999999</ele>
        <time>2019-05-07T12:45:47Z</time>
      </trkpt>
      <trkpt lat="53.375573996454477" lon="10.574651034548879">
        <ele>31.859999999999999</ele>
        <time>2019-05-07T12:45:48Z</time>
      </trkpt>
      <trkpt lat="53.375573996454477" lon="10.572562012821436">
        <ele>38.590000000000003</ele>
        <time>2019-05-07T12:45:58Z</time>
      </trkpt>
      <trkpt lat="53.375573996454477" lon="10.570021038874984">
        <ele>45.799999999999997</ele>
        <time>2019-05-07T12:46:10Z</time>
      </trkpt>
      <trkpt lat="53.375457990914583" lon="10.567301027476788">
        <ele>51.57</ele>
        <time>2019-05-07T12:46:23Z</time>
      </trkpt>
      <trkpt lat="53.375295968726277" lon="10.566225964576006">
        <ele>53.969999999999999</ele>
        <time>2019-05-07T12:46:30Z</time>
      </trkpt>
      <trkpt lat="53.375220028683543" lon="10.565758002921939">
        <ele>54.93</ele>
        <time>2019-05-07T12:46:33Z</time>
      </trkpt>
      <trkpt lat="53.37493697181344" lon="10.56408598087728">
        <ele>53.490000000000002</ele>
        <time>2019-05-07T12:46:43Z</time>
      </trkpt>
      <trkpt lat="53.374837981536984" lon="10.563550963997841">
        <ele>52.530000000000001</ele>
        <time>2019-05-07T12:46:46Z</time>
      </trkpt>
      <trkpt lat="53.37480797432363" lon="10.56337502785027">
        <ele>52.049999999999997</ele>
        <time>2019-05-07T12:46:47Z</time>
      </trkpt>
      <trkpt lat="53.37472197599709" lon="10.562864989042282">
        <ele>50.609999999999999</ele>
        <time>2019-05-07T12:46:50Z</time>
      </trkpt>
      <trkpt lat="53.374691968783736" lon="10.56268997490406">
        <ele>50.130000000000003</ele>
        <time>2019-05-07T12:46:51Z</time>
      </trkpt>
      <trkpt lat="53.374662967398763" lon="10.562515966594219">
        <ele>49.649999999999999</ele>
        <time>2019-05-07T12:46:52Z</time>
      </trkpt>
      <trkpt lat="53.374632960185409" lon="10.562339024618268">
        <ele>48.68</ele>
        <time>2019-05-07T12:46:53Z</time>
      </trkpt>
      <trkpt lat="53.374602030962706" lon="10.562155963853002">
        <ele>48.200000000000003</ele>
        <time>2019-05-07T12:46:54Z</time>
      </trkpt>
      <trkpt lat="53.374573029577732" lon="10.561982039362192">
        <ele>47.719999999999999</ele>
        <time>2019-05-07T12:46:55Z</time>
      </trkpt>
      <trkpt lat="53.37454603984952" lon="10.561810964718461">
        <ele>46.759999999999998</ele>
        <time>2019-05-07T12:46:56Z</time>
      </trkpt>
      <trkpt lat="53.374518966302276" lon="10.561629999428988">
        <ele>46.280000000000001</ele>
        <time>2019-05-07T12:46:57Z</time>
      </trkpt>
      <trkpt lat="53.374316962435842" lon="10.559872984886169">
        <ele>41.950000000000003</ele>
        <time>2019-05-07T12:47:07Z</time>
      </trkpt>
      <trkpt lat="53.374229958280921" lon="10.558621985837817">
        <ele>41.950000000000003</ele>
        <time>2019-05-07T12:47:15Z</time>
      </trkpt>
      <trkpt lat="53.374221995472908" lon="10.557854035869241">
        <ele>41.469999999999999</ele>
        <time>2019-05-07T12:47:24Z</time>
      </trkpt>
      <trkpt lat="53.374221995472908" lon="10.557674998417497">
        <ele>41.469999999999999</ele>
        <time>2019-05-07T12:47:28Z</time>
      </trkpt>
      <trkpt lat="53.374221995472908" lon="10.557590005919337">
        <ele>41.469999999999999</ele>
        <time>2019-05-07T12:47:29Z</time>
      </trkpt>
      <trkpt lat="53.374243034049869" lon="10.5562639888376">
        <ele>41.469999999999999</ele>
        <time>2019-05-07T12:47:39Z</time>
      </trkpt>
      <trkpt lat="53.374184025451541" lon="10.555157996714115">
        <ele>40.030000000000001</ele>
        <time>2019-05-07T12:47:47Z</time>
      </trkpt>
      <trkpt lat="53.374117976054549" lon="10.554734040051699">
        <ele>38.590000000000003</ele>
        <time>2019-05-07T12:47:50Z</time>
      </trkpt>
      <trkpt lat="53.374084029346704" lon="10.554589033126831">
        <ele>38.109999999999999</ele>
        <time>2019-05-07T12:47:51Z</time>
      </trkpt>
      <trkpt lat="53.374049998819828" lon="10.554443020373583">
        <ele>37.149999999999999</ele>
        <time>2019-05-07T12:47:52Z</time>
      </trkpt>
      <trkpt lat="53.37392502464354" lon="10.553704993799329">
        <ele>34.740000000000002</ele>
        <time>2019-05-07T12:47:57Z</time>
      </trkpt>
      <trkpt lat="53.373878002166748" lon="10.552856996655464">
        <ele>32.82</ele>
        <time>2019-05-07T12:48:03Z</time>
      </trkpt>
      <trkpt lat="53.373870961368084" lon="10.552714001387358">
        <ele>32.340000000000003</ele>
        <time>2019-05-07T12:48:04Z</time>
      </trkpt>
      <trkpt lat="53.373885964974761" lon="10.55170901119709">
        <ele>30.899999999999999</ele>
        <time>2019-05-07T12:48:11Z</time>
      </trkpt>
      <trkpt lat="53.373891999945045" lon="10.551568027585745">
        <ele>30.899999999999999</ele>
        <time>2019-05-07T12:48:12Z</time>
      </trkpt>
      <trkpt lat="53.373961988836527" lon="10.550456000491977">
        <ele>31.379999999999999</ele>
        <time>2019-05-07T12:48:20Z</time>
      </trkpt>
      <trkpt lat="53.374047987163067" lon="10.548426993191242">
        <ele>32.82</ele>
        <time>2019-05-07T12:48:33Z</time>
      </trkpt>
      <trkpt lat="53.374088974669576" lon="10.547660971060395">
        <ele>33.299999999999997</ele>
        <time>2019-05-07T12:48:39Z</time>
      </trkpt>
      <trkpt lat="53.374200034886599" lon="10.54754002019763">
        <ele>33.299999999999997</ele>
        <time>2019-05-07T12:48:40Z</time>
      </trkpt>
      <trkpt lat="53.374207997694612" lon="10.547490986064076">
        <ele>33.780000000000001</ele>
        <time>2019-05-07T12:48:41Z</time>
      </trkpt>
      <trkpt lat="53.374206991866231" lon="10.547345979139209">
        <ele>33.780000000000001</ele>
        <time>2019-05-07T12:48:42Z</time>
      </trkpt>
      <trkpt lat="53.374178996309638" lon="10.547260986641049">
        <ele>33.780000000000001</ele>
        <time>2019-05-07T12:48:43Z</time>
      </trkpt>
      <trkpt lat="53.374095009639859" lon="10.547155039384961">
        <ele>33.780000000000001</ele>
        <time>2019-05-07T12:48:44Z</time>
      </trkpt>
      <trkpt lat="53.37409702129662" lon="10.5470269639045">
        <ele>34.259999999999998</ele>
        <time>2019-05-07T12:48:45Z</time>
      </trkpt>
      <trkpt lat="53.374100038781762" lon="10.546882962808013">
        <ele>34.259999999999998</ele>
        <time>2019-05-07T12:48:46Z</time>
      </trkpt>
      <trkpt lat="53.374103978276253" lon="10.546730998903513">
        <ele>34.740000000000002</ele>
        <time>2019-05-07T12:48:47Z</time>
      </trkpt>
      <trkpt lat="53.374114958569407" lon="10.545565998181701">
        <ele>33.780000000000001</ele>
        <time>2019-05-07T12:48:56Z</time>
      </trkpt>
      <trkpt lat="53.374114958569407" lon="10.545491985976696">
        <ele>33.780000000000001</ele>
        <time>2019-05-07T12:48:57Z</time>
      </trkpt>
      <trkpt lat="53.374049998819828" lon="10.545398024842143">
        <ele>33.780000000000001</ele>
        <time>2019-05-07T12:48:58Z</time>
      </trkpt>
      <trkpt lat="53.374002976343036" lon="10.54541596211493">
        <ele>33.299999999999997</ele>
        <time>2019-05-07T12:48:59Z</time>
      </trkpt>
      <trkpt lat="53.373944973573089" lon="10.545438006520271">
        <ele>33.299999999999997</ele>
        <time>2019-05-07T12:49:00Z</time>
      </trkpt>
      <trkpt lat="53.373880013823509" lon="10.545462984591722">
        <ele>33.299999999999997</ele>
        <time>2019-05-07T12:49:01Z</time>
      </trkpt>
      <trkpt lat="53.373814970254898" lon="10.545488968491554">
        <ele>33.299999999999997</ele>
        <time>2019-05-07T12:49:02Z</time>
      </trkpt>
      <trkpt lat="53.373745987191796" lon="10.545515036210418">
        <ele>32.82</ele>
        <time>2019-05-07T12:49:03Z</time>
      </trkpt>
      <trkpt lat="53.373288000002503" lon="10.545691978186369">
        <ele>34.259999999999998</ele>
        <time>2019-05-07T12:49:09Z</time>
      </trkpt>
      <trkpt lat="53.373211976140738" lon="10.545720979571342">
        <ele>34.259999999999998</ele>
        <time>2019-05-07T12:49:10Z</time>
      </trkpt>
      <trkpt lat="53.372841998934746" lon="10.545884007588029">
        <ele>35.710000000000001</ele>
        <time>2019-05-07T12:49:16Z</time>
      </trkpt>
      <trkpt lat="53.372736973688006" lon="10.545965982601047">
        <ele>36.189999999999998</ele>
        <time>2019-05-07T12:49:18Z</time>
      </trkpt>
      <trkpt lat="53.372590960934758" lon="10.54608098231256">
        <ele>36.670000000000002</ele>
        <time>2019-05-07T12:49:20Z</time>
      </trkpt>
      <trkpt lat="53.372560031712055" lon="10.546119036152959">
        <ele>36.670000000000002</ele>
        <time>2019-05-07T12:49:21Z</time>
      </trkpt>
      <trkpt lat="53.372504962608218" lon="10.546189025044441">
        <ele>37.149999999999999</ele>
        <time>2019-05-07T12:49:22Z</time>
      </trkpt>
      <trkpt lat="53.372449977323413" lon="10.546257002279162">
        <ele>37.149999999999999</ele>
        <time>2019-05-07T12:49:23Z</time>
      </trkpt>
      <trkpt lat="53.372397003695369" lon="10.546323973685503">
        <ele>37.149999999999999</ele>
        <time>2019-05-07T12:49:24Z</time>
      </trkpt>
      <trkpt lat="53.372253002598882" lon="10.546504016965628">
        <ele>37.149999999999999</ele>
        <time>2019-05-07T12:49:27Z</time>
      </trkpt>
      <trkpt lat="53.372211009263992" lon="10.546555984765291">
        <ele>37.149999999999999</ele>
        <time>2019-05-07T12:49:28Z</time>
      </trkpt>
      <trkpt lat="53.372178990393877" lon="10.546595966443419">
        <ele>37.149999999999999</ele>
        <time>2019-05-07T12:49:29Z</time>
      </trkpt>
      <trkpt lat="53.372117970138788" lon="10.546493036672473">
        <ele>37.149999999999999</ele>
        <time>2019-05-07T12:49:31Z</time>
      </trkpt>
      <trkpt lat="53.372102966532111" lon="10.546450037509203">
        <ele>37.149999999999999</ele>
        <time>2019-05-07T12:49:32Z</time>
      </trkpt>
      <trkpt lat="53.372087962925434" lon="10.546406032517552">
        <ele>37.149999999999999</ele>
        <time>2019-05-07T12:49:33Z</time>
      </trkpt>
      <trkpt lat="53.372074970975518" lon="10.546369990333915">
        <ele>36.670000000000002</ele>
        <time>2019-05-07T12:49:34Z</time>
      </trkpt>
      <trkpt lat="53.37205502204597" lon="10.546311987563968">
        <ele>36.670000000000002</ele>
        <time>2019-05-07T12:49:37Z</time>
      </trkpt>
      <trkpt lat="53.3720120228827" lon="10.546188019216061">
        <ele>36.189999999999998</ele>
        <time>2019-05-07T12:49:39Z</time>
      </trkpt>
      <trkpt lat="53.372059967368841" lon="10.546324979513884">
        <ele>36.189999999999998</ele>
        <time>2019-05-07T12:49:40Z</time>
      </trkpt>
      <trkpt lat="53.372072037309408" lon="10.546361021697521">
        <ele>35.710000000000001</ele>
        <time>2019-05-07T12:49:41Z</time>
      </trkpt>
      <trkpt lat="53.372085029259324" lon="10.546397985890508">
        <ele>35.229999999999997</ele>
        <time>2019-05-07T12:49:42Z</time>
      </trkpt>
      <trkpt lat="53.372097015380859" lon="10.546433022245765">
        <ele>35.229999999999997</ele>
        <time>2019-05-07T12:49:43Z</time>
      </trkpt>
      <trkpt lat="53.372111013159156" lon="10.546471998095512">
        <ele>34.740000000000002</ele>
        <time>2019-05-07T12:49:44Z</time>
      </trkpt>
      <trkpt lat="53.372126016765833" lon="10.546516003087163">
        <ele>34.740000000000002</ele>
        <time>2019-05-07T12:49:45Z</time>
      </trkpt>
      <trkpt lat="53.372140014544129" lon="10.546555984765291">
        <ele>34.740000000000002</ele>
        <time>2019-05-07T12:49:46Z</time>
      </trkpt>
      <trkpt lat="53.372165998443961" lon="10.546611975878477">
        <ele>34.740000000000002</ele>
        <time>2019-05-07T12:49:47Z</time>
      </trkpt>
      <trkpt lat="53.372197011485696" lon="10.54657400585711">
        <ele>34.740000000000002</ele>
        <time>2019-05-07T12:49:48Z</time>
      </trkpt>
      <trkpt lat="53.372240010648966" lon="10.546520026400685">
        <ele>34.259999999999998</ele>
        <time>2019-05-07T12:49:49Z</time>
      </trkpt>
      <trkpt lat="53.372296001762152" lon="10.546450037509203">
        <ele>34.259999999999998</ele>
        <time>2019-05-07T12:49:50Z</time>
      </trkpt>
      <trkpt lat="53.372359033674002" lon="10.546370996162295">
        <ele>33.780000000000001</ele>
        <time>2019-05-07T12:49:51Z</time>
      </trkpt>
      <trkpt lat="53.372424999251962" lon="10.546289021149278">
        <ele>33.780000000000001</ele>
        <time>2019-05-07T12:49:52Z</time>
      </trkpt>
      <trkpt lat="53.372491970658302" lon="10.546205034479499">
        <ele>33.299999999999997</ele>
        <time>2019-05-07T12:49:53Z</time>
      </trkpt>
      <trkpt lat="53.372782990336418" lon="10.545930024236441">
        <ele>31.859999999999999</ele>
        <time>2019-05-07T12:49:58Z</time>
      </trkpt>
      <trkpt lat="53.372908970341086" lon="10.545838996767998">
        <ele>31.859999999999999</ele>
        <time>2019-05-07T12:50:00Z</time>
      </trkpt>
      <trkpt lat="53.37297803722322" lon="10.545812007039785">
        <ele>32.340000000000003</ele>
        <time>2019-05-07T12:50:01Z</time>
      </trkpt>
      <trkpt lat="53.373926030471921" lon="10.545445969328284">
        <ele>37.149999999999999</ele>
        <time>2019-05-07T12:50:12Z</time>
      </trkpt>
      <trkpt lat="53.374100960791111" lon="10.545377992093563">
        <ele>43.399999999999999</ele>
        <time>2019-05-07T12:50:18Z</time>
      </trkpt>
      <trkpt lat="53.374114958569407" lon="10.545387966558337">
        <ele>43.880000000000003</ele>
        <time>2019-05-07T12:50:19Z</time>
      </trkpt>
      <trkpt lat="53.374110013246536" lon="10.545300040394068">
        <ele>44.840000000000003</ele>
        <time>2019-05-07T12:50:20Z</time>
      </trkpt>
      <trkpt lat="53.374102972447872" lon="10.545167019590735">
        <ele>45.32</ele>
        <time>2019-05-07T12:50:21Z</time>
      </trkpt>
      <trkpt lat="53.374094003811479" lon="10.545017989352345">
        <ele>45.799999999999997</ele>
        <time>2019-05-07T12:50:22Z</time>
      </trkpt>
      <trkpt lat="53.374085035175085" lon="10.544851021841168">
        <ele>45.799999999999997</ele>
        <time>2019-05-07T12:50:23Z</time>
      </trkpt>
      <trkpt lat="53.373983027413487" lon="10.543089983984828">
        <ele>44.840000000000003</ele>
        <time>2019-05-07T12:50:31Z</time>
      </trkpt>
      <trkpt lat="53.373932987451553" lon="10.541701018810272">
        <ele>42.920000000000002</ele>
        <time>2019-05-07T12:50:38Z</time>
      </trkpt>
      <trkpt lat="53.373922007158399" lon="10.541507983580232">
        <ele>42.439999999999998</ele>
        <time>2019-05-07T12:50:39Z</time>
      </trkpt>
      <trkpt lat="53.373675998300314" lon="10.5393320415169">
        <ele>38.109999999999999</ele>
        <time>2019-05-07T12:50:50Z</time>
      </trkpt>
      <trkpt lat="53.373376009985805" lon="10.537024000659585">
        <ele>36.189999999999998</ele>
        <time>2019-05-07T12:50:59Z</time>
      </trkpt>
      <trkpt lat="53.373253969475627" lon="10.534787038341165">
        <ele>37.630000000000003</ele>
        <time>2019-05-07T12:51:08Z</time>
      </trkpt>
      <trkpt lat="53.373319013044238" lon="10.532442033290863">
        <ele>37.149999999999999</ele>
        <time>2019-05-07T12:51:17Z</time>
      </trkpt>
      <trkpt lat="53.373605003580451" lon="10.529239978641272">
        <ele>39.07</ele>
        <time>2019-05-07T12:51:27Z</time>
      </trkpt>
      <trkpt lat="53.374199029058218" lon="10.526430029422045">
        <ele>40.030000000000001</ele>
        <time>2019-05-07T12:51:36Z</time>
      </trkpt>
      <trkpt lat="53.374757012352347" lon="10.523531986400485">
        <ele>40.990000000000002</ele>
        <time>2019-05-07T12:51:45Z</time>
      </trkpt>
      <trkpt lat="53.374950969591737" lon="10.520332027226686">
        <ele>38.109999999999999</ele>
        <time>2019-05-07T12:51:54Z</time>
      </trkpt>
      <trkpt lat="53.3754070289433" lon="10.51827703602612">
        <ele>35.710000000000001</ele>
        <time>2019-05-07T12:52:00Z</time>
      </trkpt>
      <trkpt lat="53.375647002831101" lon="10.517671024426818">
        <ele>34.740000000000002</ele>
        <time>2019-05-07T12:52:02Z</time>
      </trkpt>
      <trkpt lat="53.375776000320911" lon="10.517383022233844">
        <ele>34.259999999999998</ele>
        <time>2019-05-07T12:52:03Z</time>
      </trkpt>
      <trkpt lat="53.375935005024076" lon="10.517137013375759">
        <ele>33.780000000000001</ele>
        <time>2019-05-07T12:52:04Z</time>
      </trkpt>
      <trkpt lat="53.376103984192014" lon="10.516929980367422">
        <ele>32.82</ele>
        <time>2019-05-07T12:52:05Z</time>
      </trkpt>
      <trkpt lat="53.376273969188333" lon="10.516728982329369">
        <ele>32.340000000000003</ele>
        <time>2019-05-07T12:52:06Z</time>
      </trkpt>
      <trkpt lat="53.377389013767242" lon="10.515474965795875">
        <ele>29.460000000000001</ele>
        <time>2019-05-07T12:52:13Z</time>
      </trkpt>
      <trkpt lat="53.378326026722789" lon="10.514341983944178">
        <ele>27.530000000000001</ele>
        <time>2019-05-07T12:52:19Z</time>
      </trkpt>
      <trkpt lat="53.378484025597572" lon="10.514150038361549">
        <ele>27.050000000000001</ele>
        <time>2019-05-07T12:52:20Z</time>
      </trkpt>
      <trkpt lat="53.379552969709039" lon="10.512645989656448">
        <ele>24.649999999999999</ele>
        <time>2019-05-07T12:52:27Z</time>
      </trkpt>
      <trkpt lat="53.379679033532739" lon="10.512383971363306">
        <ele>24.649999999999999</ele>
        <time>2019-05-07T12:52:28Z</time>
      </trkpt>
      <trkpt lat="53.380647981539369" lon="10.510110966861248">
        <ele>23.690000000000001</ele>
        <time>2019-05-07T12:52:36Z</time>
      </trkpt>
      <trkpt lat="53.381290035322309" lon="10.508684031665325">
        <ele>22.25</ele>
        <time>2019-05-07T12:52:41Z</time>
      </trkpt>
      <trkpt lat="53.382446989417076" lon="10.506873037666082">
        <ele>21.289999999999999</ele>
        <time>2019-05-07T12:52:49Z</time>
      </trkpt>
      <trkpt lat="53.383043026551604" lon="10.506039038300514">
        <ele>23.210000000000001</ele>
        <time>2019-05-07T12:52:54Z</time>
      </trkpt>
      <trkpt lat="53.384261000901461" lon="10.504928017035127">
        <ele>21.77</ele>
        <time>2019-05-07T12:53:05Z</time>
      </trkpt>
      <trkpt lat="53.385744011029601" lon="10.503502003848553">
        <ele>21.77</ele>
        <time>2019-05-07T12:53:19Z</time>
      </trkpt>
      <trkpt lat="53.386133015155792" lon="10.502962041646242">
        <ele>22.73</ele>
        <time>2019-05-07T12:53:23Z</time>
      </trkpt>
      <trkpt lat="53.386228987947106" lon="10.502814017236233">
        <ele>23.210000000000001</ele>
        <time>2019-05-07T12:53:24Z</time>
      </trkpt>
      <trkpt lat="53.386941030621529" lon="10.500791966915131">
        <ele>23.210000000000001</ele>
        <time>2019-05-07T12:53:35Z</time>
      </trkpt>
      <trkpt lat="53.387228026986122" lon="10.498933028429747">
        <ele>23.210000000000001</ele>
        <time>2019-05-07T12:53:44Z</time>
      </trkpt>
      <trkpt lat="53.387445034459233" lon="10.496745016425848">
        <ele>24.170000000000002</ele>
        <time>2019-05-07T12:53:54Z</time>
      </trkpt>
      <trkpt lat="53.387662963941693" lon="10.494588017463684">
        <ele>25.609999999999999</ele>
        <time>2019-05-07T12:54:04Z</time>
      </trkpt>
      <trkpt lat="53.387820962816477" lon="10.493928026407957">
        <ele>26.09</ele>
        <time>2019-05-07T12:54:07Z</time>
      </trkpt>
      <trkpt lat="53.388538034632802" lon="10.491901030763984">
        <ele>27.050000000000001</ele>
        <time>2019-05-07T12:54:15Z</time>
      </trkpt>
      <trkpt lat="53.389377985149622" lon="10.489671025425196">
        <ele>27.050000000000001</ele>
        <time>2019-05-07T12:54:23Z</time>
      </trkpt>
      <trkpt lat="53.390448018908501" lon="10.486827967688441">
        <ele>28.98</ele>
        <time>2019-05-07T12:54:34Z</time>
      </trkpt>
      <trkpt lat="53.390542985871434" lon="10.486582964658737">
        <ele>28.98</ele>
        <time>2019-05-07T12:54:35Z</time>
      </trkpt>
      <trkpt lat="53.391452003270388" lon="10.484190015122294">
        <ele>31.379999999999999</ele>
        <time>2019-05-07T12:54:45Z</time>
      </trkpt>
      <trkpt lat="53.39154202491045" lon="10.483953980728984">
        <ele>31.859999999999999</ele>
        <time>2019-05-07T12:54:46Z</time>
      </trkpt>
      <trkpt lat="53.391631040722132" lon="10.483720041811466">
        <ele>31.859999999999999</ele>
        <time>2019-05-07T12:54:47Z</time>
      </trkpt>
      <trkpt lat="53.392666960135102" lon="10.480989972129464">
        <ele>39.07</ele>
        <time>2019-05-07T12:54:59Z</time>
      </trkpt>
      <trkpt lat="53.393889041617513" lon="10.477926973253489">
        <ele>43.880000000000003</ele>
        <time>2019-05-07T12:55:12Z</time>
      </trkpt>
      <trkpt lat="53.394577028229833" lon="10.475504016503692">
        <ele>43.399999999999999</ele>
        <time>2019-05-07T12:55:21Z</time>
      </trkpt>
      <trkpt lat="53.394771991297603" lon="10.474659036844969">
        <ele>43.399999999999999</ele>
        <time>2019-05-07T12:55:24Z</time>
      </trkpt>
      <trkpt lat="53.394836029037833" lon="10.474380003288388">
        <ele>43.880000000000003</ele>
        <time>2019-05-07T12:55:25Z</time>
      </trkpt>
      <trkpt lat="53.395393006503582" lon="10.471489001065493">
        <ele>47.719999999999999</ele>
        <time>2019-05-07T12:55:35Z</time>
      </trkpt>
      <trkpt lat="53.395747980102897" lon="10.469682030379772">
        <ele>49.159999999999997</ele>
        <time>2019-05-07T12:55:41Z</time>
      </trkpt>
      <trkpt lat="53.395848982036114" lon="10.469392016530037">
        <ele>49.159999999999997</ele>
        <time>2019-05-07T12:55:42Z</time>
      </trkpt>
      <trkpt lat="53.39607797563076" lon="10.468794973567128">
        <ele>49.649999999999999</ele>
        <time>2019-05-07T12:55:44Z</time>
      </trkpt>
      <trkpt lat="53.397009959444404" lon="10.466986997053027">
        <ele>50.130000000000003</ele>
        <time>2019-05-07T12:55:51Z</time>
      </trkpt>
      <trkpt lat="53.39794697239995" lon="10.465043988078833">
        <ele>50.609999999999999</ele>
        <time>2019-05-07T12:55:59Z</time>
      </trkpt>
      <trkpt lat="53.398945005610585" lon="10.462515000253916">
        <ele>51.57</ele>
        <time>2019-05-07T12:56:09Z</time>
      </trkpt>
      <trkpt lat="53.399692000821233" lon="10.460536032915115">
        <ele>53.009999999999998</ele>
        <time>2019-05-07T12:56:17Z</time>
      </trkpt>
      <trkpt lat="53.400371018797159" lon="10.458482969552279">
        <ele>52.530000000000001</ele>
        <time>2019-05-07T12:56:25Z</time>
      </trkpt>
      <trkpt lat="53.400424998253584" lon="10.45820401981473">
        <ele>52.049999999999997</ele>
        <time>2019-05-07T12:56:26Z</time>
      </trkpt>
      <trkpt lat="53.401096975430846" lon="10.45461799018085">
        <ele>54.450000000000003</ele>
        <time>2019-05-07T12:56:39Z</time>
      </trkpt>
      <trkpt lat="53.40144800953567" lon="10.452612033113837">
        <ele>54.450000000000003</ele>
        <time>2019-05-07T12:56:46Z</time>
      </trkpt>
      <trkpt lat="53.401522021740675" lon="10.45234196819365">
        <ele>54.450000000000003</ele>
        <time>2019-05-07T12:56:47Z</time>
      </trkpt>
      <trkpt lat="53.401845982298255" lon="10.451327003538609">
        <ele>54.450000000000003</ele>
        <time>2019-05-07T12:56:51Z</time>
      </trkpt>
      <trkpt lat="53.402856001630425" lon="10.44924602843821">
        <ele>53.009999999999998</ele>
        <time>2019-05-07T12:57:00Z</time>
      </trkpt>
      <trkpt lat="53.403125982731581" lon="10.448899017646909">
        <ele>52.049999999999997</ele>
        <time>2019-05-07T12:57:02Z</time>
      </trkpt>
      <trkpt lat="53.403270989656448" lon="10.448741018772125">
        <ele>51.57</ele>
        <time>2019-05-07T12:57:03Z</time>
      </trkpt>
      <trkpt lat="53.403420019894838" lon="10.448598023504019">
        <ele>51.090000000000003</ele>
        <time>2019-05-07T12:57:04Z</time>
      </trkpt>
      <trkpt lat="53.403581036254764" lon="10.448498027399182">
        <ele>50.130000000000003</ele>
        <time>2019-05-07T12:57:05Z</time>
      </trkpt>
      <trkpt lat="53.403744986280799" lon="10.448396019637585">
        <ele>49.649999999999999</ele>
        <time>2019-05-07T12:57:06Z</time>
      </trkpt>
      <trkpt lat="53.403909020125866" lon="10.448294011875987">
        <ele>49.649999999999999</ele>
        <time>2019-05-07T12:57:07Z</time>
      </trkpt>
      <trkpt lat="53.405453972518444" lon="10.447747008875012">
        <ele>49.159999999999997</ele>
        <time>2019-05-07T12:57:16Z</time>
      </trkpt>
      <trkpt lat="53.406369024887681" lon="10.447447020560503">
        <ele>49.649999999999999</ele>
        <time>2019-05-07T12:57:23Z</time>
      </trkpt>
      <trkpt lat="53.407350964844227" lon="10.44671100564301">
        <ele>49.649999999999999</ele>
        <time>2019-05-07T12:57:32Z</time>
      </trkpt>
      <trkpt lat="53.408479001373053" lon="10.44555296190083">
        <ele>50.130000000000003</ele>
        <time>2019-05-07T12:57:43Z</time>
      </trkpt>
      <trkpt lat="53.409707034006715" lon="10.444203978404403">
        <ele>49.649999999999999</ele>
        <time>2019-05-07T12:57:55Z</time>
      </trkpt>
      <trkpt lat="53.409806024283171" lon="10.444091996178031">
        <ele>49.649999999999999</ele>
        <time>2019-05-07T12:57:56Z</time>
      </trkpt>
      <trkpt lat="53.410393008962274" lon="10.443377019837499">
        <ele>48.68</ele>
        <time>2019-05-07T12:58:02Z</time>
      </trkpt>
      <trkpt lat="53.411240000277758" lon="10.441971039399505">
        <ele>41.950000000000003</ele>
        <time>2019-05-07T12:58:12Z</time>
      </trkpt>
      <trkpt lat="53.412136025726795" lon="10.440384009853005">
        <ele>39.07</ele>
        <time>2019-05-07T12:58:23Z</time>
      </trkpt>
      <trkpt lat="53.412992991507053" lon="10.439020022749901">
        <ele>39.07</ele>
        <time>2019-05-07T12:58:33Z</time>
      </trkpt>
      <trkpt lat="53.41304998844862" lon="10.438948022201657">
        <ele>39.07</ele>
        <time>2019-05-07T12:58:34Z</time>
      </trkpt>
      <trkpt lat="53.413087958469987" lon="10.438904017210007">
        <ele>39.549999999999997</ele>
        <time>2019-05-07T12:58:35Z</time>
      </trkpt>
      <trkpt lat="53.413169011473656" lon="10.438851965591311">
        <ele>39.549999999999997</ele>
        <time>2019-05-07T12:58:43Z</time>
      </trkpt>
      <trkpt lat="53.413150990381837" lon="10.438831010833383">
        <ele>39.549999999999997</ele>
        <time>2019-05-07T12:58:54Z</time>
      </trkpt>
      <trkpt lat="53.413161970674992" lon="10.438819024711847">
        <ele>40.030000000000001</ele>
        <time>2019-05-07T12:58:55Z</time>
      </trkpt>
      <trkpt lat="53.413174962624907" lon="10.438807038590312">
        <ele>39.549999999999997</ele>
        <time>2019-05-07T12:58:56Z</time>
      </trkpt>
      <trkpt lat="53.413189966231585" lon="10.438792034983635">
        <ele>39.549999999999997</ele>
        <time>2019-05-07T12:58:57Z</time>
      </trkpt>
      <trkpt lat="53.4132029581815" lon="10.438778959214687">
        <ele>40.030000000000001</ele>
        <time>2019-05-07T12:58:58Z</time>
      </trkpt>
      <trkpt lat="53.4132029581815" lon="10.438778959214687">
        <ele>40.030000000000001</ele>
        <time>2019-05-07T12:58:59Z</time>
      </trkpt>
      <trkpt lat="53.41328602284193" lon="10.438695978373289">
        <ele>40.509999999999998</ele>
        <time>2019-05-07T12:59:02Z</time>
      </trkpt>
      <trkpt lat="53.413355005905032" lon="10.438643004745245">
        <ele>40.509999999999998</ele>
        <time>2019-05-07T12:59:03Z</time>
      </trkpt>
      <trkpt lat="53.413442010059953" lon="10.438579972833395">
        <ele>40.509999999999998</ele>
        <time>2019-05-07T12:59:04Z</time>
      </trkpt>
      <trkpt lat="53.414290007203817" lon="10.438098013401031">
        <ele>40.990000000000002</ele>
        <time>2019-05-07T12:59:11Z</time>
      </trkpt>
      <trkpt lat="53.415694981813431" lon="10.437421007081866">
        <ele>43.399999999999999</ele>
        <time>2019-05-07T12:59:20Z</time>
      </trkpt>
      <trkpt lat="53.417422994971275" lon="10.436588013544679">
        <ele>46.759999999999998</ele>
        <time>2019-05-07T12:59:29Z</time>
      </trkpt>
      <trkpt lat="53.419000972062349" lon="10.435762982815504">
        <ele>53.009999999999998</ele>
        <time>2019-05-07T12:59:38Z</time>
      </trkpt>
      <trkpt lat="53.420013003051281" lon="10.434555988758802">
        <ele>54.450000000000003</ele>
        <time>2019-05-07T12:59:45Z</time>
      </trkpt>
      <trkpt lat="53.420129008591175" lon="10.434333030134439">
        <ele>54.450000000000003</ele>
        <time>2019-05-07T12:59:46Z</time>
      </trkpt>
      <trkpt lat="53.421056969091296" lon="10.432148035615683">
        <ele>54.450000000000003</ele>
        <time>2019-05-07T12:59:55Z</time>
      </trkpt>
      <trkpt lat="53.42134396545589" lon="10.431439010426402">
        <ele>55.890000000000001</ele>
        <time>2019-05-07T12:59:58Z</time>
      </trkpt>
      <trkpt lat="53.421394005417824" lon="10.431172968819737">
        <ele>56.369999999999997</ele>
        <time>2019-05-07T12:59:59Z</time>
      </trkpt>
      <trkpt lat="53.42149400152266" lon="10.430635018274188">
        <ele>57.340000000000003</ele>
        <time>2019-05-07T13:00:01Z</time>
      </trkpt>
      <trkpt lat="53.421544963493943" lon="10.430359002202749">
        <ele>57.82</ele>
        <time>2019-05-07T13:00:02Z</time>
      </trkpt>
      <trkpt lat="53.421938996762037" lon="10.427021998912096">
        <ele>62.619999999999997</ele>
        <time>2019-05-07T13:00:13Z</time>
      </trkpt>
      <trkpt lat="53.422433026134968" lon="10.424900036305189">
        <ele>63.579999999999998</ele>
        <time>2019-05-07T13:00:20Z</time>
      </trkpt>
      <trkpt lat="53.423531977459788" lon="10.421849023550749">
        <ele>63.579999999999998</ele>
        <time>2019-05-07T13:00:31Z</time>
      </trkpt>
      <trkpt lat="53.423845041543245" lon="10.420681005343795">
        <ele>63.579999999999998</ele>
        <time>2019-05-07T13:00:35Z</time>
      </trkpt>
      <trkpt lat="53.424129020422697" lon="10.418341029435396">
        <ele>63.579999999999998</ele>
        <time>2019-05-07T13:00:43Z</time>
      </trkpt>
      <trkpt lat="53.424368994310498" lon="10.415912037715316">
        <ele>62.619999999999997</ele>
        <time>2019-05-07T13:00:52Z</time>
      </trkpt>
      <trkpt lat="53.42445801012218" lon="10.415164958685637">
        <ele>61.659999999999997</ele>
        <time>2019-05-07T13:00:57Z</time>
      </trkpt>
      <trkpt lat="53.424463961273432" lon="10.415069991722703">
        <ele>61.659999999999997</ele>
        <time>2019-05-07T13:00:58Z</time>
      </trkpt>
      <trkpt lat="53.424469996243715" lon="10.414991034194827">
        <ele>61.18</ele>
        <time>2019-05-07T13:00:59Z</time>
      </trkpt>
      <trkpt lat="53.424432026222348" lon="10.414872011169791">
        <ele>60.700000000000003</ele>
        <time>2019-05-07T13:01:00Z</time>
      </trkpt>
      <trkpt lat="53.424378968775272" lon="10.414824988692999">
        <ele>60.219999999999999</ele>
        <time>2019-05-07T13:01:01Z</time>
      </trkpt>
      <trkpt lat="53.424318032339215" lon="10.414771009236574">
        <ele>59.740000000000002</ele>
        <time>2019-05-07T13:01:02Z</time>
      </trkpt>
      <trkpt lat="53.424089038744569" lon="10.414567999541759">
        <ele>57.82</ele>
        <time>2019-05-07T13:01:05Z</time>
      </trkpt>
      <trkpt lat="53.423874964937568" lon="10.41435400955379">
        <ele>53.009999999999998</ele>
        <time>2019-05-07T13:01:08Z</time>
      </trkpt>
      <trkpt lat="53.423816962167621" lon="10.41426801122725">
        <ele>51.090000000000003</ele>
        <time>2019-05-07T13:01:09Z</time>
      </trkpt>
      <trkpt lat="53.423754014074802" lon="10.414176983758807">
        <ele>49.649999999999999</ele>
        <time>2019-05-07T13:01:10Z</time>
      </trkpt>
      <trkpt lat="53.423571037128568" lon="10.413909014314413">
        <ele>45.32</ele>
        <time>2019-05-07T13:01:13Z</time>
      </trkpt>
      <trkpt lat="53.423509011045098" lon="10.41381698101759">
        <ele>43.399999999999999</ele>
        <time>2019-05-07T13:01:14Z</time>
      </trkpt>
      <trkpt lat="53.423438016325235" lon="10.413713967427611">
        <ele>41.950000000000003</ele>
        <time>2019-05-07T13:01:15Z</time>
      </trkpt>
      <trkpt lat="53.423296026885509" lon="10.413506012409925">
        <ele>39.07</ele>
        <time>2019-05-07T13:01:17Z</time>
      </trkpt>
      <trkpt lat="53.423229977488518" lon="10.413409033790231">
        <ele>37.630000000000003</ele>
        <time>2019-05-07T13:01:18Z</time>
      </trkpt>
      <trkpt lat="53.422665959224105" lon="10.412586014717817">
        <ele>23.690000000000001</ele>
        <time>2019-05-07T13:01:27Z</time>
      </trkpt>
      <trkpt lat="53.422556994482875" lon="10.412476966157556">
        <ele>21.289999999999999</ele>
        <time>2019-05-07T13:01:29Z</time>
      </trkpt>
      <trkpt lat="53.422410981729627" lon="10.41237898170948">
        <ele>18.399999999999999</ele>
        <time>2019-05-07T13:01:31Z</time>
      </trkpt>
      <trkpt lat="53.422320960089564" lon="10.412336988374591">
        <ele>17.920000000000002</ele>
        <time>2019-05-07T13:01:32Z</time>
      </trkpt>
      <trkpt lat="53.422027006745338" lon="10.412243027240038">
        <ele>16</ele>
        <time>2019-05-07T13:01:35Z</time>
      </trkpt>
      <trkpt lat="53.421802958473563" lon="10.412201033905149">
        <ele>14.56</ele>
        <time>2019-05-07T13:01:37Z</time>
      </trkpt>
      <trkpt lat="53.421673038974404" lon="10.412176977843046">
        <ele>14.08</ele>
        <time>2019-05-07T13:01:38Z</time>
      </trkpt>
      <trkpt lat="53.420588001608849" lon="10.411707004532218">
        <ele>11.67</ele>
        <time>2019-05-07T13:01:46Z</time>
      </trkpt>
      <trkpt lat="53.419450996443629" lon="10.410860013216734">
        <ele>10.710000000000001</ele>
        <time>2019-05-07T13:01:55Z</time>
      </trkpt>
      <trkpt lat="53.41908797621727" lon="10.410306975245476">
        <ele>10.710000000000001</ele>
        <time>2019-05-07T13:01:59Z</time>
      </trkpt>
      <trkpt lat="53.418923020362854" lon="10.410021990537643">
        <ele>10.23</ele>
        <time>2019-05-07T13:02:01Z</time>
      </trkpt>
      <trkpt lat="53.418327989056706" lon="10.408432027325034">
        <ele>7.35</ele>
        <time>2019-05-07T13:02:10Z</time>
      </trkpt>
      <trkpt lat="53.418189017102122" lon="10.408088034018874">
        <ele>5.91</ele>
        <time>2019-05-07T13:02:12Z</time>
      </trkpt>
      <trkpt lat="53.418109975755215" lon="10.407930035144091">
        <ele>4.94</ele>
        <time>2019-05-07T13:02:13Z</time>
      </trkpt>
      <trkpt lat="53.418002016842365" lon="10.407816041260958">
        <ele>4.46</ele>
        <time>2019-05-07T13:02:14Z</time>
      </trkpt>
      <trkpt lat="53.417896991595626" lon="10.407741023227572">
        <ele>3.5</ele>
        <time>2019-05-07T13:02:15Z</time>
      </trkpt>
      <trkpt lat="53.417780986055732" lon="10.407657958567142">
        <ele>2.54</ele>
        <time>2019-05-07T13:02:16Z</time>
      </trkpt>
      <trkpt lat="53.417343031615019" lon="10.407346989959478">
        <ele>0.14</ele>
        <time>2019-05-07T13:02:20Z</time>
      </trkpt>
      <trkpt lat="53.416525963693857" lon="10.406689010560513">
        <ele>-6.59</ele>
        <time>2019-05-07T13:02:28Z</time>
      </trkpt>
      <trkpt lat="53.416438037529588" lon="10.406595971435308">
        <ele>-7.07</ele>
        <time>2019-05-07T13:02:29Z</time>
      </trkpt>
      <trkpt lat="53.416363019496202" lon="10.406516008079052">
        <ele>-7.07</ele>
        <time>2019-05-07T13:02:30Z</time>
      </trkpt>
      <trkpt lat="53.41629596427083" lon="10.406444007530808">
        <ele>-7.55</ele>
        <time>2019-05-07T13:02:31Z</time>
      </trkpt>
      <trkpt lat="53.41622899286449" lon="10.406374018639326">
        <ele>-7.55</ele>
        <time>2019-05-07T13:02:32Z</time>
      </trkpt>
      <trkpt lat="53.416095972061157" lon="10.4062320291996">
        <ele>-8.51</ele>
        <time>2019-05-07T13:02:34Z</time>
      </trkpt>
      <trkpt lat="53.41603402979672" lon="10.406186012551188">
        <ele>-8.51</ele>
        <time>2019-05-07T13:02:35Z</time>
      </trkpt>
      <trkpt lat="53.415874019265175" lon="10.406119963154197">
        <ele>-8.029999999999999</ele>
        <time>2019-05-07T13:02:37Z</time>
      </trkpt>
      <trkpt lat="53.415487026795745" lon="10.405960036441684">
        <ele>-4.67</ele>
        <time>2019-05-07T13:02:42Z</time>
      </trkpt>
      <trkpt lat="53.415293991565704" lon="10.405917959287763">
        <ele>-3.71</ele>
        <time>2019-05-07T13:02:45Z</time>
      </trkpt>
      <trkpt lat="53.415235988795757" lon="10.405908990651369">
        <ele>-3.23</ele>
        <time>2019-05-07T13:02:46Z</time>
      </trkpt>
      <trkpt lat="53.415168011561036" lon="10.405899016186595">
        <ele>-2.75</ele>
        <time>2019-05-07T13:02:47Z</time>
      </trkpt>
      <trkpt lat="53.415089976042509" lon="10.405961964279413">
        <ele>-2.27</ele>
        <time>2019-05-07T13:02:48Z</time>
      </trkpt>
      <trkpt lat="53.415021998807788" lon="10.406021978706121">
        <ele>-1.79</ele>
        <time>2019-05-07T13:02:49Z</time>
      </trkpt>
      <trkpt lat="53.414953015744686" lon="10.40608299896121">
        <ele>-1.79</ele>
        <time>2019-05-07T13:02:50Z</time>
      </trkpt>
      <trkpt lat="53.414883026853204" lon="10.40614502504468">
        <ele>-1.79</ele>
        <time>2019-05-07T13:02:51Z</time>
      </trkpt>
      <trkpt lat="53.414753023535013" lon="10.406259018927813">
        <ele>-0.82</ele>
        <time>2019-05-07T13:02:53Z</time>
      </trkpt>
      <trkpt lat="53.414685968309641" lon="10.40631802752614">
        <ele>-0.82</ele>
        <time>2019-05-07T13:02:54Z</time>
      </trkpt>
      <trkpt lat="53.414626959711313" lon="10.406369995325804">
        <ele>-0.82</ele>
        <time>2019-05-07T13:02:55Z</time>
      </trkpt>
      <trkpt lat="53.414240973070264" lon="10.406478038057685">
        <ele>-2.27</ele>
        <time>2019-05-07T13:03:00Z</time>
      </trkpt>
      <trkpt lat="53.414137037470937" lon="10.406462028622627">
        <ele>-2.75</ele>
        <time>2019-05-07T13:03:02Z</time>
      </trkpt>
      <trkpt lat="53.413932016119361" lon="10.406420035287738">
        <ele>-3.71</ele>
        <time>2019-05-07T13:03:05Z</time>
      </trkpt>
      <trkpt lat="53.413760019466281" lon="10.406332025304437">
        <ele>-5.63</ele>
        <time>2019-05-07T13:03:11Z</time>
      </trkpt>
      <trkpt lat="53.413707967847586" lon="10.406305035576224">
        <ele>-5.63</ele>
        <time>2019-05-07T13:03:13Z</time>
      </trkpt>
      <trkpt lat="53.413665974512696" lon="10.406283996999264">
        <ele>-6.11</ele>
        <time>2019-05-07T13:03:14Z</time>
      </trkpt>
      <trkpt lat="53.413617024198174" lon="10.406259018927813">
        <ele>-6.59</ele>
        <time>2019-05-07T13:03:15Z</time>
      </trkpt>
      <trkpt lat="53.413562960922718" lon="10.40623102337122">
        <ele>-7.07</ele>
        <time>2019-05-07T13:03:16Z</time>
      </trkpt>
      <trkpt lat="53.413504958152771" lon="10.406202021986246">
        <ele>-7.55</ele>
        <time>2019-05-07T13:03:17Z</time>
      </trkpt>
      <trkpt lat="53.413446033373475" lon="10.406172014772892">
        <ele>-8.029999999999999</ele>
        <time>2019-05-07T13:03:18Z</time>
      </trkpt>
      <trkpt lat="53.413388030603528" lon="10.406142007559538">
        <ele>-8.51</ele>
        <time>2019-05-07T13:03:19Z</time>
      </trkpt>
      <trkpt lat="53.41332801617682" lon="10.406110994517803">
        <ele>-9.48</ele>
        <time>2019-05-07T13:03:20Z</time>
      </trkpt>
      <trkpt lat="53.413193989545107" lon="10.406043017283082">
        <ele>-10.44</ele>
        <time>2019-05-07T13:03:22Z</time>
      </trkpt>
      <trkpt lat="53.413129029795527" lon="10.406009992584586">
        <ele>-10.92</ele>
        <time>2019-05-07T13:03:23Z</time>
      </trkpt>
      <trkpt lat="53.413062980398536" lon="10.40597596205771">
        <ele>-10.92</ele>
        <time>2019-05-07T13:03:24Z</time>
      </trkpt>
      <trkpt lat="53.412539027631283" lon="10.405663987621665">
        <ele>-10.44</ele>
        <time>2019-05-07T13:03:33Z</time>
      </trkpt>
      <trkpt lat="53.412480019032955" lon="10.405601039528847">
        <ele>-10.92</ele>
        <time>2019-05-07T13:03:34Z</time>
      </trkpt>
      <trkpt lat="53.412434002384543" lon="10.405520992353559">
        <ele>-10.92</ele>
        <time>2019-05-07T13:03:35Z</time>
      </trkpt>
      <trkpt lat="53.412400977686048" lon="10.40543700568378">
        <ele>-10.44</ele>
        <time>2019-05-07T13:03:36Z</time>
      </trkpt>
      <trkpt lat="53.412383962422609" lon="10.405376991257071">
        <ele>-10.92</ele>
        <time>2019-05-07T13:03:37Z</time>
      </trkpt>
      <trkpt lat="53.412346998229623" lon="10.4052459821105">
        <ele>-10.44</ele>
        <time>2019-05-07T13:03:40Z</time>
      </trkpt>
      <trkpt lat="53.412130996584892" lon="10.40449202992022">
        <ele>-6.59</ele>
        <time>2019-05-07T13:03:47Z</time>
      </trkpt>
      <trkpt lat="53.412075005471706" lon="10.404295977205038">
        <ele>-6.11</ele>
        <time>2019-05-07T13:03:49Z</time>
      </trkpt>
      <trkpt lat="53.411851963028312" lon="10.403750985860825">
        <ele>-5.63</ele>
        <time>2019-05-07T13:03:59Z</time>
      </trkpt>
      <trkpt lat="53.411820027977228" lon="10.403558034449816">
        <ele>-5.63</ele>
        <time>2019-05-07T13:04:01Z</time>
      </trkpt>
      <trkpt lat="53.411848023533821" lon="10.403506988659501">
        <ele>-5.63</ele>
        <time>2019-05-07T13:04:02Z</time>
      </trkpt>
      <trkpt lat="53.411882976070046" lon="10.403442028909922">
        <ele>-5.63</ele>
        <time>2019-05-07T13:04:03Z</time>
      </trkpt>
      <trkpt lat="53.411925975233316" lon="10.403362987563014">
        <ele>-5.63</ele>
        <time>2019-05-07T13:04:04Z</time>
      </trkpt>
      <trkpt lat="53.411978026852012" lon="10.40326802060008">
        <ele>-5.63</ele>
        <time>2019-05-07T13:04:05Z</time>
      </trkpt>
      <trkpt lat="53.412035023793578" lon="10.403161989524961">
        <ele>-5.63</ele>
        <time>2019-05-07T13:04:06Z</time>
      </trkpt>
      <trkpt lat="53.412099983543158" lon="10.403041960671544">
        <ele>-5.63</ele>
        <time>2019-05-07T13:04:07Z</time>
      </trkpt>
      <trkpt lat="53.412254964932799" lon="10.402802992612123">
        <ele>-5.63</ele>
        <time>2019-05-07T13:04:09Z</time>
      </trkpt>
      <trkpt lat="53.412352027371526" lon="10.402682963758707">
        <ele>-5.63</ele>
        <time>2019-05-07T13:04:10Z</time>
      </trkpt>
      <trkpt lat="53.412459986284375" lon="10.402551032602787">
        <ele>-5.15</ele>
        <time>2019-05-07T13:04:11Z</time>
      </trkpt>
      <trkpt lat="53.413607971742749" lon="10.401219986379147">
        <ele>-4.67</ele>
        <time>2019-05-07T13:04:21Z</time>
      </trkpt>
      <trkpt lat="53.414728967472911" lon="10.399920037016273">
        <ele>-4.67</ele>
        <time>2019-05-07T13:04:30Z</time>
      </trkpt>
      <trkpt lat="53.416429990902543" lon="10.397946015000343">
        <ele>0.62</ele>
        <time>2019-05-07T13:04:43Z</time>
      </trkpt>
      <trkpt lat="53.418249031528831" lon="10.395696982741356">
        <ele>5.42</ele>
        <time>2019-05-07T13:04:57Z</time>
      </trkpt>
      <trkpt lat="53.419337002560496" lon="10.393883977085352">
        <ele>6.87</ele>
        <time>2019-05-07T13:05:07Z</time>
      </trkpt>
      <trkpt lat="53.419614024460316" lon="10.393305961042643">
        <ele>6.39</ele>
        <time>2019-05-07T13:05:10Z</time>
      </trkpt>
      <trkpt lat="53.419694993644953" lon="10.393101023510098">
        <ele>6.39</ele>
        <time>2019-05-07T13:05:11Z</time>
      </trkpt>
      <trkpt lat="53.419760959222913" lon="10.392886027693748">
        <ele>5.91</ele>
        <time>2019-05-07T13:05:12Z</time>
      </trkpt>
      <trkpt lat="53.420407036319375" lon="10.390448989346623">
        <ele>4.46</ele>
        <time>2019-05-07T13:05:22Z</time>
      </trkpt>
      <trkpt lat="53.421164005994797" lon="10.388524001464248">
        <ele>-5.15</ele>
        <time>2019-05-07T13:05:31Z</time>
      </trkpt>
      <trkpt lat="53.421964980661869" lon="10.38648602552712">
        <ele>-18.609999999999999</ele>
        <time>2019-05-07T13:05:40Z</time>
      </trkpt>
      <trkpt lat="53.423171974718571" lon="10.383575996384025">
        <ele>-21.489999999999998</ele>
        <time>2019-05-07T13:05:52Z</time>
      </trkpt>
      <trkpt lat="53.423422006890178" lon="10.383155979216099">
        <ele>-21.010000000000002</ele>
        <time>2019-05-07T13:05:54Z</time>
      </trkpt>
      <trkpt lat="53.425008030608296" lon="10.380893032997847">
        <ele>-18.129999999999999</ele>
        <time>2019-05-07T13:06:07Z</time>
      </trkpt>
      <trkpt lat="53.425782015547156" lon="10.379148004576564">
        <ele>-18.609999999999999</ele>
        <time>2019-05-07T13:06:16Z</time>
      </trkpt>
      <trkpt lat="53.426403030753136" lon="10.377671029418707">
        <ele>-15.24</ele>
        <time>2019-05-07T13:06:25Z</time>
      </trkpt>
      <trkpt lat="53.427115995436907" lon="10.376027002930641">
        <ele>-10.92</ele>
        <time>2019-05-07T13:06:36Z</time>
      </trkpt>
      <trkpt lat="53.427727958187461" lon="10.374594032764435">
        <ele>-11.4</ele>
        <time>2019-05-07T13:06:46Z</time>
      </trkpt>
      <trkpt lat="53.427785960957408" lon="10.374462017789483">
        <ele>-11.4</ele>
        <time>2019-05-07T13:06:47Z</time>
      </trkpt>
      <trkpt lat="53.427839018404484" lon="10.374336037784815">
        <ele>-10.92</ele>
        <time>2019-05-07T13:06:48Z</time>
      </trkpt>
      <trkpt lat="53.428097013384104" lon="10.373663976788521">
        <ele>-9</ele>
        <time>2019-05-07T13:06:56Z</time>
      </trkpt>
      <trkpt lat="53.428140012547374" lon="10.373551994562149">
        <ele>-7.55</ele>
        <time>2019-05-07T13:07:04Z</time>
      </trkpt>
      <trkpt lat="53.428223999217153" lon="10.373333981260657">
        <ele>-6.59</ele>
        <time>2019-05-07T13:07:15Z</time>
      </trkpt>
      <trkpt lat="53.428251994773746" lon="10.373260974884033">
        <ele>-6.11</ele>
        <time>2019-05-07T13:07:16Z</time>
      </trkpt>
      <trkpt lat="53.428231040015817" lon="10.372960986569524">
        <ele>-6.11</ele>
        <time>2019-05-07T13:07:17Z</time>
      </trkpt>
      <trkpt lat="53.428231040015817" lon="10.372960986569524">
        <ele>-5.63</ele>
        <time>2019-05-07T13:07:18Z</time>
      </trkpt>
      <trkpt lat="53.428225005045533" lon="10.37293198518455">
        <ele>-5.63</ele>
        <time>2019-05-07T13:07:19Z</time>
      </trkpt>
      <trkpt lat="53.428205978125334" lon="10.372834000736475">
        <ele>-5.63</ele>
        <time>2019-05-07T13:07:20Z</time>
      </trkpt>
      <trkpt lat="53.428186029195786" lon="10.372738027945161">
        <ele>-5.63</ele>
        <time>2019-05-07T13:07:21Z</time>
      </trkpt>
      <trkpt lat="53.428169013932347" lon="10.372652029618621">
        <ele>-5.63</ele>
        <time>2019-05-07T13:07:22Z</time>
      </trkpt>
      <trkpt lat="53.42815300449729" lon="10.372572988271713">
        <ele>-5.63</ele>
        <time>2019-05-07T13:07:23Z</time>
      </trkpt>
      <trkpt lat="53.4281300380826" lon="10.372421024367213">
        <ele>-5.63</ele>
        <time>2019-05-07T13:07:25Z</time>
      </trkpt>
      <trkpt lat="53.428092990070581" lon="10.371334981173277">
        <ele>-5.15</ele>
        <time>2019-05-07T13:07:38Z</time>
      </trkpt>
      <trkpt lat="53.4281300380826" lon="10.371085032820702">
        <ele>-5.15</ele>
        <time>2019-05-07T13:07:41Z</time>
      </trkpt>
      <trkpt lat="53.428144035860896" lon="10.37099601700902">
        <ele>-4.67</ele>
        <time>2019-05-07T13:07:42Z</time>
      </trkpt>
      <trkpt lat="53.428157027810812" lon="10.370908007025719">
        <ele>-4.67</ele>
        <time>2019-05-07T13:07:43Z</time>
      </trkpt>
      <trkpt lat="53.428171025589108" lon="10.370815973728895">
        <ele>-4.67</ele>
        <time>2019-05-07T13:07:44Z</time>
      </trkpt>
      <trkpt lat="53.428184017539024" lon="10.370725030079484">
        <ele>-4.67</ele>
        <time>2019-05-07T13:07:45Z</time>
      </trkpt>
      <trkpt lat="53.42819700948894" lon="10.370640037581325">
        <ele>-4.67</ele>
        <time>2019-05-07T13:07:46Z</time>
      </trkpt>
      <trkpt lat="53.428294993937016" lon="10.370340971276164">
        <ele>-4.67</ele>
        <time>2019-05-07T13:07:50Z</time>
      </trkpt>
      <trkpt lat="53.428427008911967" lon="10.370007958263159">
        <ele>-4.67</ele>
        <time>2019-05-07T13:07:55Z</time>
      </trkpt>
      <trkpt lat="53.428444024175406" lon="10.369964959099889">
        <ele>-4.67</ele>
        <time>2019-05-07T13:07:56Z</time>
      </trkpt>
      <trkpt lat="53.428492974489927" lon="10.369841996580362">
        <ele>-3.71</ele>
        <time>2019-05-07T13:08:01Z</time>
      </trkpt>
      <trkpt lat="53.428549971431494" lon="10.369804026558995">
        <ele>-3.23</ele>
        <time>2019-05-07T13:08:12Z</time>
      </trkpt>
      <trkpt lat="53.428549971431494" lon="10.369804026558995">
        <ele>-3.23</ele>
        <time>2019-05-07T13:08:44Z</time>
      </trkpt>
      <trkpt lat="53.428570004180074" lon="10.369752980768681">
        <ele>3.5</ele>
        <time>2019-05-07T13:13:13Z</time>
      </trkpt>
      <trkpt lat="53.428562041372061" lon="10.36974904127419">
        <ele>0.14</ele>
        <time>2019-05-07T13:13:38Z</time>
      </trkpt>
      <trkpt lat="53.428533039987087" lon="10.369739988818765">
        <ele>0.14</ele>
        <time>2019-05-07T13:13:40Z</time>
      </trkpt>
      <trkpt lat="53.42851803638041" lon="10.369777036830783">
        <ele>0.14</ele>
        <time>2019-05-07T13:13:41Z</time>
      </trkpt>
      <trkpt lat="53.428495991975069" lon="10.369834033772349">
        <ele>0.14</ele>
        <time>2019-05-07T13:13:42Z</time>
      </trkpt>
      <trkpt lat="53.428470008075237" lon="10.369899999350309">
        <ele>0.14</ele>
        <time>2019-05-07T13:13:43Z</time>
      </trkpt>
      <trkpt lat="53.428441006690264" lon="10.369970994070172">
        <ele>0.14</ele>
        <time>2019-05-07T13:13:44Z</time>
      </trkpt>
      <trkpt lat="53.428413011133671" lon="10.370044000446796">
        <ele>0.14</ele>
        <time>2019-05-07T13:13:45Z</time>
      </trkpt>
      <trkpt lat="53.428311003372073" lon="10.370301995426416">
        <ele>0.14</ele>
        <time>2019-05-07T13:13:48Z</time>
      </trkpt>
      <trkpt lat="53.428207989782095" lon="10.370568037033081">
        <ele>0.14</ele>
        <time>2019-05-07T13:13:51Z</time>
      </trkpt>
      <trkpt lat="53.428193992003798" lon="10.370663003996015">
        <ele>-0.34</ele>
        <time>2019-05-07T13:13:52Z</time>
      </trkpt>
      <trkpt lat="53.428179994225502" lon="10.370753025636077">
        <ele>-0.34</ele>
        <time>2019-05-07T13:13:53Z</time>
      </trkpt>
      <trkpt lat="53.428167002275586" lon="10.370839023962617">
        <ele>0.14</ele>
        <time>2019-05-07T13:13:54Z</time>
      </trkpt>
      <trkpt lat="53.42815401032567" lon="10.370926028117537">
        <ele>0.14</ele>
        <time>2019-05-07T13:13:55Z</time>
      </trkpt>
      <trkpt lat="53.428092990070581" lon="10.371334981173277">
        <ele>1.1</ele>
        <time>2019-05-07T13:13:59Z</time>
      </trkpt>
      <trkpt lat="53.428081003949046" lon="10.371416034176946">
        <ele>1.58</ele>
        <time>2019-05-07T13:14:00Z</time>
      </trkpt>
      <trkpt lat="53.428081003949046" lon="10.371526004746556">
        <ele>1.58</ele>
        <time>2019-05-07T13:14:01Z</time>
      </trkpt>
      <trkpt lat="53.428081003949046" lon="10.371629018336535">
        <ele>2.06</ele>
        <time>2019-05-07T13:14:02Z</time>
      </trkpt>
      <trkpt lat="53.428081003949046" lon="10.371711999177933">
        <ele>2.06</ele>
        <time>2019-05-07T13:14:03Z</time>
      </trkpt>
      <trkpt lat="53.428081003949046" lon="10.37179003469646">
        <ele>2.06</ele>
        <time>2019-05-07T13:14:04Z</time>
      </trkpt>
      <trkpt lat="53.428081003949046" lon="10.371874021366239">
        <ele>2.54</ele>
        <time>2019-05-07T13:14:05Z</time>
      </trkpt>
      <trkpt lat="53.428081003949046" lon="10.372050041332841">
        <ele>3.02</ele>
        <time>2019-05-07T13:14:07Z</time>
      </trkpt>
      <trkpt lat="53.42808997258544" lon="10.372126987203956">
        <ele>3.02</ele>
        <time>2019-05-07T13:14:08Z</time>
      </trkpt>
      <trkpt lat="53.428126014769077" lon="10.372391017153859">
        <ele>3.02</ele>
        <time>2019-05-07T13:14:11Z</time>
      </trkpt>
      <trkpt lat="53.428136995062232" lon="10.372471986338496">
        <ele>3.02</ele>
        <time>2019-05-07T13:14:12Z</time>
      </trkpt>
      <trkpt lat="53.428145041689277" lon="10.372532000765204">
        <ele>3.5</ele>
        <time>2019-05-07T13:14:13Z</time>
      </trkpt>
      <trkpt lat="53.428192986175418" lon="10.372771974653006">
        <ele>3.98</ele>
        <time>2019-05-07T13:14:18Z</time>
      </trkpt>
      <trkpt lat="53.428200026974082" lon="10.372807011008263">
        <ele>5.42</ele>
        <time>2019-05-07T13:14:27Z</time>
      </trkpt>
      <trkpt lat="53.428227016702294" lon="10.372940031811595">
        <ele>5.42</ele>
        <time>2019-05-07T13:14:29Z</time>
      </trkpt>
      <trkpt lat="53.428255012258887" lon="10.373002979904413">
        <ele>5.91</ele>
        <time>2019-05-07T13:14:30Z</time>
      </trkpt>
      <trkpt lat="53.428289964795113" lon="10.373064000159502">
        <ele>5.91</ele>
        <time>2019-05-07T13:14:31Z</time>
      </trkpt>
      <trkpt lat="53.428317038342357" lon="10.373111022636294">
        <ele>5.91</ele>
        <time>2019-05-07T13:14:32Z</time>
      </trkpt>
      <trkpt lat="53.428317038342357" lon="10.373111022636294">
        <ele>6.39</ele>
        <time>2019-05-07T13:14:33Z</time>
      </trkpt>
      <trkpt lat="53.428317038342357" lon="10.373111022636294">
        <ele>6.39</ele>
        <time>2019-05-07T13:14:34Z</time>
      </trkpt>
      <trkpt lat="53.428331036120653" lon="10.373084032908082">
        <ele>6.39</ele>
        <time>2019-05-07T13:14:35Z</time>
      </trkpt>
      <trkpt lat="53.428356014192104" lon="10.373036004602909">
        <ele>6.39</ele>
        <time>2019-05-07T13:14:36Z</time>
      </trkpt>
      <trkpt lat="53.428528010845184" lon="10.372705003246665">
        <ele>6.87</ele>
        <time>2019-05-07T13:14:40Z</time>
      </trkpt>
      <trkpt lat="53.429051963612437" lon="10.371486023068428">
        <ele>6.87</ele>
        <time>2019-05-07T13:14:49Z</time>
      </trkpt>
      <trkpt lat="53.429243993014097" lon="10.370928039774299">
        <ele>6.87</ele>
        <time>2019-05-07T13:14:53Z</time>
      </trkpt>
      <trkpt lat="53.429281041026115" lon="10.370821002870798">
        <ele>6.87</ele>
        <time>2019-05-07T13:14:54Z</time>
      </trkpt>
      <trkpt lat="53.429671972990036" lon="10.369752980768681">
        <ele>7.83</ele>
        <time>2019-05-07T13:15:02Z</time>
      </trkpt>
      <trkpt lat="53.429922005161643" lon="10.369112016633153">
        <ele>7.35</ele>
        <time>2019-05-07T13:15:08Z</time>
      </trkpt>
      <trkpt lat="53.429956035688519" lon="10.369002968072891">
        <ele>7.35</ele>
        <time>2019-05-07T13:15:09Z</time>
      </trkpt>
      <trkpt lat="53.430187040939927" lon="10.368300983682275">
        <ele>5.91</ele>
        <time>2019-05-07T13:15:15Z</time>
      </trkpt>
      <trkpt lat="53.430506978183985" lon="10.367290964350104">
        <ele>3.98</ele>
        <time>2019-05-07T13:15:25Z</time>
      </trkpt>
      <trkpt lat="53.430532962083817" lon="10.367191974073648">
        <ele>3.5</ele>
        <time>2019-05-07T13:15:29Z</time>
      </trkpt>
      <trkpt lat="53.430215958505869" lon="10.367015032097697">
        <ele>2.54</ele>
        <time>2019-05-07T13:15:41Z</time>
      </trkpt>
      <trkpt lat="53.430078998208046" lon="10.36755801178515">
        <ele>-0.82</ele>
        <time>2019-05-07T13:15:54Z</time>
      </trkpt>
      <trkpt lat="53.429918987676501" lon="10.368085987865925">
        <ele>-3.23</ele>
        <time>2019-05-07T13:16:08Z</time>
      </trkpt>
      <trkpt lat="53.429870037361979" lon="10.368280028924346">
        <ele>-3.23</ele>
        <time>2019-05-07T13:16:13Z</time>
      </trkpt>
      <trkpt lat="53.430075980722904" lon="10.368626033887267">
        <ele>-2.75</ele>
        <time>2019-05-07T13:16:17Z</time>
      </trkpt>
      <trkpt lat="53.430107999593019" lon="10.368531988933682">
        <ele>-2.75</ele>
        <time>2019-05-07T13:16:18Z</time>
      </trkpt>
      <trkpt lat="53.430119985714555" lon="10.368497958406806">
        <ele>-2.75</ele>
        <time>2019-05-07T13:16:19Z</time>
      </trkpt>
      <trkpt lat="53.43013197183609" lon="10.368464011698961">
        <ele>-2.75</ele>
        <time>2019-05-07T13:16:20Z</time>
      </trkpt>
      <trkpt lat="53.430140018463135" lon="10.368440039455891">
        <ele>-2.75</ele>
        <time>2019-05-07T13:16:21Z</time>
      </trkpt>
      <trkpt lat="53.429838018491864" lon="10.368491001427174">
        <ele>3.5</ele>
        <time>2019-05-07T13:20:59Z</time>
      </trkpt>
      <trkpt lat="53.429997023195028" lon="10.368310958147049">
        <ele>1.1</ele>
        <time>2019-05-07T13:21:33Z</time>
      </trkpt>
      <trkpt lat="53.43000297434628" lon="10.368291009217501">
        <ele>-0.34</ele>
        <time>2019-05-07T13:22:17Z</time>
      </trkpt>
      <trkpt lat="53.430011020973325" lon="10.368287991732359">
        <ele>0.14</ele>
        <time>2019-05-07T13:22:34Z</time>
      </trkpt>
      <trkpt lat="53.430166002362967" lon="10.368362003937364">
        <ele>0.14</ele>
        <time>2019-05-07T13:22:36Z</time>
      </trkpt>
      <trkpt lat="53.430256024003029" lon="10.36809797398746">
        <ele>-0.34</ele>
        <time>2019-05-07T13:22:41Z</time>
      </trkpt>
      <trkpt lat="53.430276978760958" lon="10.368036031723022">
        <ele>-0.34</ele>
        <time>2019-05-07T13:22:42Z</time>
      </trkpt>
      <trkpt lat="53.430361971259117" lon="10.367788011208177">
        <ele>0.14</ele>
        <time>2019-05-07T13:22:46Z</time>
      </trkpt>
      <trkpt lat="53.430379992350936" lon="10.367734031751752">
        <ele>0.14</ele>
        <time>2019-05-07T13:22:47Z</time>
      </trkpt>
      <trkpt lat="53.430399019271135" lon="10.367678040638566">
        <ele>0.62</ele>
        <time>2019-05-07T13:22:48Z</time>
      </trkpt>
      <trkpt lat="53.430418968200684" lon="10.367620037868619">
        <ele>0.62</ele>
        <time>2019-05-07T13:22:49Z</time>
      </trkpt>
      <trkpt lat="53.430441012606025" lon="10.36753797903657">
        <ele>0.62</ele>
        <time>2019-05-07T13:22:50Z</time>
      </trkpt>
      <trkpt lat="53.430454004555941" lon="10.367490034550428">
        <ele>0.62</ele>
        <time>2019-05-07T13:22:51Z</time>
      </trkpt>
      <trkpt lat="53.430463979020715" lon="10.367449969053268">
        <ele>0.62</ele>
        <time>2019-05-07T13:22:52Z</time>
      </trkpt>
      <trkpt lat="53.430474959313869" lon="10.367410993203521">
        <ele>0.14</ele>
        <time>2019-05-07T13:22:53Z</time>
      </trkpt>
      <trkpt lat="53.430486023426056" lon="10.367368999868631">
        <ele>0.14</ele>
        <time>2019-05-07T13:22:54Z</time>
      </trkpt>
      <trkpt lat="53.430497003719211" lon="10.367327006533742">
        <ele>0.14</ele>
        <time>2019-05-07T13:22:55Z</time>
      </trkpt>
      <trkpt lat="53.430506978183985" lon="10.367289036512375">
        <ele>0.62</ele>
        <time>2019-05-07T13:22:56Z</time>
      </trkpt>
      <trkpt lat="53.430515024811029" lon="10.367260035127401">
        <ele>0.62</ele>
        <time>2019-05-07T13:22:57Z</time>
      </trkpt>
      <trkpt lat="53.430361971259117" lon="10.367084015160799">
        <ele>0.62</ele>
        <time>2019-05-07T13:23:01Z</time>
      </trkpt>
      <trkpt lat="53.43051603063941" lon="10.367255005985498">
        <ele>0.14</ele>
        <time>2019-05-07T13:23:04Z</time>
      </trkpt>
      <trkpt lat="53.43051603063941" lon="10.367255005985498">
        <ele>0.62</ele>
        <time>2019-05-07T13:23:10Z</time>
      </trkpt>
      <trkpt lat="53.43051603063941" lon="10.367255005985498">
        <ele>0.62</ele>
        <time>2019-05-07T13:23:21Z</time>
      </trkpt>
      <trkpt lat="53.430466996505857" lon="10.367219969630241">
        <ele>1.1</ele>
        <time>2019-05-07T13:23:32Z</time>
      </trkpt>
      <trkpt lat="53.430466996505857" lon="10.367219969630241">
        <ele>1.1</ele>
        <time>2019-05-07T13:23:33Z</time>
      </trkpt>
      <trkpt lat="53.430520975962281" lon="10.367238996550441">
        <ele>1.1</ele>
        <time>2019-05-07T13:23:35Z</time>
      </trkpt>
      <trkpt lat="53.430534973740578" lon="10.367186022922397">
        <ele>0.62</ele>
        <time>2019-05-07T13:23:36Z</time>
      </trkpt>
      <trkpt lat="53.430561041459441" lon="10.367088038474321">
        <ele>0.62</ele>
        <time>2019-05-07T13:23:37Z</time>
      </trkpt>
      <trkpt lat="53.430592976510525" lon="10.366968009620905">
        <ele>0.62</ele>
        <time>2019-05-07T13:23:38Z</time>
      </trkpt>
      <trkpt lat="53.430746030062437" lon="10.366260996088386">
        <ele>0.14</ele>
        <time>2019-05-07T13:23:43Z</time>
      </trkpt>
      <trkpt lat="53.431116007268429" lon="10.364546980708838">
        <ele>2.06</ele>
        <time>2019-05-07T13:23:55Z</time>
      </trkpt>
      <trkpt lat="53.431360004469752" lon="10.363437971100211">
        <ele>2.54</ele>
        <time>2019-05-07T13:24:02Z</time>
      </trkpt>
      <trkpt lat="53.431874988600612" lon="10.361131019890308">
        <ele>3.5</ele>
        <time>2019-05-07T13:24:15Z</time>
      </trkpt>
      <trkpt lat="53.43234202824533" lon="10.358206992968917">
        <ele>5.91</ele>
        <time>2019-05-07T13:24:30Z</time>
      </trkpt>
      <trkpt lat="53.43260102905333" lon="10.356217967346311">
        <ele>5.91</ele>
        <time>2019-05-07T13:24:40Z</time>
      </trkpt>
      <trkpt lat="53.43277302570641" lon="10.355246001854539">
        <ele>4.94</ele>
        <time>2019-05-07T13:24:47Z</time>
      </trkpt>
      <trkpt lat="53.432799009606242" lon="10.3551409766078">
        <ele>3.5</ele>
        <time>2019-05-07T13:24:56Z</time>
      </trkpt>
      <trkpt lat="53.432899005711079" lon="10.355009967461228">
        <ele>3.02</ele>
        <time>2019-05-07T13:25:03Z</time>
      </trkpt>
      <trkpt lat="53.432979974895716" lon="10.354912988841534">
        <ele>3.02</ele>
        <time>2019-05-07T13:25:05Z</time>
      </trkpt>
      <trkpt lat="53.433020040392876" lon="10.354864038527012">
        <ele>2.54</ele>
        <time>2019-05-07T13:25:06Z</time>
      </trkpt>
      <trkpt lat="53.433055998757482" lon="10.354657005518675">
        <ele>3.02</ele>
        <time>2019-05-07T13:25:07Z</time>
      </trkpt>
      <trkpt lat="53.433034038171172" lon="10.354604031890631">
        <ele>3.02</ele>
        <time>2019-05-07T13:25:08Z</time>
      </trkpt>
      <trkpt lat="53.43300998210907" lon="10.354548040777445">
        <ele>3.02</ele>
        <time>2019-05-07T13:25:09Z</time>
      </trkpt>
      <trkpt lat="53.432980980724096" lon="10.354477968066931">
        <ele>2.54</ele>
        <time>2019-05-07T13:25:10Z</time>
      </trkpt>
      <trkpt lat="53.432943010702729" lon="10.354390041902661">
        <ele>2.54</ele>
        <time>2019-05-07T13:25:11Z</time>
      </trkpt>
      <trkpt lat="53.432905040681362" lon="10.354299014434218">
        <ele>2.54</ele>
        <time>2019-05-07T13:25:12Z</time>
      </trkpt>
      <trkpt lat="53.432864975184202" lon="10.354204969480634">
        <ele>2.06</ele>
        <time>2019-05-07T13:25:13Z</time>
      </trkpt>
      <trkpt lat="53.432812001556158" lon="10.35408603027463">
        <ele>2.06</ele>
        <time>2019-05-07T13:25:14Z</time>
      </trkpt>
      <trkpt lat="53.432416962459683" lon="10.353098977357149">
        <ele>1.58</ele>
        <time>2019-05-07T13:25:21Z</time>
      </trkpt>
      <trkpt lat="53.431652029976249" lon="10.351224029436707">
        <ele>-0.34</ele>
        <time>2019-05-07T13:25:32Z</time>
      </trkpt>
      <trkpt lat="53.431449020281434" lon="10.350725976750255">
        <ele>-1.3</ele>
        <time>2019-05-07T13:25:35Z</time>
      </trkpt>
      <trkpt lat="53.431361010298133" lon="10.35034803673625">
        <ele>-1.79</ele>
        <time>2019-05-07T13:25:37Z</time>
      </trkpt>
      <trkpt lat="53.431327985599637" lon="10.350151984021068">
        <ele>-2.27</ele>
        <time>2019-05-07T13:25:38Z</time>
      </trkpt>
      <trkpt lat="53.431295966729522" lon="10.349956015124917">
        <ele>-2.27</ele>
        <time>2019-05-07T13:25:39Z</time>
      </trkpt>
      <trkpt lat="53.431280041113496" lon="10.349762979894876">
        <ele>-2.75</ele>
        <time>2019-05-07T13:25:40Z</time>
      </trkpt>
      <trkpt lat="53.431284986436367" lon="10.349561981856823">
        <ele>-2.75</ele>
        <time>2019-05-07T13:25:41Z</time>
      </trkpt>
      <trkpt lat="53.431291021406651" lon="10.349353021010756">
        <ele>-3.23</ele>
        <time>2019-05-07T13:25:42Z</time>
      </trkpt>
      <trkpt lat="53.431295966729522" lon="10.349143976345658">
        <ele>-3.23</ele>
        <time>2019-05-07T13:25:43Z</time>
      </trkpt>
      <trkpt lat="53.431309964507818" lon="10.348934009671211">
        <ele>-3.71</ele>
        <time>2019-05-07T13:25:44Z</time>
      </trkpt>
      <trkpt lat="53.431331003084779" lon="10.348724965006113">
        <ele>-3.71</ele>
        <time>2019-05-07T13:25:45Z</time>
      </trkpt>
      <trkpt lat="53.431671978905797" lon="10.346420025452971">
        <ele>-2.27</ele>
        <time>2019-05-07T13:25:56Z</time>
      </trkpt>
      <trkpt lat="53.432016978040338" lon="10.344284987077117">
        <ele>-0.34</ele>
        <time>2019-05-07T13:26:06Z</time>
      </trkpt>
      <trkpt lat="53.432426014915109" lon="10.341723980382085">
        <ele>1.1</ele>
        <time>2019-05-07T13:26:19Z</time>
      </trkpt>
      <trkpt lat="53.432908980175853" lon="10.338821997866035">
        <ele>3.98</ele>
        <time>2019-05-07T13:26:34Z</time>
      </trkpt>
      <trkpt lat="53.433431005105376" lon="10.336328968405724">
        <ele>3.02</ele>
        <time>2019-05-07T13:26:47Z</time>
      </trkpt>
      <trkpt lat="53.433560002595186" lon="10.335780959576368">
        <ele>3.02</ele>
        <time>2019-05-07T13:26:50Z</time>
      </trkpt>
      <trkpt lat="53.433598978444934" lon="10.335612986236811">
        <ele>3.02</ele>
        <time>2019-05-07T13:26:51Z</time>
      </trkpt>
      <trkpt lat="53.433634014800191" lon="10.335465967655182">
        <ele>3.02</ele>
        <time>2019-05-07T13:26:52Z</time>
      </trkpt>
      <trkpt lat="53.43388999812305" lon="10.335321966558695">
        <ele>3.02</ele>
        <time>2019-05-07T13:26:53Z</time>
      </trkpt>
      <trkpt lat="53.433983959257603" lon="10.33539698459208">
        <ele>3.02</ele>
        <time>2019-05-07T13:26:54Z</time>
      </trkpt>
      <trkpt lat="53.434086972847581" lon="10.335478959605098">
        <ele>3.02</ele>
        <time>2019-05-07T13:26:55Z</time>
      </trkpt>
      <trkpt lat="53.434194009751081" lon="10.335563030093908">
        <ele>3.02</ele>
        <time>2019-05-07T13:26:56Z</time>
      </trkpt>
      <trkpt lat="53.43430096283555" lon="10.335648022592068">
        <ele>3.5</ele>
        <time>2019-05-07T13:26:57Z</time>
      </trkpt>
      <trkpt lat="53.434403976425529" lon="10.33573997206986">
        <ele>3.5</ele>
        <time>2019-05-07T13:26:58Z</time>
      </trkpt>
      <trkpt lat="53.434913009405136" lon="10.336298039183021">
        <ele>5.91</ele>
        <time>2019-05-07T13:27:03Z</time>
      </trkpt>
      <trkpt lat="53.434982998296618" lon="10.336432987824082">
        <ele>5.91</ele>
        <time>2019-05-07T13:27:04Z</time>
      </trkpt>
      <trkpt lat="53.435053993016481" lon="10.336608001962304">
        <ele>5.91</ele>
        <time>2019-05-07T13:27:05Z</time>
      </trkpt>
      <trkpt lat="53.435053993016481" lon="10.336804976686835">
        <ele>6.39</ele>
        <time>2019-05-07T13:27:06Z</time>
      </trkpt>
      <trkpt lat="53.435017028823495" lon="10.336906984448433">
        <ele>6.87</ele>
        <time>2019-05-07T13:27:07Z</time>
      </trkpt>
      <trkpt lat="53.434947039932013" lon="10.337056014686823">
        <ele>7.35</ele>
        <time>2019-05-07T13:27:08Z</time>
      </trkpt>
      <trkpt lat="53.434874033555388" lon="10.337107982486486">
        <ele>7.83</ele>
        <time>2019-05-07T13:27:09Z</time>
      </trkpt>
      <trkpt lat="53.434774959459901" lon="10.337143018841743">
        <ele>8.310000000000001</ele>
        <time>2019-05-07T13:27:10Z</time>
      </trkpt>
      <trkpt lat="53.434688961133361" lon="10.337133966386318">
        <ele>8.789999999999999</ele>
        <time>2019-05-07T13:27:11Z</time>
      </trkpt>
      <trkpt lat="53.434593994170427" lon="10.337122986093163">
        <ele>9.27</ele>
        <time>2019-05-07T13:27:12Z</time>
      </trkpt>
      <trkpt lat="53.434495003893971" lon="10.337112005800009">
        <ele>9.75</ele>
        <time>2019-05-07T13:27:13Z</time>
      </trkpt>
      <trkpt lat="53.434179006144404" lon="10.336993988603354">
        <ele>10.23</ele>
        <time>2019-05-07T13:27:16Z</time>
      </trkpt>
      <trkpt lat="53.433033032342792" lon="10.336485961452127">
        <ele>9.75</ele>
        <time>2019-05-07T13:27:27Z</time>
      </trkpt>
      <trkpt lat="53.431525966152549" lon="10.335806021466851">
        <ele>11.19</ele>
        <time>2019-05-07T13:27:40Z</time>
      </trkpt>
      <trkpt lat="53.429995011538267" lon="10.335238985717297">
        <ele>11.67</ele>
        <time>2019-05-07T13:27:51Z</time>
      </trkpt>
      <trkpt lat="53.428243026137352" lon="10.335197998210788">
        <ele>13.6</ele>
        <time>2019-05-07T13:28:03Z</time>
      </trkpt>
      <trkpt lat="53.426664965227246" lon="10.335720023140311">
        <ele>12.630000000000001</ele>
        <time>2019-05-07T13:28:14Z</time>
      </trkpt>
      <trkpt lat="53.424822958186269" lon="10.336380014196038">
        <ele>12.630000000000001</ele>
        <time>2019-05-07T13:28:28Z</time>
      </trkpt>
      <trkpt lat="53.423181027173996" lon="10.336977979168296">
        <ele>16</ele>
        <time>2019-05-07T13:28:40Z</time>
      </trkpt>
      <trkpt lat="53.421748979017138" lon="10.337504027411342">
        <ele>16</ele>
        <time>2019-05-07T13:28:51Z</time>
      </trkpt>
      <trkpt lat="53.420069999992847" lon="10.338052036240697">
        <ele>13.119999999999999</ele>
        <time>2019-05-07T13:29:02Z</time>
      </trkpt>
      <trkpt lat="53.418863005936146" lon="10.337880961596966">
        <ele>10.23</ele>
        <time>2019-05-07T13:29:10Z</time>
      </trkpt>
      <trkpt lat="53.417704040184617" lon="10.337006980553269">
        <ele>7.83</ele>
        <time>2019-05-07T13:29:18Z</time>
      </trkpt>
      <trkpt lat="53.415808975696564" lon="10.335153993219137">
        <ele>4.94</ele>
        <time>2019-05-07T13:29:29Z</time>
      </trkpt>
      <trkpt lat="53.413538988679647" lon="10.333265969529748">
        <ele>3.02</ele>
        <time>2019-05-07T13:29:39Z</time>
      </trkpt>
      <trkpt lat="53.411261960864067" lon="10.332359969615936">
        <ele>3.98</ele>
        <time>2019-05-07T13:29:48Z</time>
      </trkpt>
      <trkpt lat="53.408476989716291" lon="10.331987980753183">
        <ele>4.46</ele>
        <time>2019-05-07T13:29:59Z</time>
      </trkpt>
      <trkpt lat="53.406614027917385" lon="10.331882033497095">
        <ele>4.94</ele>
        <time>2019-05-07T13:30:07Z</time>
      </trkpt>
      <trkpt lat="53.404168020933867" lon="10.331832999363542">
        <ele>1.58</ele>
        <time>2019-05-07T13:30:18Z</time>
      </trkpt>
      <trkpt lat="53.401080965995789" lon="10.331963002681732">
        <ele>-0.34</ele>
        <time>2019-05-07T13:30:32Z</time>
      </trkpt>
      <trkpt lat="53.398364977911115" lon="10.332215968519449">
        <ele>-2.75</ele>
        <time>2019-05-07T13:30:44Z</time>
      </trkpt>
      <trkpt lat="53.395608002319932" lon="10.332861039787531">
        <ele>-2.75</ele>
        <time>2019-05-07T13:30:55Z</time>
      </trkpt>
      <trkpt lat="53.393167024478316" lon="10.33417196944356">
        <ele>-1.3</ele>
        <time>2019-05-07T13:31:05Z</time>
      </trkpt>
      <trkpt lat="53.391098035499454" lon="10.336017999798059">
        <ele>-2.27</ele>
        <time>2019-05-07T13:31:14Z</time>
      </trkpt>
      <trkpt lat="53.390019033104181" lon="10.337319960817695">
        <ele>-1.79</ele>
        <time>2019-05-07T13:31:20Z</time>
      </trkpt>
      <trkpt lat="53.388969032093883" lon="10.338742034509778">
        <ele>-0.82</ele>
        <time>2019-05-07T13:31:28Z</time>
      </trkpt>
      <trkpt lat="53.387584006413817" lon="10.340793002396822">
        <ele>2.54</ele>
        <time>2019-05-07T13:31:39Z</time>
      </trkpt>
      <trkpt lat="53.385971998795867" lon="10.343116968870163">
        <ele>6.39</ele>
        <time>2019-05-07T13:31:51Z</time>
      </trkpt>
      <trkpt lat="53.384170979261398" lon="10.345157962292433">
        <ele>10.710000000000001</ele>
        <time>2019-05-07T13:32:04Z</time>
      </trkpt>
      <trkpt lat="53.382541034370661" lon="10.346488002687693">
        <ele>8.789999999999999</ele>
        <time>2019-05-07T13:32:14Z</time>
      </trkpt>
      <trkpt lat="53.380351010710001" lon="10.347643028944731">
        <ele>6.39</ele>
        <time>2019-05-07T13:32:26Z</time>
      </trkpt>
      <trkpt lat="53.377963006496429" lon="10.348134962841868">
        <ele>3.98</ele>
        <time>2019-05-07T13:32:38Z</time>
      </trkpt>
      <trkpt lat="53.375943973660469" lon="10.348039995878935">
        <ele>4.94</ele>
        <time>2019-05-07T13:32:49Z</time>
      </trkpt>
      <trkpt lat="53.374141026288271" lon="10.347712012007833">
        <ele>5.42</ele>
        <time>2019-05-07T13:33:00Z</time>
      </trkpt>
      <trkpt lat="53.372651981189847" lon="10.347371958196163">
        <ele>3.5</ele>
        <time>2019-05-07T13:33:07Z</time>
      </trkpt>
      <trkpt lat="53.370916005223989" lon="10.346966022625566">
        <ele>4.46</ele>
        <time>2019-05-07T13:33:15Z</time>
      </trkpt>
      <trkpt lat="53.369100987911224" lon="10.346485991030931">
        <ele>4.94</ele>
        <time>2019-05-07T13:33:24Z</time>
      </trkpt>
      <trkpt lat="53.367274990305305" lon="10.345994979143143">
        <ele>3.98</ele>
        <time>2019-05-07T13:33:32Z</time>
      </trkpt>
      <trkpt lat="53.365643033757806" lon="10.345556018874049">
        <ele>4.94</ele>
        <time>2019-05-07T13:33:38Z</time>
      </trkpt>
      <trkpt lat="53.363562980666757" lon="10.344997029751539">
        <ele>7.83</ele>
        <time>2019-05-07T13:33:47Z</time>
      </trkpt>
      <trkpt lat="53.361703036352992" lon="10.344429994001985">
        <ele>8.789999999999999</ele>
        <time>2019-05-07T13:33:56Z</time>
      </trkpt>
      <trkpt lat="53.360170992091298" lon="10.343939987942576">
        <ele>10.23</ele>
        <time>2019-05-07T13:34:03Z</time>
      </trkpt>
      <trkpt lat="53.358381036669016" lon="10.343295000493526">
        <ele>10.710000000000001</ele>
        <time>2019-05-07T13:34:10Z</time>
      </trkpt>
      <trkpt lat="53.356915041804314" lon="10.342627968639135">
        <ele>12.630000000000001</ele>
        <time>2019-05-07T13:34:17Z</time>
      </trkpt>
      <trkpt lat="53.355346033349633" lon="10.341590959578753">
        <ele>12.630000000000001</ele>
        <time>2019-05-07T13:34:25Z</time>
      </trkpt>
      <trkpt lat="53.353829998522997" lon="10.340572977438569">
        <ele>10.23</ele>
        <time>2019-05-07T13:34:32Z</time>
      </trkpt>
      <trkpt lat="53.352216985076666" lon="10.339508978649974">
        <ele>7.83</ele>
        <time>2019-05-07T13:34:39Z</time>
      </trkpt>
      <trkpt lat="53.350390987470746" lon="10.338398041203618">
        <ele>5.91</ele>
        <time>2019-05-07T13:34:48Z</time>
      </trkpt>
      <trkpt lat="53.348243962973356" lon="10.337285008281469">
        <ele>4.94</ele>
        <time>2019-05-07T13:34:56Z</time>
      </trkpt>
      <trkpt lat="53.346293997019529" lon="10.336460983380675">
        <ele>4.46</ele>
        <time>2019-05-07T13:35:03Z</time>
      </trkpt>
      <trkpt lat="53.34339695982635" lon="10.335506033152342">
        <ele>3.5</ele>
        <time>2019-05-07T13:35:14Z</time>
      </trkpt>
      <trkpt lat="53.340553985908628" lon="10.334883006289601">
        <ele>4.46</ele>
        <time>2019-05-07T13:35:25Z</time>
      </trkpt>
      <trkpt lat="53.336922023445368" lon="10.334549993276596">
        <ele>7.35</ele>
        <time>2019-05-07T13:35:39Z</time>
      </trkpt>
      <trkpt lat="53.33518898114562" lon="10.334563991054893">
        <ele>9.75</ele>
        <time>2019-05-07T13:35:47Z</time>
      </trkpt>
      <trkpt lat="53.333735978230834" lon="10.334652001038194">
        <ele>9.75</ele>
        <time>2019-05-07T13:35:55Z</time>
      </trkpt>
      <trkpt lat="53.333449987694621" lon="10.334587041288614">
        <ele>9.27</ele>
        <time>2019-05-07T13:35:57Z</time>
      </trkpt>
      <trkpt lat="53.33334001712501" lon="10.334520991891623">
        <ele>8.310000000000001</ele>
        <time>2019-05-07T13:35:58Z</time>
      </trkpt>
      <trkpt lat="53.333243038505316" lon="10.334414038807154">
        <ele>7.83</ele>
        <time>2019-05-07T13:35:59Z</time>
      </trkpt>
      <trkpt lat="53.333152011036873" lon="10.334314964711666">
        <ele>6.87</ele>
        <time>2019-05-07T13:36:00Z</time>
      </trkpt>
      <trkpt lat="53.3331039827317" lon="10.334123019129038">
        <ele>6.39</ele>
        <time>2019-05-07T13:36:01Z</time>
      </trkpt>
      <trkpt lat="53.333057966083288" lon="10.333938030526042">
        <ele>6.39</ele>
        <time>2019-05-07T13:36:02Z</time>
      </trkpt>
      <trkpt lat="53.333056038245559" lon="10.33374298363924">
        <ele>5.42</ele>
        <time>2019-05-07T13:36:03Z</time>
      </trkpt>
      <trkpt lat="53.333072969689965" lon="10.333528993651271">
        <ele>4.94</ele>
        <time>2019-05-07T13:36:04Z</time>
      </trkpt>
      <trkpt lat="53.333122003823519" lon="10.333301005885005">
        <ele>4.46</ele>
        <time>2019-05-07T13:36:05Z</time>
      </trkpt>
      <trkpt lat="53.333215964958072" lon="10.333164967596531">
        <ele>3.5</ele>
        <time>2019-05-07T13:36:06Z</time>
      </trkpt>
      <trkpt lat="53.333321996033192" lon="10.333048040047288">
        <ele>3.02</ele>
        <time>2019-05-07T13:36:07Z</time>
      </trkpt>
      <trkpt lat="53.333473959937692" lon="10.332963969558477">
        <ele>2.54</ele>
        <time>2019-05-07T13:36:08Z</time>
      </trkpt>
      <trkpt lat="53.333590971305966" lon="10.332961035892367">
        <ele>2.06</ele>
        <time>2019-05-07T13:36:09Z</time>
      </trkpt>
      <trkpt lat="53.333738995715976" lon="10.332957012578845">
        <ele>1.58</ele>
        <time>2019-05-07T13:36:10Z</time>
      </trkpt>
      <trkpt lat="53.335159979760647" lon="10.332921976223588">
        <ele>-0.82</ele>
        <time>2019-05-07T13:36:18Z</time>
      </trkpt>
      <trkpt lat="53.335432978346944" lon="10.332920970395207">
        <ele>-0.82</ele>
        <time>2019-05-07T13:36:20Z</time>
      </trkpt>
      <trkpt lat="53.33552903495729" lon="10.332920970395207">
        <ele>-1.3</ele>
        <time>2019-05-07T13:36:21Z</time>
      </trkpt>
      <trkpt lat="53.33559600636363" lon="10.332920970395207">
        <ele>-1.3</ele>
        <time>2019-05-07T13:36:22Z</time>
      </trkpt>
      <trkpt lat="53.335727015510201" lon="10.333130015060306">
        <ele>-1.3</ele>
        <time>2019-05-07T13:36:23Z</time>
      </trkpt>
      <trkpt lat="53.335727015510201" lon="10.333260018378496">
        <ele>-1.3</ele>
        <time>2019-05-07T13:36:24Z</time>
      </trkpt>
      <trkpt lat="53.335727015510201" lon="10.333425980061293">
        <ele>-1.3</ele>
        <time>2019-05-07T13:36:25Z</time>
      </trkpt>
      <trkpt lat="53.335727015510201" lon="10.333620021119714">
        <ele>-1.3</ele>
        <time>2019-05-07T13:36:26Z</time>
      </trkpt>
      <trkpt lat="53.335740007460117" lon="10.33520202152431">
        <ele>-2.75</ele>
        <time>2019-05-07T13:36:32Z</time>
      </trkpt>
      <trkpt lat="53.335633976384997" lon="10.337829999625683">
        <ele>-11.4</ele>
        <time>2019-05-07T13:36:41Z</time>
      </trkpt>
      <trkpt lat="53.335150005295873" lon="10.340657969936728">
        <ele>-13.800000000000001</ele>
        <time>2019-05-07T13:36:51Z</time>
      </trkpt>
      <trkpt lat="53.334334027022123" lon="10.343070030212402">
        <ele>-15.24</ele>
        <time>2019-05-07T13:37:00Z</time>
      </trkpt>
      <trkpt lat="53.332806006073952" lon="10.345702031627297">
        <ele>-15.24</ele>
        <time>2019-05-07T13:37:12Z</time>
      </trkpt>
      <trkpt lat="53.331403965130448" lon="10.347324013710022">
        <ele>-16.210000000000001</ele>
        <time>2019-05-07T13:37:22Z</time>
      </trkpt>
      <trkpt lat="53.33005397580564" lon="10.348827978596091">
        <ele>-14.279999999999999</ele>
        <time>2019-05-07T13:37:32Z</time>
      </trkpt>
      <trkpt lat="53.328801970928907" lon="10.350213004276156">
        <ele>-13.32</ele>
        <time>2019-05-07T13:37:41Z</time>
      </trkpt>
      <trkpt lat="53.32678503356874" lon="10.352462036535144">
        <ele>-11.880000000000001</ele>
        <time>2019-05-07T13:37:56Z</time>
      </trkpt>
      <trkpt lat="53.325232034549117" lon="10.354131041094661">
        <ele>-9.48</ele>
        <time>2019-05-07T13:38:07Z</time>
      </trkpt>
      <trkpt lat="53.323914986103773" lon="10.355480024591088">
        <ele>-6.11</ele>
        <time>2019-05-07T13:38:15Z</time>
      </trkpt>
      <trkpt lat="53.322412027046084" lon="10.357054984197021">
        <ele>-3.71</ele>
        <time>2019-05-07T13:38:22Z</time>
      </trkpt>
      <trkpt lat="53.320756014436483" lon="10.358784003183246">
        <ele>-1.79</ele>
        <time>2019-05-07T13:38:30Z</time>
      </trkpt>
      <trkpt lat="53.319262024015188" lon="10.360348988324404">
        <ele>-0.82</ele>
        <time>2019-05-07T13:38:37Z</time>
      </trkpt>
      <trkpt lat="53.318102974444628" lon="10.36156302317977">
        <ele>-1.3</ele>
        <time>2019-05-07T13:38:43Z</time>
      </trkpt>
      <trkpt lat="53.31681702286005" lon="10.362901026383042">
        <ele>-3.71</ele>
        <time>2019-05-07T13:38:50Z</time>
      </trkpt>
      <trkpt lat="53.315597958862782" lon="10.364187983796">
        <ele>-4.19</ele>
        <time>2019-05-07T13:38:56Z</time>
      </trkpt>
      <trkpt lat="53.314380990341306" lon="10.365450968965888">
        <ele>-3.23</ele>
        <time>2019-05-07T13:39:03Z</time>
      </trkpt>
      <trkpt lat="53.31237000413239" lon="10.367561029270291">
        <ele>-2.75</ele>
        <time>2019-05-07T13:39:16Z</time>
      </trkpt>
      <trkpt lat="53.310513999313116" lon="10.369485011324286">
        <ele>-0.34</ele>
        <time>2019-05-07T13:39:28Z</time>
      </trkpt>
      <trkpt lat="53.308365968987346" lon="10.37172800861299">
        <ele>2.54</ele>
        <time>2019-05-07T13:39:41Z</time>
      </trkpt>
      <trkpt lat="53.305789036676288" lon="10.374427987262607">
        <ele>3.5</ele>
        <time>2019-05-07T13:39:53Z</time>
      </trkpt>
      <trkpt lat="53.304125983268023" lon="10.376171004027128">
        <ele>4.46</ele>
        <time>2019-05-07T13:40:02Z</time>
      </trkpt>
      <trkpt lat="53.302823016420007" lon="10.377531973645091">
        <ele>3.98</ele>
        <time>2019-05-07T13:40:11Z</time>
      </trkpt>
      <trkpt lat="53.302741963416338" lon="10.377617971971631">
        <ele>3.5</ele>
        <time>2019-05-07T13:40:12Z</time>
      </trkpt>
      <trkpt lat="53.302675997838378" lon="10.377816958352923">
        <ele>3.5</ele>
        <time>2019-05-07T13:40:13Z</time>
      </trkpt>
      <trkpt lat="53.302668035030365" lon="10.377986021339893">
        <ele>3.5</ele>
        <time>2019-05-07T13:40:14Z</time>
      </trkpt>
      <trkpt lat="53.30265898257494" lon="10.378161035478115">
        <ele>3.02</ele>
        <time>2019-05-07T13:40:15Z</time>
      </trkpt>
      <trkpt lat="53.302395958453417" lon="10.379195027053356">
        <ele>2.06</ele>
        <time>2019-05-07T13:40:23Z</time>
      </trkpt>
      <trkpt lat="53.302167970687151" lon="10.380090968683362">
        <ele>0.14</ele>
        <time>2019-05-07T13:40:33Z</time>
      </trkpt>
      <trkpt lat="53.302067974582314" lon="10.380485001951456">
        <ele>-1.3</ele>
        <time>2019-05-07T13:40:43Z</time>
      </trkpt>
      <trkpt lat="53.302010977640748" lon="10.38075196556747">
        <ele>3.02</ele>
        <time>2019-05-07T13:41:26Z</time>
      </trkpt>
      <trkpt lat="53.301935037598014" lon="10.381048014387488">
        <ele>3.02</ele>
        <time>2019-05-07T13:41:29Z</time>
      </trkpt>
      <trkpt lat="53.301906958222389" lon="10.381157984957099">
        <ele>3.02</ele>
        <time>2019-05-07T13:41:30Z</time>
      </trkpt>
      <trkpt lat="53.301529018208385" lon="10.382636971771717">
        <ele>1.58</ele>
        <time>2019-05-07T13:41:42Z</time>
      </trkpt>
      <trkpt lat="53.30130597576499" lon="10.383510030806065">
        <ele>0.62</ele>
        <time>2019-05-07T13:41:48Z</time>
      </trkpt>
      <trkpt lat="53.301193993538618" lon="10.384121993556619">
        <ele>0.62</ele>
        <time>2019-05-07T13:41:52Z</time>
      </trkpt>
      <trkpt lat="53.301183013245463" lon="10.38427303545177">
        <ele>0.62</ele>
        <time>2019-05-07T13:41:53Z</time>
      </trkpt>
      <trkpt lat="53.301296001300216" lon="10.385777000337839">
        <ele>1.58</ele>
        <time>2019-05-07T13:42:03Z</time>
      </trkpt>
      <trkpt lat="53.30134604126215" lon="10.386177990585566">
        <ele>1.58</ele>
        <time>2019-05-07T13:42:06Z</time>
      </trkpt>
      <trkpt lat="53.301372025161982" lon="10.38638100028038">
        <ele>2.06</ele>
        <time>2019-05-07T13:42:08Z</time>
      </trkpt>
      <trkpt lat="53.301380993798375" lon="10.386451995000243">
        <ele>2.06</ele>
        <time>2019-05-07T13:42:09Z</time>
      </trkpt>
      <trkpt lat="53.301388034597039" lon="10.38650999777019">
        <ele>2.06</ele>
        <time>2019-05-07T13:42:10Z</time>
      </trkpt>
      <trkpt lat="53.301313016563654" lon="10.386564983054996">
        <ele>2.54</ele>
        <time>2019-05-07T13:42:11Z</time>
      </trkpt>
      <trkpt lat="53.301271023228765" lon="10.386564983054996">
        <ele>2.54</ele>
        <time>2019-05-07T13:42:12Z</time>
      </trkpt>
      <trkpt lat="53.301217965781689" lon="10.386564983054996">
        <ele>3.02</ele>
        <time>2019-05-07T13:42:13Z</time>
      </trkpt>
      <trkpt lat="53.301157029345632" lon="10.386564983054996">
        <ele>3.02</ele>
        <time>2019-05-07T13:42:14Z</time>
      </trkpt>
      <trkpt lat="53.301089974120259" lon="10.386564983054996">
        <ele>3.02</ele>
        <time>2019-05-07T13:42:15Z</time>
      </trkpt>
      <trkpt lat="53.301014034077525" lon="10.386564983054996">
        <ele>3.02</ele>
        <time>2019-05-07T13:42:16Z</time>
      </trkpt>
      <trkpt lat="53.299967972561717" lon="10.386359039694071">
        <ele>4.46</ele>
        <time>2019-05-07T13:42:27Z</time>
      </trkpt>
      <trkpt lat="53.298702975735068" lon="10.386110013350844">
        <ele>3.5</ele>
        <time>2019-05-07T13:42:39Z</time>
      </trkpt>
      <trkpt lat="53.297591032460332" lon="10.386077994480729">
        <ele>2.06</ele>
        <time>2019-05-07T13:42:50Z</time>
      </trkpt>
      <trkpt lat="53.297363966703415" lon="10.386071037501097">
        <ele>2.06</ele>
        <time>2019-05-07T13:42:55Z</time>
      </trkpt>
      <trkpt lat="53.297361033037305" lon="10.386071037501097">
        <ele>1.58</ele>
        <time>2019-05-07T13:42:56Z</time>
      </trkpt>
      <trkpt lat="53.297175960615277" lon="10.386073971167207">
        <ele>1.58</ele>
        <time>2019-05-07T13:42:58Z</time>
      </trkpt>
      <trkpt lat="53.297100020572543" lon="10.38607900030911">
        <ele>1.58</ele>
        <time>2019-05-07T13:42:59Z</time>
      </trkpt>
      <trkpt lat="53.297027014195919" lon="10.386083023622632">
        <ele>1.58</ele>
        <time>2019-05-07T13:43:00Z</time>
      </trkpt>
      <trkpt lat="53.296959036961198" lon="10.386087968945503">
        <ele>1.58</ele>
        <time>2019-05-07T13:43:01Z</time>
      </trkpt>
      <trkpt lat="53.296887958422303" lon="10.386092998087406">
        <ele>1.58</ele>
        <time>2019-05-07T13:43:02Z</time>
      </trkpt>
      <trkpt lat="53.296825010329485" lon="10.38614203222096">
        <ele>1.1</ele>
        <time>2019-05-07T13:43:03Z</time>
      </trkpt>
      <trkpt lat="53.29623500816524" lon="10.386598007753491">
        <ele>1.58</ele>
        <time>2019-05-07T13:43:10Z</time>
      </trkpt>
      <trkpt lat="53.295297995209694" lon="10.387339973822236">
        <ele>0.62</ele>
        <time>2019-05-07T13:43:20Z</time>
      </trkpt>
      <trkpt lat="53.294377997517586" lon="10.388130974024534">
        <ele>-0.82</ele>
        <time>2019-05-07T13:43:30Z</time>
      </trkpt>
      <trkpt lat="53.293635025620461" lon="10.3889150172472">
        <ele>0.14</ele>
        <time>2019-05-07T13:43:40Z</time>
      </trkpt>
      <trkpt lat="53.293568976223469" lon="10.388947036117315">
        <ele>0.62</ele>
        <time>2019-05-07T13:43:41Z</time>
      </trkpt>
      <trkpt lat="53.293497981503606" lon="10.388947036117315">
        <ele>0.62</ele>
        <time>2019-05-07T13:43:42Z</time>
      </trkpt>
      <trkpt lat="53.293422963470221" lon="10.388947036117315">
        <ele>1.1</ele>
        <time>2019-05-07T13:43:43Z</time>
      </trkpt>
      <trkpt lat="53.293340988457203" lon="10.388947036117315">
        <ele>1.1</ele>
        <time>2019-05-07T13:43:44Z</time>
      </trkpt>
      <trkpt lat="53.293255995959044" lon="10.388941001147032">
        <ele>1.1</ele>
        <time>2019-05-07T13:43:45Z</time>
      </trkpt>
      <trkpt lat="53.292985009029508" lon="10.388910993933678">
        <ele>1.1</ele>
        <time>2019-05-07T13:43:48Z</time>
      </trkpt>
      <trkpt lat="53.292898004874587" lon="10.388888027518988">
        <ele>0.62</ele>
        <time>2019-05-07T13:43:49Z</time>
      </trkpt>
      <trkpt lat="53.292826004326344" lon="10.388833964243531">
        <ele>0.14</ele>
        <time>2019-05-07T13:43:50Z</time>
      </trkpt>
      <trkpt lat="53.292699018493295" lon="10.388738997280598">
        <ele>-0.34</ele>
        <time>2019-05-07T13:43:52Z</time>
      </trkpt>
      <trkpt lat="53.292531967163086" lon="10.388570018112659">
        <ele>-0.34</ele>
        <time>2019-05-07T13:43:56Z</time>
      </trkpt>
      <trkpt lat="53.292493997141719" lon="10.388502962887287">
        <ele>-0.34</ele>
        <time>2019-05-07T13:43:57Z</time>
      </trkpt>
      <trkpt lat="53.292456027120352" lon="10.388429034501314">
        <ele>-0.34</ele>
        <time>2019-05-07T13:43:58Z</time>
      </trkpt>
      <trkpt lat="53.292360976338387" lon="10.388152012601495">
        <ele>0.14</ele>
        <time>2019-05-07T13:44:03Z</time>
      </trkpt>
      <trkpt lat="53.292360976338387" lon="10.388152012601495">
        <ele>1.1</ele>
        <time>2019-05-07T13:44:19Z</time>
      </trkpt>
      <trkpt lat="53.292360976338387" lon="10.388152012601495">
        <ele>1.58</ele>
        <time>2019-05-07T13:45:00Z</time>
      </trkpt>
      <trkpt lat="53.292360976338387" lon="10.388152012601495">
        <ele>1.58</ele>
        <time>2019-05-07T13:45:48Z</time>
      </trkpt>
      <trkpt lat="53.292360976338387" lon="10.388152012601495">
        <ele>2.06</ele>
        <time>2019-05-07T13:46:23Z</time>
      </trkpt>
      <trkpt lat="53.292338009923697" lon="10.388015974313021">
        <ele>4.94</ele>
        <time>2019-05-07T13:46:31Z</time>
      </trkpt>
      <trkpt lat="53.292213035747409" lon="10.387988984584808">
        <ele>5.42</ele>
        <time>2019-05-07T13:46:32Z</time>
      </trkpt>
      <trkpt lat="53.292162995785475" lon="10.38803500123322">
        <ele>5.42</ele>
        <time>2019-05-07T13:46:33Z</time>
      </trkpt>
      <trkpt lat="53.292101975530386" lon="10.388088980689645">
        <ele>5.42</ele>
        <time>2019-05-07T13:46:34Z</time>
      </trkpt>
      <trkpt lat="53.292038021609187" lon="10.38814396597445">
        <ele>4.94</ele>
        <time>2019-05-07T13:46:35Z</time>
      </trkpt>
      <trkpt lat="53.291968032717705" lon="10.388204986229539">
        <ele>4.94</ele>
        <time>2019-05-07T13:46:36Z</time>
      </trkpt>
      <trkpt lat="53.291569976136088" lon="10.388561971485615">
        <ele>3.5</ele>
        <time>2019-05-07T13:46:44Z</time>
      </trkpt>
      <trkpt lat="53.291555978357792" lon="10.388574963435531">
        <ele>3.02</ele>
        <time>2019-05-07T13:46:45Z</time>
      </trkpt>
      <trkpt lat="53.291569976136088" lon="10.388561971485615">
        <ele>2.54</ele>
        <time>2019-05-07T13:46:48Z</time>
      </trkpt>
      <trkpt lat="53.291587997227907" lon="10.388545962050557">
        <ele>2.06</ele>
        <time>2019-05-07T13:46:49Z</time>
      </trkpt>
      <trkpt lat="53.291607024148107" lon="10.38852802477777">
        <ele>2.06</ele>
        <time>2019-05-07T13:46:50Z</time>
      </trkpt>
      <trkpt lat="53.291623033583164" lon="10.388513021171093">
        <ele>1.58</ele>
        <time>2019-05-07T13:46:51Z</time>
      </trkpt>
      <trkpt lat="53.291671983897686" lon="10.388468010351062">
        <ele>-0.82</ele>
        <time>2019-05-07T13:47:03Z</time>
      </trkpt>
      <trkpt lat="53.291900977492332" lon="10.388628020882607">
        <ele>-2.75</ele>
        <time>2019-05-07T13:51:22Z</time>
      </trkpt>
      <trkpt lat="53.291739039123058" lon="10.388599019497633">
        <ele>-46.009999999999998</ele>
        <time>2019-05-07T13:51:37Z</time>
      </trkpt>
      <trkpt lat="53.291773991659284" lon="10.388615028932691">
        <ele>-42.159999999999997</ele>
        <time>2019-05-07T13:52:22Z</time>
      </trkpt>
      <trkpt lat="53.291780026629567" lon="10.388602036982775">
        <ele>-38.799999999999997</ele>
        <time>2019-05-07T13:52:28Z</time>
      </trkpt>
      <trkpt lat="53.291820008307695" lon="10.388444038107991">
        <ele>-26.300000000000001</ele>
        <time>2019-05-07T13:52:33Z</time>
      </trkpt>
      <trkpt lat="53.291802993044257" lon="10.388345969840884">
        <ele>-6.11</ele>
        <time>2019-05-07T13:52:42Z</time>
      </trkpt>
      <trkpt lat="53.291774997487664" lon="10.388371031731367">
        <ele>-5.63</ele>
        <time>2019-05-07T13:52:43Z</time>
      </trkpt>
      <trkpt lat="53.291728980839252" lon="10.388414030894637">
        <ele>-5.63</ele>
        <time>2019-05-07T13:52:44Z</time>
      </trkpt>
      <trkpt lat="53.291662009432912" lon="10.388476978987455">
        <ele>-5.63</ele>
        <time>2019-05-07T13:52:45Z</time>
      </trkpt>
      <trkpt lat="53.291579028591514" lon="10.388553002849221">
        <ele>-5.63</ele>
        <time>2019-05-07T13:52:46Z</time>
      </trkpt>
      <trkpt lat="53.290533972904086" lon="10.389523040503263">
        <ele>-3.71</ele>
        <time>2019-05-07T13:52:56Z</time>
      </trkpt>
      <trkpt lat="53.28921097330749" lon="10.390719976276159">
        <ele>-2.27</ele>
        <time>2019-05-07T13:53:08Z</time>
      </trkpt>
      <trkpt lat="53.288990026339889" lon="10.390926003456116">
        <ele>-2.27</ele>
        <time>2019-05-07T13:53:10Z</time>
      </trkpt>
      <trkpt lat="53.287927033379674" lon="10.391921019181609">
        <ele>0.14</ele>
        <time>2019-05-07T13:53:20Z</time>
      </trkpt>
      <trkpt lat="53.286624988541007" lon="10.393131030723453">
        <ele>1.58</ele>
        <time>2019-05-07T13:53:32Z</time>
      </trkpt>
      <trkpt lat="53.285583034157753" lon="10.394096039235592">
        <ele>3.02</ele>
        <time>2019-05-07T13:53:42Z</time>
      </trkpt>
      <trkpt lat="53.285052040591836" lon="10.394585961475968">
        <ele>4.46</ele>
        <time>2019-05-07T13:53:49Z</time>
      </trkpt>
      <trkpt lat="53.285017004236579" lon="10.394617980346084">
        <ele>4.94</ele>
        <time>2019-05-07T13:53:50Z</time>
      </trkpt>
      <trkpt lat="53.284994959831238" lon="10.394640024751425">
        <ele>4.94</ele>
        <time>2019-05-07T13:53:51Z</time>
      </trkpt>
      <trkpt lat="53.284980040043592" lon="10.394659973680973">
        <ele>4.94</ele>
        <time>2019-05-07T13:53:52Z</time>
      </trkpt>
      <trkpt lat="53.284964030608535" lon="10.394680006429553">
        <ele>5.42</ele>
        <time>2019-05-07T13:53:53Z</time>
      </trkpt>
      <trkpt lat="53.284946009516716" lon="10.394702972844243">
        <ele>5.42</ele>
        <time>2019-05-07T13:53:54Z</time>
      </trkpt>
      <trkpt lat="53.284925976768136" lon="10.394729040563107">
        <ele>5.91</ele>
        <time>2019-05-07T13:53:55Z</time>
      </trkpt>
      <trkpt lat="53.284903010353446" lon="10.394758963957429">
        <ele>5.91</ele>
        <time>2019-05-07T13:53:56Z</time>
      </trkpt>
      <trkpt lat="53.28486897982657" lon="10.39480296894908">
        <ele>5.91</ele>
        <time>2019-05-07T13:53:57Z</time>
      </trkpt>
      <trkpt lat="53.284764960408211" lon="10.394783020019531">
        <ele>5.91</ele>
        <time>2019-05-07T13:53:58Z</time>
      </trkpt>
      <trkpt lat="53.284732019528747" lon="10.394799029454589">
        <ele>5.91</ele>
        <time>2019-05-07T13:53:59Z</time>
      </trkpt>
      <trkpt lat="53.284676028415561" lon="10.394911011680961">
        <ele>6.39</ele>
        <time>2019-05-07T13:54:01Z</time>
      </trkpt>
      <trkpt lat="53.284625988453627" lon="10.394977983087301">
        <ele>6.39</ele>
        <time>2019-05-07T13:54:02Z</time>
      </trkpt>
      <trkpt lat="53.28456899151206" lon="10.395021988078952">
        <ele>5.91</ele>
        <time>2019-05-07T13:54:03Z</time>
      </trkpt>
      <trkpt lat="53.283906988799572" lon="10.395587012171745">
        <ele>3.5</ele>
        <time>2019-05-07T13:54:10Z</time>
      </trkpt>
      <trkpt lat="53.282837960869074" lon="10.396626032888889">
        <ele>3.02</ele>
        <time>2019-05-07T13:54:19Z</time>
      </trkpt>
      <trkpt lat="53.281430974602699" lon="10.398051962256432">
        <ele>4.94</ele>
        <time>2019-05-07T13:54:30Z</time>
      </trkpt>
      <trkpt lat="53.280392959713936" lon="10.399072961881757">
        <ele>7.83</ele>
        <time>2019-05-07T13:54:38Z</time>
      </trkpt>
      <trkpt lat="53.278453974053264" lon="10.40049796923995">
        <ele>14.08</ele>
        <time>2019-05-07T13:54:51Z</time>
      </trkpt>
      <trkpt lat="53.277547974139452" lon="10.400900971144438">
        <ele>16.48</ele>
        <time>2019-05-07T13:54:59Z</time>
      </trkpt>
      <trkpt lat="53.277488965541124" lon="10.40092502720654">
        <ele>16.960000000000001</ele>
        <time>2019-05-07T13:55:00Z</time>
      </trkpt>
      <trkpt lat="53.277441021054983" lon="10.400943970307708">
        <ele>16.960000000000001</ele>
        <time>2019-05-07T13:55:01Z</time>
      </trkpt>
      <trkpt lat="53.277358962222934" lon="10.40097096003592">
        <ele>17.440000000000001</ele>
        <time>2019-05-07T13:55:09Z</time>
      </trkpt>
      <trkpt lat="53.277257038280368" lon="10.401004990562797">
        <ele>18.879999999999999</ele>
        <time>2019-05-07T13:55:37Z</time>
      </trkpt>
      <trkpt lat="53.276548013091087" lon="10.401304978877306">
        <ele>17.920000000000002</ele>
        <time>2019-05-07T13:55:45Z</time>
      </trkpt>
      <trkpt lat="53.274993002414703" lon="10.402101008221507">
        <ele>13.6</ele>
        <time>2019-05-07T13:55:58Z</time>
      </trkpt>
      <trkpt lat="53.273771004751325" lon="10.402774997055531">
        <ele>12.630000000000001</ele>
        <time>2019-05-07T13:56:08Z</time>
      </trkpt>
      <trkpt lat="53.273058040067554" lon="10.403245976194739">
        <ele>10.23</ele>
        <time>2019-05-07T13:56:14Z</time>
      </trkpt>
      <trkpt lat="53.272110968828201" lon="10.403879983350635">
        <ele>5.42</ele>
        <time>2019-05-07T13:56:21Z</time>
      </trkpt>
      <trkpt lat="53.270691996440291" lon="10.40453502908349">
        <ele>9.75</ele>
        <time>2019-05-07T13:56:33Z</time>
      </trkpt>
      <trkpt lat="53.269448038190603" lon="10.404740972444415">
        <ele>14.08</ele>
        <time>2019-05-07T13:56:43Z</time>
      </trkpt>
      <trkpt lat="53.268208019435406" lon="10.405140034854412">
        <ele>16</ele>
        <time>2019-05-07T13:56:53Z</time>
      </trkpt>
      <trkpt lat="53.266983004286885" lon="10.405649989843369">
        <ele>16.48</ele>
        <time>2019-05-07T13:57:03Z</time>
      </trkpt>
      <trkpt lat="53.265878017991781" lon="10.406119963154197">
        <ele>20.32</ele>
        <time>2019-05-07T13:57:12Z</time>
      </trkpt>
      <trkpt lat="53.26452299952507" lon="10.406774003058672">
        <ele>25.129999999999999</ele>
        <time>2019-05-07T13:57:23Z</time>
      </trkpt>
      <trkpt lat="53.263238975778222" lon="10.407396024093032">
        <ele>27.050000000000001</ele>
        <time>2019-05-07T13:57:32Z</time>
      </trkpt>
      <trkpt lat="53.26173098757863" lon="10.408185012638569">
        <ele>24.170000000000002</ele>
        <time>2019-05-07T13:57:43Z</time>
      </trkpt>
      <trkpt lat="53.260480994358659" lon="10.408751964569092">
        <ele>20.809999999999999</ele>
        <time>2019-05-07T13:57:53Z</time>
      </trkpt>
      <trkpt lat="53.25872196815908" lon="10.409352025017142">
        <ele>16.960000000000001</ele>
        <time>2019-05-07T13:58:07Z</time>
      </trkpt>
      <trkpt lat="53.257084982469678" lon="10.409868014976382">
        <ele>14.56</ele>
        <time>2019-05-07T13:58:20Z</time>
      </trkpt>
      <trkpt lat="53.255704985931516" lon="10.410000029951334">
        <ele>11.67</ele>
        <time>2019-05-07T13:58:31Z</time>
      </trkpt>
      <trkpt lat="53.254584996029735" lon="10.409870026633143">
        <ele>5.42</ele>
        <time>2019-05-07T13:58:40Z</time>
      </trkpt>
      <trkpt lat="53.253910001367331" lon="10.409747986122966">
        <ele>-0.82</ele>
        <time>2019-05-07T13:58:48Z</time>
      </trkpt>
      <trkpt lat="53.253838000819087" lon="10.409732982516289">
        <ele>-1.3</ele>
        <time>2019-05-07T13:58:49Z</time>
      </trkpt>
      <trkpt lat="53.253635996952653" lon="10.409687971696258">
        <ele>-6.11</ele>
        <time>2019-05-07T13:58:56Z</time>
      </trkpt>
      <trkpt lat="53.253405997529626" lon="10.409637009724975">
        <ele>-9.960000000000001</ele>
        <time>2019-05-07T13:59:08Z</time>
      </trkpt>
      <trkpt lat="53.25328697450459" lon="10.409388989210129">
        <ele>-9.960000000000001</ele>
        <time>2019-05-07T13:59:11Z</time>
      </trkpt>
      <trkpt lat="53.25328697450459" lon="10.409308020025492">
        <ele>-9.48</ele>
        <time>2019-05-07T13:59:12Z</time>
      </trkpt>
      <trkpt lat="53.25324397534132" lon="10.408017039299011">
        <ele>-6.59</ele>
        <time>2019-05-07T13:59:21Z</time>
      </trkpt>
      <trkpt lat="53.253199970349669" lon="10.40696301497519">
        <ele>-6.11</ele>
        <time>2019-05-07T13:59:27Z</time>
      </trkpt>
      <trkpt lat="53.253193013370037" lon="10.406795041635633">
        <ele>-5.63</ele>
        <time>2019-05-07T13:59:28Z</time>
      </trkpt>
      <trkpt lat="53.253185972571373" lon="10.406625978648663">
        <ele>-4.19</ele>
        <time>2019-05-07T13:59:29Z</time>
      </trkpt>
      <trkpt lat="53.253171974793077" lon="10.40627796202898">
        <ele>-2.75</ele>
        <time>2019-05-07T13:59:31Z</time>
      </trkpt>
      <trkpt lat="53.253164011985064" lon="10.406116023659706">
        <ele>-1.79</ele>
        <time>2019-05-07T13:59:32Z</time>
      </trkpt>
      <trkpt lat="53.25315797701478" lon="10.405962970107794">
        <ele>-1.3</ele>
        <time>2019-05-07T13:59:33Z</time>
      </trkpt>
      <trkpt lat="53.253151020035148" lon="10.405794996768236">
        <ele>-1.3</ele>
        <time>2019-05-07T13:59:34Z</time>
      </trkpt>
      <trkpt lat="53.253144985064864" lon="10.405635992065072">
        <ele>-0.82</ele>
        <time>2019-05-07T13:59:35Z</time>
      </trkpt>
      <trkpt lat="53.25311497785151" lon="10.404824959114194">
        <ele>3.02</ele>
        <time>2019-05-07T13:59:42Z</time>
      </trkpt>
      <trkpt lat="53.253111038357019" lon="10.40475002489984">
        <ele>3.5</ele>
        <time>2019-05-07T13:59:43Z</time>
      </trkpt>
      <trkpt lat="53.253107015043497" lon="10.404678024351597">
        <ele>3.98</ele>
        <time>2019-05-07T13:59:44Z</time>
      </trkpt>
      <trkpt lat="53.253083964809775" lon="10.404219031333923">
        <ele>7.35</ele>
        <time>2019-05-07T13:59:51Z</time>
      </trkpt>
      <trkpt lat="53.253021016716957" lon="10.403100969269872">
        <ele>12.630000000000001</ele>
        <time>2019-05-07T14:00:00Z</time>
      </trkpt>
      <trkpt lat="53.252928983420134" lon="10.401657018810511">
        <ele>16</ele>
        <time>2019-05-07T14:00:09Z</time>
      </trkpt>
      <trkpt lat="53.252873998135328" lon="10.400799969211221">
        <ele>18.399999999999999</ele>
        <time>2019-05-07T14:00:16Z</time>
      </trkpt>
      <trkpt lat="53.252869974821806" lon="10.400726962834597">
        <ele>18.879999999999999</ele>
        <time>2019-05-07T14:00:17Z</time>
      </trkpt>
      <trkpt lat="53.252866035327315" lon="10.400665020570159">
        <ele>19.359999999999999</ele>
        <time>2019-05-07T14:00:18Z</time>
      </trkpt>
      <trkpt lat="53.252800991758704" lon="10.400522025302052">
        <ele>19.84</ele>
        <time>2019-05-07T14:00:20Z</time>
      </trkpt>
      <trkpt lat="53.252761010080576" lon="10.400513978675008">
        <ele>20.32</ele>
        <time>2019-05-07T14:00:21Z</time>
      </trkpt>
      <trkpt lat="53.252712981775403" lon="10.400504004210234">
        <ele>20.809999999999999</ele>
        <time>2019-05-07T14:00:22Z</time>
      </trkpt>
      <trkpt lat="53.252608040347695" lon="10.400481959804893">
        <ele>21.289999999999999</ele>
        <time>2019-05-07T14:00:24Z</time>
      </trkpt>
      <trkpt lat="53.252549031749368" lon="10.400469973683357">
        <ele>21.289999999999999</ele>
        <time>2019-05-07T14:00:25Z</time>
      </trkpt>
      <trkpt lat="53.252485999837518" lon="10.400456981733441">
        <ele>21.289999999999999</ele>
        <time>2019-05-07T14:00:26Z</time>
      </trkpt>
      <trkpt lat="53.252421962097287" lon="10.400443989783525">
        <ele>21.77</ele>
        <time>2019-05-07T14:00:27Z</time>
      </trkpt>
      <trkpt lat="53.252355996519327" lon="10.400429992005229">
        <ele>21.77</ele>
        <time>2019-05-07T14:00:28Z</time>
      </trkpt>
      <trkpt lat="53.251582011580467" lon="10.400211978703737">
        <ele>24.170000000000002</ele>
        <time>2019-05-07T14:00:38Z</time>
      </trkpt>
      <trkpt lat="53.251510011032224" lon="10.400192029774189">
        <ele>24.649999999999999</ele>
        <time>2019-05-07T14:00:39Z</time>
      </trkpt>
      <trkpt lat="53.251255033537745" lon="10.400119023397565">
        <ele>25.129999999999999</ele>
        <time>2019-05-07T14:00:43Z</time>
      </trkpt>
      <trkpt lat="53.251230977475643" lon="10.400111982598901">
        <ele>25.129999999999999</ele>
        <time>2019-05-07T14:00:44Z</time>
      </trkpt>
      <trkpt lat="53.25122200883925" lon="10.40010997094214">
        <ele>25.129999999999999</ele>
        <time>2019-05-07T14:00:45Z</time>
      </trkpt>
      <trkpt lat="53.251208011060953" lon="10.400105025619268">
        <ele>25.129999999999999</ele>
        <time>2019-05-07T14:00:46Z</time>
      </trkpt>
      <trkpt lat="53.251187978312373" lon="10.400099996477365">
        <ele>25.129999999999999</ele>
        <time>2019-05-07T14:00:47Z</time>
      </trkpt>
      <trkpt lat="53.251187978312373" lon="10.400099996477365">
        <ele>25.129999999999999</ele>
        <time>2019-05-07T14:00:59Z</time>
      </trkpt>
      <trkpt lat="53.251082031056285" lon="10.400069989264011">
        <ele>25.129999999999999</ele>
        <time>2019-05-07T14:01:24Z</time>
      </trkpt>
      <trkpt lat="53.250928977504373" lon="10.400025984272361">
        <ele>23.690000000000001</ele>
        <time>2019-05-07T14:01:27Z</time>
      </trkpt>
      <trkpt lat="53.250894024968147" lon="10.400077030062675">
        <ele>22.73</ele>
        <time>2019-05-07T14:01:28Z</time>
      </trkpt>
      <trkpt lat="53.25087902136147" lon="10.400161016732454">
        <ele>21.77</ele>
        <time>2019-05-07T14:01:29Z</time>
      </trkpt>
      <trkpt lat="53.250861000269651" lon="10.400262018665671">
        <ele>20.809999999999999</ele>
        <time>2019-05-07T14:01:30Z</time>
      </trkpt>
      <trkpt lat="53.250843985006213" lon="10.400361008942127">
        <ele>20.32</ele>
        <time>2019-05-07T14:01:31Z</time>
      </trkpt>
      <trkpt lat="53.250825963914394" lon="10.400461005046964">
        <ele>19.84</ele>
        <time>2019-05-07T14:01:32Z</time>
      </trkpt>
      <trkpt lat="53.250806014984846" lon="10.400571981444955">
        <ele>19.359999999999999</ele>
        <time>2019-05-07T14:01:33Z</time>
      </trkpt>
      <trkpt lat="53.250785982236266" lon="10.40068899281323">
        <ele>18.879999999999999</ele>
        <time>2019-05-07T14:01:34Z</time>
      </trkpt>
      <trkpt lat="53.250733008608222" lon="10.400984035804868">
        <ele>17.920000000000002</ele>
        <time>2019-05-07T14:01:36Z</time>
      </trkpt>
      <trkpt lat="53.250736026093364" lon="10.401056036353111">
        <ele>17.440000000000001</ele>
        <time>2019-05-07T14:01:37Z</time>
      </trkpt>
      <trkpt lat="53.250741977244616" lon="10.401186961680651">
        <ele>16.960000000000001</ele>
        <time>2019-05-07T14:01:38Z</time>
      </trkpt>
      <trkpt lat="53.250950016081333" lon="10.402619009837508">
        <ele>11.19</ele>
        <time>2019-05-07T14:01:50Z</time>
      </trkpt>
      <trkpt lat="53.250972982496023" lon="10.402780026197433">
        <ele>9.75</ele>
        <time>2019-05-07T14:01:58Z</time>
      </trkpt>
      <trkpt lat="53.251006007194519" lon="10.403004996478558">
        <ele>10.710000000000001</ele>
        <time>2019-05-07T14:02:32Z</time>
      </trkpt>
      <trkpt lat="53.251003995537758" lon="10.403096023947001">
        <ele>10.710000000000001</ele>
        <time>2019-05-07T14:02:33Z</time>
      </trkpt>
      <trkpt lat="53.250993015244603" lon="10.403166012838483">
        <ele>10.710000000000001</ele>
        <time>2019-05-07T14:02:34Z</time>
      </trkpt>
      <trkpt lat="53.250983040779829" lon="10.403228960931301">
        <ele>10.23</ele>
        <time>2019-05-07T14:02:35Z</time>
      </trkpt>
      <trkpt lat="53.250975999981165" lon="10.403271038085222">
        <ele>10.23</ele>
        <time>2019-05-07T14:02:36Z</time>
      </trkpt>
      <trkpt lat="53.250970970839262" lon="10.403305990621448">
        <ele>9.27</ele>
        <time>2019-05-07T14:02:37Z</time>
      </trkpt>
      <trkpt lat="53.250847002491355" lon="10.403318982571363">
        <ele>8.789999999999999</ele>
        <time>2019-05-07T14:02:38Z</time>
      </trkpt>
      <trkpt lat="53.250825041905046" lon="10.403287969529629">
        <ele>7.83</ele>
        <time>2019-05-07T14:02:39Z</time>
      </trkpt>
      <trkpt lat="53.250798974186182" lon="10.403254022821784">
        <ele>7.35</ele>
        <time>2019-05-07T14:02:40Z</time>
      </trkpt>
      <trkpt lat="53.250769972801208" lon="10.403214963153005">
        <ele>6.87</ele>
        <time>2019-05-07T14:02:41Z</time>
      </trkpt>
      <trkpt lat="53.250740971416235" lon="10.403175987303257">
        <ele>6.39</ele>
        <time>2019-05-07T14:02:42Z</time>
      </trkpt>
      <trkpt lat="53.250711970031261" lon="10.40313801728189">
        <ele>5.91</ele>
        <time>2019-05-07T14:02:43Z</time>
      </trkpt>
      <trkpt lat="53.250632006675005" lon="10.403030980378389">
        <ele>4.46</ele>
        <time>2019-05-07T14:02:46Z</time>
      </trkpt>
      <trkpt lat="53.250601999461651" lon="10.402997033670545">
        <ele>3.98</ele>
        <time>2019-05-07T14:02:47Z</time>
      </trkpt>
      <trkpt lat="53.250568974763155" lon="10.402960991486907">
        <ele>3.5</ele>
        <time>2019-05-07T14:02:48Z</time>
      </trkpt>
      <trkpt lat="53.25053502805531" lon="10.402924027293921">
        <ele>3.02</ele>
        <time>2019-05-07T14:02:49Z</time>
      </trkpt>
      <trkpt lat="53.250499991700053" lon="10.402884967625141">
        <ele>2.54</ele>
        <time>2019-05-07T14:02:50Z</time>
      </trkpt>
      <trkpt lat="53.250465961173177" lon="10.402848003432155">
        <ele>1.58</ele>
        <time>2019-05-07T14:02:51Z</time>
      </trkpt>
      <trkpt lat="53.25027896091342" lon="10.402642982080579">
        <ele>-1.3</ele>
        <time>2019-05-07T14:02:57Z</time>
      </trkpt>
      <trkpt lat="53.250253982841969" lon="10.402615992352366">
        <ele>-1.79</ele>
        <time>2019-05-07T14:02:58Z</time>
      </trkpt>
      <trkpt lat="53.250230010598898" lon="10.402590008452535">
        <ele>-2.27</ele>
        <time>2019-05-07T14:02:59Z</time>
      </trkpt>
      <trkpt lat="53.250175025314093" lon="10.402528988197446">
        <ele>-2.27</ele>
        <time>2019-05-07T14:03:00Z</time>
      </trkpt>
      <trkpt lat="53.250154992565513" lon="10.402564024552703">
        <ele>-2.75</ele>
        <time>2019-05-07T14:03:01Z</time>
      </trkpt>
      <trkpt lat="53.250089026987553" lon="10.402676006779075">
        <ele>-3.71</ele>
        <time>2019-05-07T14:03:03Z</time>
      </trkpt>
      <trkpt lat="53.250022977590561" lon="10.402786983177066">
        <ele>-4.19</ele>
        <time>2019-05-07T14:03:05Z</time>
      </trkpt>
      <trkpt lat="53.249990958720446" lon="10.402841968461871">
        <ele>-4.67</ele>
        <time>2019-05-07T14:03:06Z</time>
      </trkpt>
      <trkpt lat="53.249959023669362" lon="10.402896031737328">
        <ele>-4.67</ele>
        <time>2019-05-07T14:03:07Z</time>
      </trkpt>
      <trkpt lat="53.249928010627627" lon="10.402946993708611">
        <ele>-5.15</ele>
        <time>2019-05-07T14:03:08Z</time>
      </trkpt>
      <trkpt lat="53.249900015071034" lon="10.402995022013783">
        <ele>-5.15</ele>
        <time>2019-05-07T14:03:09Z</time>
      </trkpt>
      <trkpt lat="53.249685019254684" lon="10.403198031708598">
        <ele>-5.63</ele>
        <time>2019-05-07T14:03:18Z</time>
      </trkpt>
      <trkpt lat="53.249646965414286" lon="10.403232984244823">
        <ele>-6.11</ele>
        <time>2019-05-07T14:03:27Z</time>
      </trkpt>
      <trkpt lat="53.249579994007945" lon="10.403231978416443">
        <ele>-6.59</ele>
        <time>2019-05-07T14:03:28Z</time>
      </trkpt>
      <trkpt lat="53.249562978744507" lon="10.403176993131638">
        <ele>-6.59</ele>
        <time>2019-05-07T14:03:29Z</time>
      </trkpt>
      <trkpt lat="53.249544035643339" lon="10.40311798453331">
        <ele>-6.59</ele>
        <time>2019-05-07T14:03:30Z</time>
      </trkpt>
      <trkpt lat="53.249527020379901" lon="10.403064005076885">
        <ele>-6.59</ele>
        <time>2019-05-07T14:03:31Z</time>
      </trkpt>
      <trkpt lat="53.249428030103445" lon="10.402755970135331">
        <ele>-5.63</ele>
        <time>2019-05-07T14:03:39Z</time>
      </trkpt>
      <trkpt lat="53.249424006789923" lon="10.402743984013796">
        <ele>-5.63</ele>
        <time>2019-05-07T14:03:40Z</time>
      </trkpt>
    </trkseg>
  </trk>

</gpx>